GFSWCAN_sfc_wetblb_000.txt.gz
Wetbulb
46.16 46.17 46.31 46.35 46.43 46.38 46.76 47.16 47.48 47.80 47.83 48.03 48.91 49.72 50.24 50.76 51.17 47.47 44.70 41.47 43.32 38.10 36.87 38.86 38.77 35.84 37.91 37.60 33.84 34.88 33.54 34.48 32.66 27.64 29.90 30.97 32.25 32.81 31.16 33.51 32.66 31.78 30.14 32.80 32.87 31.16 31.85 42.53 40.71 35.10 39.15 41.06 42.01 42.37
45.88 45.79 46.02 46.12 46.38 46.17 46.26 46.77 47.32 47.83 48.26 48.11 48.77 49.77 50.34 50.65 51.43 49.00 42.36 42.13 46.26 40.86 38.43 40.28 41.73 42.63 40.66 40.40 38.53 37.51 33.21 35.96 34.87 34.08 33.80 34.48 31.89 32.82 33.26 29.09 37.52 31.93 34.79 32.80 35.23 34.72 40.80 43.52 42.70 45.03 44.64 41.14 42.16 42.25
44.90 45.61 45.95 45.99 46.15 46.02 46.05 46.56 46.91 47.78 48.26 48.59 48.87 49.81 50.36 50.61 50.85 49.52 44.90 45.30 44.04 40.71 37.82 34.29 35.63 39.42 42.79 43.24 43.76 37.42 34.35 37.43 37.43 40.13 37.78 36.45 31.46 34.89 28.43 31.02 33.66 36.50 39.31 36.11 36.03 38.15 39.18 41.60 44.85 44.94 44.83 42.37 44.16 44.35
44.92 45.24 45.90 46.07 45.87 46.02 46.00 46.44 46.84 47.47 48.12 48.52 49.18 49.61 50.44 49.56 50.03 49.07 44.16 43.43 43.79 40.96 35.00 33.84 41.43 39.92 43.95 45.43 43.49 42.86 40.91 41.11 39.36 40.40 37.87 35.86 34.36 38.42 33.66 35.65 34.19 35.11 37.06 35.95 36.21 38.89 39.89 42.96 43.29 44.34 44.92 44.35 44.63 45.38
45.13 45.25 45.73 45.75 45.76 45.88 46.06 46.32 46.65 47.23 47.81 48.63 49.06 49.14 49.81 49.56 48.90 46.71 42.72 44.55 43.89 40.09 34.87 34.56 38.93 42.91 44.04 44.16 43.91 43.84 41.91 40.70 38.77 37.14 34.26 31.90 36.55 37.85 38.41 36.11 32.67 37.62 35.32 34.59 34.39 40.01 39.20 40.11 43.70 45.17 44.05 44.19 44.47 44.71
45.32 45.33 45.56 45.71 45.76 45.85 45.83 46.15 46.60 47.19 47.89 48.51 48.58 49.27 49.30 49.34 49.56 40.86 36.18 42.43 46.47 45.56 39.94 32.62 37.88 41.09 42.87 46.17 44.37 43.73 41.76 40.92 41.04 39.42 35.53 35.65 38.25 36.93 32.96 31.19 38.18 39.68 41.76 40.90 39.50 42.91 43.05 43.47 45.01 46.15 45.10 44.95 45.14 45.64
45.91 45.58 45.49 45.36 45.71 45.87 46.02 46.30 46.82 47.44 47.76 48.12 48.57 48.83 49.67 49.65 44.74 37.75 37.14 43.33 47.60 46.01 39.02 34.53 32.42 41.18 41.72 44.13 43.73 41.84 41.45 38.93 39.01 39.57 35.64 33.05 34.02 35.42 31.50 29.86 37.19 38.67 39.88 40.97 43.88 43.91 41.91 43.65 42.32 45.25 45.15 45.98 46.64 46.43
46.38 45.86 45.58 45.33 45.63 45.68 45.95 46.34 46.72 47.32 47.50 47.95 47.82 49.83 50.42 49.73 47.81 41.31 43.18 48.18 46.97 42.26 39.56 34.74 33.24 35.02 41.89 39.14 39.42 39.41 36.66 36.27 37.96 37.65 35.65 32.52 33.50 32.62 28.22 36.56 38.70 39.13 39.57 40.65 42.28 43.91 43.88 45.67 45.26 44.27 45.66 46.08 45.28 44.77
46.65 46.12 45.93 45.44 45.38 45.75 45.95 46.13 46.53 47.05 47.14 47.26 48.43 50.33 45.35 40.61 38.39 41.04 50.34 47.99 42.81 39.58 31.38 36.04 33.63 31.90 39.74 40.99 40.84 40.41 35.01 31.78 36.19 33.28 35.14 35.57 29.13 29.03 35.18 37.23 38.13 38.67 38.29 38.81 41.76 42.24 43.84 43.88 44.52 45.65 45.67 44.34 43.76 45.14
46.97 46.38 46.40 45.73 45.45 45.68 45.75 45.87 46.37 47.05 47.10 47.61 44.46 40.94 34.39 41.05 49.01 48.75 41.87 38.13 37.42 40.85 41.24 37.27 40.31 35.53 39.78 39.94 37.60 36.32 36.71 32.78 31.30 35.65 38.80 35.11 33.35 38.54 39.58 40.81 41.39 41.02 41.39 40.75 38.84 38.66 39.77 39.81 41.66 43.20 44.58 44.16 44.17 44.66
47.51 46.72 46.29 46.01 45.71 45.66 45.92 45.87 46.12 47.03 44.05 39.41 38.25 37.36 41.82 46.77 40.68 34.73 30.68 31.18 31.45 30.19 36.77 38.40 36.96 32.99 41.35 36.41 35.02 35.94 32.38 33.38 28.44 32.70 34.25 32.86 32.58 35.69 41.66 42.57 43.47 43.33 42.81 42.72 42.39 41.75 41.94 41.60 41.49 42.03 43.57 46.03 45.23 45.06
47.38 47.06 46.65 46.07 45.59 45.66 45.70 45.62 46.10 39.18 37.29 38.00 40.25 43.12 43.83 37.51 33.55 31.78 26.60 30.04 30.99 29.16 34.36 34.09 34.82 35.87 39.19 37.70 34.10 34.26 31.31 31.48 27.80 35.81 33.86 32.17 36.47 40.71 41.81 42.62 43.53 43.93 43.79 43.65 44.12 43.20 42.68 42.82 43.04 42.37 42.85 43.99 46.22 46.20
47.26 47.08 46.46 45.94 45.49 44.99 45.54 46.22 45.99 45.00 44.10 45.86 43.15 40.02 32.85 31.92 25.30 28.11 26.78 27.29 27.31 33.65 35.34 34.46 32.40 34.14 37.26 34.76 32.41 28.06 27.93 28.28 29.88 23.16 29.21 34.81 38.51 39.66 40.45 41.23 41.48 43.61 45.50 45.54 45.44 45.50 45.22 44.76 44.98 43.81 43.30 44.03 45.11 46.46
46.95 46.70 45.93 45.58 45.44 45.70 46.02 45.34 45.20 43.46 40.79 39.43 33.63 25.69 29.03 27.88 29.17 29.57 31.21 31.91 34.66 34.56 34.87 33.72 32.18 30.07 31.99 29.26 33.92 26.62 27.48 26.19 15.75 15.67 21.56 33.41 38.36 38.42 39.47 40.17 39.79 41.24 44.64 45.00 45.25 45.75 45.66 45.38 45.11 45.22 44.83 45.50 45.40 45.61
46.83 46.10 45.54 44.83 45.09 44.95 44.40 44.71 45.23 40.93 39.60 37.86 31.54 24.98 28.22 33.77 34.82 35.31 35.53 34.91 36.04 36.31 33.74 31.11 31.52 32.20 26.00 26.98 30.48 23.57 21.44 14.23 16.81 19.87 27.97 34.36 38.18 37.93 37.98 38.95 39.63 40.96 43.32 44.67 45.50 45.21 45.56 46.00 45.91 46.17 46.37 45.79 45.81 46.33
46.22 44.56 41.46 44.73 44.73 44.42 44.30 43.25 41.57 42.01 40.34 39.28 33.68 30.82 33.14 32.48 32.92 34.56 35.01 34.81 36.07 34.30 34.27 32.26 28.18 27.38 25.99 26.25 20.30 17.74 21.39 14.14 22.43 28.17 33.63 35.60 37.28 37.28 37.84 39.06 40.38 41.69 43.02 44.71 44.49 45.73 45.79 45.56 45.52 46.38 47.68 46.63 45.84 45.86
44.92 39.58 42.42 43.95 44.39 44.49 43.70 40.51 40.87 42.43 39.55 35.95 32.08 35.81 34.08 33.30 33.31 34.28 35.65 36.07 36.24 34.72 29.84 29.95 27.89 26.16 28.79 21.73 17.46 29.80 24.12 25.98 30.11 33.90 35.27 35.95 36.79 37.57 38.61 40.07 41.59 42.09 42.37 42.75 43.95 45.84 45.43 46.36 46.05 45.35 45.29 46.36 46.21 46.31
41.94 40.89 43.41 43.61 43.78 41.81 39.60 41.39 40.55 38.07 36.51 36.37 31.65 34.02 35.00 35.96 35.26 35.41 35.51 35.67 35.91 34.88 34.42 31.74 32.65 25.73 21.54 17.38 17.54 24.60 31.55 33.00 34.33 35.45 36.57 38.11 38.37 39.21 40.94 40.45 41.42 41.72 41.38 41.82 42.68 44.72 45.59 45.24 44.64 44.60 45.27 44.84 47.06 45.88
43.54 43.36 44.53 44.71 43.01 39.48 36.11 37.76 40.48 35.43 36.43 36.24 35.58 35.23 35.31 35.25 36.29 37.57 36.66 35.92 36.82 37.38 36.92 34.37 30.95 27.71 27.13 30.02 30.35 31.25 32.60 34.45 35.11 36.29 37.62 39.28 39.34 39.63 40.96 40.41 40.60 40.02 40.08 40.65 41.62 43.50 45.16 45.53 45.59 46.04 44.57 44.52 43.52 45.67
45.68 45.13 44.47 44.03 43.25 38.49 36.93 36.61 42.15 36.02 32.65 35.77 36.29 35.17 35.39 35.30 35.93 35.50 35.87 35.78 35.51 35.27 33.57 31.28 32.07 33.12 32.55 35.04 35.60 36.23 36.12 36.47 36.19 35.44 36.54 38.59 39.31 39.46 38.89 38.13 38.16 38.86 39.13 40.45 41.59 41.45 44.62 44.98 46.01 46.28 44.38 43.27 43.06 44.51
41.86 42.23 43.13 42.59 40.69 39.65 38.02 37.06 37.21 35.33 34.63 34.61 37.59 35.95 35.41 35.21 34.26 33.94 34.24 35.96 33.89 30.72 30.84 33.67 35.12 36.53 36.43 37.79 38.52 37.99 37.49 37.71 37.30 37.45 37.39 37.49 39.28 39.24 38.44 38.85 38.69 38.84 38.38 38.75 39.68 41.32 42.19 43.53 45.12 45.39 43.96 44.25 44.24 43.12
40.51 42.36 40.06 41.10 37.25 38.24 36.00 37.29 34.17 36.59 34.19 35.52 34.36 35.78 30.82 28.25 30.11 33.19 34.75 33.07 33.12 35.03 35.03 35.17 35.90 36.92 36.70 37.77 39.01 39.18 39.62 39.63 39.05 38.57 38.56 38.75 38.84 38.55 38.22 38.46 37.93 37.57 37.99 38.38 39.22 40.45 42.13 43.85 44.56 45.13 43.96 42.62 42.29 41.47
40.96 39.49 37.53 36.51 34.81 36.05 35.02 39.63 35.08 34.82 30.75 31.22 31.37 30.26 28.74 27.60 33.01 35.39 28.18 33.01 34.38 36.56 36.40 35.90 37.04 37.84 38.31 39.88 40.86 40.62 41.76 39.97 38.52 38.56 39.39 39.16 39.31 39.45 39.73 39.03 38.31 37.73 37.85 38.99 39.94 40.38 41.43 39.17 43.13 42.82 43.24 42.66 40.84 40.36
40.58 36.46 34.48 32.23 32.49 30.09 33.81 33.51 33.87 29.72 28.60 29.38 27.08 28.92 28.61 29.39 32.24 28.97 27.85 31.49 34.00 33.66 35.16 36.19 37.40 36.97 37.97 38.30 37.75 38.02 38.12 38.25 38.40 38.87 39.03 38.20 38.30 38.43 39.91 40.12 39.78 38.83 39.14 39.07 40.66 40.38 40.48 40.77 40.43 42.13 40.84 40.46 40.26 38.77
31.99 30.71 32.47 29.33 31.98 31.96 30.40 30.37 29.91 26.99 30.85 30.57 29.23 28.26 27.78 28.58 25.71 25.96 28.53 31.47 31.58 32.50 33.54 35.53 36.29 37.54 37.40 37.43 37.44 38.07 38.92 39.16 38.80 37.94 38.05 38.80 38.15 38.43 38.32 38.47 38.57 38.35 39.61 40.43 40.40 39.84 38.91 39.04 40.61 40.13 39.37 38.16 37.76 37.91
27.46 26.19 27.04 27.55 28.18 29.39 30.65 29.69 29.67 30.13 30.50 29.41 28.67 28.62 24.06 26.20 26.91 28.04 30.15 31.36 31.46 31.53 33.47 35.37 35.60 34.95 35.55 36.75 36.89 37.38 38.78 39.28 38.98 37.64 37.29 37.63 38.40 38.06 36.65 36.06 36.42 37.53 39.79 40.14 40.81 39.03 37.87 37.60 38.21 38.25 37.16 36.80 34.94 36.77
25.43 24.81 27.01 32.08 28.24 30.78 28.76 30.61 31.11 27.92 29.54 29.00 26.33 26.21 24.98 27.58 27.18 30.16 33.08 33.44 34.03 35.91 37.33 37.59 36.97 36.59 37.65 38.99 38.57 38.40 38.22 38.92 38.62 38.90 38.90 38.13 37.84 37.57 36.70 36.14 36.55 37.91 39.35 40.72 40.28 38.97 37.22 37.28 36.79 36.30 36.42 35.81 35.62 35.59
27.96 26.35 24.62 24.34 28.23 28.40 29.10 28.67 28.34 28.90 29.34 30.94 30.83 28.71 29.00 28.22 28.91 33.56 34.24 36.34 36.50 36.18 36.22 36.09 36.54 36.38 35.73 36.90 37.55 38.19 39.65 40.32 40.50 39.16 37.49 37.25 36.96 36.07 38.02 37.98 37.41 34.97 37.11 36.14 37.81 37.88 37.15 37.56 36.62 36.14 35.13 34.22 34.00 34.41
29.52 28.39 28.18 25.64 27.47 25.58 27.01 28.19 28.34 30.73 34.25 35.38 31.56 29.74 32.06 35.22 37.06 36.85 37.92 38.87 38.00 36.70 35.50 33.47 35.83 37.48 36.73 35.95 35.81 35.46 37.89 36.42 35.04 33.88 33.46 31.89 32.11 33.67 35.26 38.30 38.87 39.04 37.99 36.73 31.67 32.93 34.70 36.03 36.01 35.29 34.47 33.40 33.16 32.81
27.14 29.23 28.20 27.09 26.36 25.99 28.76 31.25 31.24 34.65 36.79 36.74 35.81 35.32 35.38 36.36 37.89 39.02 38.15 39.69 38.64 35.82 37.26 37.97 37.49 36.95 35.74 35.27 33.35 33.13 33.51 33.10 34.11 33.59 31.88 30.98 31.89 33.79 35.09 37.53 38.18 38.04 37.58 36.81 35.34 35.10 32.86 35.04 33.77 34.26 32.81 31.53 30.57 29.77
29.19 29.07 28.11 25.72 27.46 30.65 31.59 33.70 35.56 34.39 33.72 33.30 35.02 31.95 32.58 35.25 38.59 37.42 38.42 37.50 37.84 36.73 38.01 36.82 36.79 36.92 36.10 34.60 33.85 33.15 31.19 30.34 30.83 31.30 31.89 32.41 32.74 33.20 34.24 35.53 37.80 37.27 36.24 35.08 33.97 32.89 32.74 31.69 31.28 30.44 29.61 28.07 27.19 27.36
27.77 27.93 27.25 25.71 24.74 27.99 32.53 31.23 29.05 30.69 31.99 32.05 31.41 33.31 34.36 35.53 35.18 33.59 34.78 35.88 36.52 36.15 34.42 35.66 34.67 33.15 34.37 33.19 32.13 30.66 29.38 29.77 28.69 29.53 30.30 30.44 31.18 32.78 34.30 34.98 34.98 34.63 33.44 32.39 31.17 30.26 29.77 28.68 29.78 29.30 27.89 25.94 25.44 24.77
24.74 27.06 27.28 28.20 25.05 24.46 29.26 31.28 30.60 28.90 29.12 29.27 31.47 32.87 32.91 32.68 30.53 31.72 36.15 36.91 35.90 34.15 33.57 32.43 31.56 31.53 31.83 31.41 30.78 30.58 29.98 27.72 26.45 26.26 25.79 26.28 26.75 29.75 32.36 32.98 32.95 32.46 31.63 30.91 30.33 29.64 29.13 29.21 28.83 28.01 27.23 25.91 24.23 23.62

GFSWCAN_sfc_wetblb_006.txt.gz
Wetbulb
47.46 47.44 47.35 47.11 46.72 46.81 46.88 46.98 47.31 47.48 47.16 47.75 48.49 48.88 49.47 50.82 51.39 50.54 49.22 51.26 45.26 40.82 41.39 43.98 42.70 39.02 38.77 39.33 35.33 40.04 39.05 41.48 40.10 35.99 34.96 33.05 32.45 34.82 34.60 35.94 35.07 35.07 34.91 35.97 39.23 36.61 33.96 47.23 46.52 43.46 44.49 49.29 49.47 50.46
48.23 48.05 47.98 47.70 47.41 47.19 46.69 46.72 47.13 47.47 47.68 47.59 48.26 48.67 49.15 50.11 51.10 50.68 47.05 50.80 49.70 42.10 42.63 47.81 47.55 48.19 46.48 45.36 41.01 39.90 38.42 37.03 40.71 38.19 36.98 36.76 33.86 36.31 34.96 32.44 38.76 34.76 36.30 35.90 36.48 36.31 44.98 47.34 46.79 49.09 49.51 49.02 49.67 50.27
48.81 48.62 48.17 48.01 47.99 47.52 47.09 46.84 46.76 47.35 47.72 47.95 47.85 48.49 48.91 49.14 50.46 50.32 48.48 49.60 46.73 42.32 43.29 45.89 44.88 48.49 49.00 47.78 49.00 36.92 40.56 41.25 39.43 44.26 41.21 38.65 33.35 35.90 32.99 34.57 36.67 38.94 41.34 37.87 37.99 41.95 44.77 46.66 48.33 48.88 49.34 49.35 50.48 51.09
48.80 48.58 48.55 48.40 48.24 48.05 47.45 47.27 46.87 47.10 47.44 47.81 48.18 48.42 48.52 48.71 49.83 50.44 48.12 50.51 46.66 42.79 37.19 43.49 50.34 48.50 49.67 47.68 46.29 44.46 42.37 43.92 43.30 41.51 39.52 40.32 36.24 40.69 37.31 37.31 37.10 40.12 41.53 39.16 38.51 43.17 45.33 46.79 48.06 48.47 48.62 49.72 49.74 51.22
48.37 48.66 48.68 48.55 48.13 48.12 47.97 47.63 47.27 46.84 47.06 47.92 48.27 48.63 48.34 48.36 49.62 50.30 49.22 49.14 49.72 42.61 38.86 41.00 48.03 49.39 48.98 48.01 46.26 45.61 44.06 41.95 40.79 40.45 40.52 38.06 43.74 41.51 42.67 40.60 37.93 40.28 38.69 37.49 36.55 42.82 42.69 45.89 48.79 48.77 47.48 48.28 50.08 50.05
47.87 47.75 48.52 48.46 48.16 48.19 48.07 47.78 47.70 47.30 47.34 47.81 47.71 48.11 47.99 48.52 49.15 48.37 47.32 51.13 49.32 46.31 39.73 37.26 48.56 47.29 48.57 48.65 47.71 46.25 45.53 43.68 42.75 40.77 40.13 42.85 44.59 42.48 38.96 36.61 40.64 43.20 43.77 43.99 41.47 45.83 46.67 48.34 49.62 50.15 49.41 50.15 50.87 50.75
48.20 48.10 48.27 48.15 48.32 48.32 48.23 47.83 48.18 47.84 47.38 47.77 47.76 47.93 48.53 50.14 49.84 48.42 46.96 50.04 49.04 47.47 41.14 36.98 42.32 48.04 48.77 47.50 47.67 48.88 48.02 47.87 45.80 45.45 43.10 43.57 44.26 43.05 41.93 36.57 42.78 43.47 44.47 45.94 47.35 46.91 45.45 47.15 46.67 49.31 50.23 51.04 51.18 51.96
47.84 48.00 47.96 47.83 48.03 48.45 48.46 48.18 48.24 47.74 47.36 47.40 47.48 48.25 50.40 49.84 48.33 49.37 51.61 49.47 49.11 45.28 44.61 38.16 41.09 44.57 49.18 44.85 45.07 50.34 47.34 48.48 47.59 44.95 44.04 41.88 42.51 42.57 37.63 41.31 41.87 43.04 44.32 44.91 46.16 47.68 47.44 48.57 49.24 49.23 50.08 50.25 49.85 50.20
47.38 47.62 47.75 47.76 47.80 48.27 48.41 48.23 47.80 47.40 47.29 47.20 47.36 49.34 49.48 50.11 49.81 50.48 50.30 50.75 49.82 46.63 39.93 38.82 36.63 37.93 49.30 46.14 47.45 45.82 47.55 39.82 45.61 39.45 39.19 40.48 38.56 35.46 37.47 38.82 40.14 41.85 42.21 43.66 44.86 46.17 48.04 47.55 47.74 48.54 48.91 49.21 48.55 48.91
47.38 47.61 47.80 47.85 48.03 48.37 48.34 47.92 47.68 47.43 47.43 47.28 49.00 48.98 47.40 49.81 48.75 50.85 47.11 44.50 43.40 44.98 44.83 40.24 44.70 39.84 46.16 44.31 43.19 42.24 44.33 40.91 38.56 40.74 42.24 40.03 39.67 43.10 45.23 45.86 46.83 46.84 46.80 46.69 43.64 43.79 45.96 46.44 46.77 47.35 47.59 48.83 49.14 49.42
47.20 47.30 47.35 47.76 48.12 48.44 48.08 47.83 47.78 47.30 47.18 47.35 43.65 43.91 47.39 49.13 49.09 47.78 43.23 42.36 43.92 41.53 45.56 46.00 45.73 42.39 48.34 40.76 39.30 43.16 38.74 42.36 36.50 39.88 37.88 37.77 37.83 42.40 46.55 46.06 48.07 48.63 48.54 47.78 47.74 47.75 48.44 47.72 48.02 48.09 48.44 48.98 49.86 50.49
46.13 47.02 47.34 47.51 47.84 48.21 47.96 47.71 47.12 47.14 45.99 43.45 43.01 43.98 44.93 44.43 45.13 41.02 41.04 42.84 41.12 40.37 44.90 43.78 44.45 46.15 47.37 45.66 42.41 42.49 36.13 38.31 34.74 44.06 38.30 35.28 41.82 44.89 45.78 46.34 47.51 48.69 49.03 48.92 48.71 47.89 47.97 48.40 47.92 47.71 48.69 48.89 48.73 50.07
45.38 46.13 46.86 47.32 47.57 47.71 47.83 47.35 46.76 46.20 45.91 47.32 41.72 39.99 42.06 44.14 35.45 36.28 33.46 38.36 39.55 43.54 45.12 45.69 42.84 46.39 45.65 45.75 43.47 41.75 35.13 35.13 42.65 39.17 37.98 41.75 45.05 46.23 47.02 47.08 47.70 48.53 48.69 48.53 48.25 48.45 48.26 47.68 48.77 48.48 47.48 48.15 48.45 48.91
45.40 46.54 47.00 47.20 47.39 47.43 45.64 45.28 46.20 46.26 44.74 41.78 38.72 35.76 38.77 37.19 39.87 41.42 41.33 43.00 45.57 45.69 45.73 45.96 44.63 44.35 45.82 41.87 42.52 34.45 40.84 40.20 35.28 33.60 35.69 42.63 44.98 46.30 47.63 48.30 47.67 47.62 48.36 47.63 47.61 47.95 47.71 47.58 46.66 47.39 47.58 48.49 48.15 46.89
44.49 45.66 46.11 46.75 45.36 45.43 45.78 45.90 46.08 46.39 44.25 39.52 40.62 34.20 38.47 42.93 45.62 45.95 46.49 46.52 46.75 48.32 46.32 45.17 44.81 44.07 42.26 39.06 40.70 36.95 33.94 32.82 36.23 36.34 43.00 45.15 46.50 47.51 47.72 48.37 48.32 48.27 48.05 48.04 48.49 47.77 47.55 47.40 45.82 47.08 47.47 48.67 47.56 47.70
42.91 44.36 46.72 44.21 44.69 45.94 46.13 46.72 47.72 47.31 43.55 39.98 40.26 40.43 43.54 41.80 42.28 43.76 44.72 44.62 48.04 47.25 47.49 46.22 42.14 39.41 38.17 39.65 35.53 34.79 34.64 33.70 36.97 44.27 45.39 46.83 46.98 47.80 48.17 48.71 47.20 48.73 48.98 48.76 48.79 48.34 48.31 47.68 46.50 47.40 48.01 48.45 48.45 46.69
42.06 43.82 45.45 45.49 45.94 46.08 46.15 44.77 45.59 40.28 39.87 39.40 40.00 45.12 43.65 43.36 42.80 43.62 45.42 45.04 48.73 45.40 41.14 42.88 36.26 35.82 41.81 36.90 35.41 38.78 36.94 42.46 44.66 45.22 47.94 48.20 48.13 47.86 48.78 48.80 48.31 48.28 48.77 48.69 48.59 48.38 48.67 49.11 48.87 46.85 46.36 48.59 48.39 48.53
39.57 43.30 44.72 45.28 45.87 44.93 45.67 44.13 43.24 40.59 37.13 40.98 40.32 43.98 45.64 45.66 44.30 45.06 46.28 47.33 45.85 44.55 43.81 40.51 43.28 38.47 35.70 34.87 36.95 42.92 44.50 46.31 47.11 47.38 47.81 48.83 49.30 49.77 49.16 48.30 48.30 48.40 48.68 48.78 48.84 48.97 48.79 48.81 48.07 46.80 47.14 47.56 47.93 48.58
42.30 42.97 43.30 44.68 45.10 42.14 40.53 41.60 42.75 37.22 39.16 42.48 44.66 46.08 45.81 45.39 46.92 47.39 47.41 47.92 47.93 47.07 44.96 43.24 39.10 38.00 39.22 42.37 42.50 43.63 44.84 45.90 45.15 47.25 48.28 49.42 50.01 49.56 48.80 48.95 48.67 48.51 48.31 48.77 48.71 48.30 48.86 49.24 48.47 46.81 45.48 47.25 45.20 46.92
41.92 43.33 44.03 44.86 45.00 38.18 36.36 40.23 44.74 39.19 36.87 42.87 44.38 44.05 45.30 45.22 46.77 46.94 47.15 47.04 45.79 44.07 40.55 39.16 39.76 41.95 42.93 45.28 46.78 46.12 46.72 47.84 47.54 46.08 46.54 48.10 49.99 49.58 48.52 48.98 49.62 49.50 48.91 48.75 48.39 41.98 48.21 48.19 48.73 47.90 47.52 46.78 45.62 44.40
41.59 43.95 43.26 43.59 40.96 38.80 37.44 39.67 39.69 41.17 41.98 40.84 43.63 44.36 44.13 46.23 44.45 44.54 44.75 47.31 43.57 42.09 40.57 42.98 43.71 45.87 47.49 47.63 48.18 48.72 48.88 48.89 47.54 47.13 46.66 47.38 49.02 49.08 49.34 49.36 49.55 49.99 48.21 47.91 47.17 46.60 45.70 47.16 46.69 47.63 46.16 48.38 47.24 45.83
39.61 43.17 41.45 41.94 38.12 38.03 36.73 41.31 40.21 41.52 39.55 40.65 41.19 42.81 40.86 40.61 41.78 43.20 45.97 43.03 42.50 44.34 45.37 45.14 45.82 46.64 46.85 46.87 48.04 49.78 50.03 49.94 50.38 48.76 41.45 43.94 47.32 47.07 47.96 49.27 48.81 47.66 47.56 47.87 47.66 46.90 47.45 48.17 47.53 46.00 46.42 46.46 45.38 47.16
40.52 40.90 38.68 38.51 34.81 34.40 34.01 41.37 36.92 38.69 35.30 37.57 40.58 38.31 39.74 40.81 43.43 45.67 40.56 42.83 44.48 47.49 47.28 46.64 46.83 47.73 47.28 47.86 48.07 48.62 49.81 49.42 49.04 49.26 49.26 49.01 49.69 51.08 50.36 50.23 50.14 47.34 46.31 46.96 48.49 48.15 47.92 42.21 45.64 46.04 46.96 46.39 44.88 45.91
41.91 37.05 34.31 32.54 33.15 30.37 36.16 35.32 37.32 37.50 38.71 37.10 36.72 35.42 38.26 41.15 44.17 40.15 37.48 41.34 45.28 46.22 45.09 45.43 46.63 45.80 47.17 47.39 46.54 47.23 48.69 49.94 49.57 49.71 49.82 48.82 48.27 48.06 49.48 49.15 49.64 49.87 48.69 48.23 48.40 48.17 47.87 47.28 42.38 46.04 43.94 44.49 42.11 43.36
33.14 31.00 32.94 29.04 33.54 31.99 31.21 32.76 34.09 34.81 32.64 35.70 34.59 34.11 37.70 42.93 37.82 37.01 36.89 41.69 44.81 44.54 44.98 46.43 45.75 45.70 44.52 45.20 46.30 47.28 49.46 49.14 48.13 46.98 48.47 49.17 47.89 47.07 46.75 47.53 47.97 48.40 49.07 47.48 47.04 46.69 46.27 46.42 45.79 44.38 42.03 40.75 38.71 39.53
28.20 32.49 29.93 30.82 31.78 30.94 32.55 30.52 32.13 33.15 34.30 33.36 34.70 38.57 41.88 37.76 33.77 33.99 38.94 43.00 44.17 44.87 45.28 45.42 44.76 44.65 44.43 45.81 45.24 46.77 47.96 50.03 48.77 46.75 46.84 47.62 47.19 46.20 44.38 44.47 44.77 45.51 48.38 48.14 46.93 45.60 44.86 44.60 43.38 41.17 40.36 39.75 35.25 37.70
26.34 29.25 32.92 37.70 36.01 35.08 33.95 36.10 36.74 34.55 32.68 32.21 35.88 35.73 35.67 31.54 32.59 39.41 42.81 45.29 44.65 45.64 46.60 47.26 47.60 47.11 47.02 48.60 49.45 49.61 49.72 49.96 48.46 47.42 48.60 48.42 48.06 47.76 47.09 45.09 43.26 45.98 48.94 47.71 46.90 45.03 44.03 43.25 41.77 39.96 38.75 39.05 37.88 36.74
29.87 31.86 29.63 33.13 33.94 35.60 31.29 32.65 31.86 31.82 34.38 38.35 37.40 34.59 32.46 33.33 36.37 43.00 44.17 45.83 46.08 46.50 46.72 47.49 47.28 47.64 48.18 49.95 49.26 48.45 48.41 48.82 48.44 47.74 47.28 47.11 47.74 47.61 47.41 47.41 46.81 34.64 45.43 44.54 44.76 45.11 44.23 43.19 41.70 39.35 37.86 36.84 36.52 35.81
29.71 33.94 33.85 29.56 31.17 32.76 32.84 31.89 32.73 36.02 38.92 37.72 34.71 33.93 35.90 40.52 43.13 44.38 46.23 45.39 46.29 45.38 44.49 44.27 45.24 47.28 47.43 48.23 48.69 48.98 48.86 47.66 45.08 42.93 42.31 42.04 42.66 44.24 47.09 46.77 46.31 46.88 46.50 43.88 30.89 35.46 40.05 40.89 41.00 40.64 38.52 36.79 35.70 35.29
30.20 34.59 30.66 30.12 28.45 28.30 33.30 35.98 35.37 38.52 39.23 39.65 39.84 39.31 39.40 41.04 43.83 46.42 45.45 44.90 43.66 43.40 44.24 44.68 45.23 44.75 43.98 44.12 44.37 45.85 48.40 48.19 47.47 45.34 42.92 42.39 43.56 45.66 46.01 45.77 45.64 46.05 46.28 46.57 45.67 43.11 32.48 38.05 37.75 42.07 39.26 37.65 35.59 33.72
34.75 33.92 30.50 30.23 29.63 33.72 36.05 37.70 38.51 38.55 38.77 38.38 39.08 37.07 37.08 38.72 41.27 38.93 37.46 38.77 43.27 44.06 42.97 42.65 44.23 45.34 43.71 44.43 44.70 43.63 43.04 45.62 45.11 44.23 45.25 46.46 45.35 44.80 45.02 45.46 46.07 46.35 46.36 45.86 44.86 44.22 43.52 41.64 39.52 35.52 34.74 33.38 31.34 30.45
33.03 30.10 29.49 27.80 30.28 35.78 37.41 35.43 35.58 35.20 36.00 35.13 34.71 36.59 36.93 36.11 34.99 33.51 34.17 34.60 37.56 40.03 36.82 39.60 41.70 40.35 42.42 42.34 42.46 41.80 35.75 42.02 41.68 41.71 42.33 43.58 43.83 43.98 44.65 45.05 45.72 45.22 44.42 43.19 42.59 41.72 39.44 37.33 36.20 34.28 32.14 31.12 30.87 30.26
30.96 31.38 31.58 30.71 30.49 30.62 34.09 33.45 32.49 32.43 34.45 34.87 35.43 35.28 35.39 35.00 28.70 31.50 35.90 34.34 32.84 33.47 35.76 37.39 38.89 37.72 37.55 37.44 37.78 37.83 36.39 36.84 32.76 30.93 31.72 31.57 31.80 36.25 42.04 42.70 43.12 42.33 40.86 40.07 37.74 37.36 36.76 35.10 33.62 32.55 31.15 30.43 29.65 28.17

GFSWCAN_sfc_wetblb_009.txt.gz
Wetbulb
49.12 49.16 49.17 49.13 48.83 48.94 48.92 48.48 47.86 47.65 47.35 47.68 48.00 48.57 49.10 49.66 50.23 50.39 50.29 53.50 46.65 42.07 44.38 46.28 45.05 41.45 41.45 40.85 36.38 41.84 40.02 42.47 41.28 36.45 35.05 35.07 34.80 35.80 36.24 36.60 35.78 34.74 36.70 37.52 39.59 37.83 34.21 47.72 49.29 45.36 48.07 52.29 52.39 53.05
49.34 49.49 49.61 49.38 49.14 49.03 48.96 48.78 48.65 48.46 48.07 47.57 47.74 48.25 48.63 49.07 49.95 50.27 48.37 52.64 50.91 42.93 44.44 49.21 49.66 49.43 47.47 46.13 41.76 40.59 39.11 38.29 41.17 38.10 38.45 37.80 34.62 36.54 35.17 32.27 40.32 35.38 36.99 36.07 37.42 35.90 44.54 47.36 48.10 51.71 51.90 51.49 51.88 52.30
49.00 48.99 48.77 48.78 49.20 49.09 48.96 48.50 48.94 48.90 48.71 47.97 47.68 48.22 48.66 48.75 49.04 49.38 49.99 50.65 47.60 44.60 45.56 46.48 45.57 49.78 51.22 48.87 49.37 38.90 39.94 41.93 41.50 42.43 40.06 39.95 34.72 38.58 33.54 34.81 36.18 39.47 42.63 38.66 39.56 42.58 43.96 46.24 48.56 50.61 51.28 51.37 52.51 53.51
48.97 48.94 48.63 48.70 48.85 48.93 48.90 48.77 48.85 48.63 48.79 48.77 48.41 48.19 48.51 48.41 48.26 48.65 48.79 51.51 47.77 45.19 37.37 44.61 52.34 49.72 52.82 51.37 49.06 46.10 42.75 44.01 43.68 43.29 41.05 40.63 38.34 42.13 37.43 38.06 37.59 39.67 40.72 38.87 40.26 41.95 45.15 45.63 48.15 50.39 50.82 52.17 52.56 53.75
48.78 48.88 48.51 48.59 48.57 48.81 48.75 48.84 48.82 48.74 48.87 49.08 48.99 48.68 48.82 48.12 48.34 49.15 50.04 51.26 51.66 46.11 39.67 44.38 49.86 51.19 51.45 51.69 49.84 47.69 43.65 42.44 41.63 40.16 40.68 39.34 43.85 42.12 42.27 43.16 39.07 42.25 39.53 38.01 37.59 43.68 42.98 44.20 48.34 50.89 50.94 51.53 52.86 52.46
48.49 48.23 48.59 48.63 48.51 48.62 48.48 48.54 48.93 48.77 48.45 49.11 48.70 48.13 48.69 48.70 48.04 48.52 46.78 52.28 53.48 49.37 40.11 38.94 50.34 47.98 49.62 51.24 49.84 48.89 48.49 45.04 44.98 44.16 43.64 46.48 46.32 43.24 40.26 38.62 43.00 45.01 45.20 45.53 42.47 46.51 46.78 48.98 49.32 50.21 50.69 51.80 52.81 52.92
47.43 47.55 47.94 48.17 48.25 48.21 48.25 48.64 49.20 48.91 48.40 48.98 48.50 48.27 48.27 50.24 51.27 50.01 48.19 50.34 51.16 48.97 41.21 40.05 42.48 47.57 51.00 49.67 51.12 46.85 50.09 48.12 47.14 46.33 44.53 43.67 44.46 45.47 41.27 38.34 43.68 44.91 46.05 47.45 48.22 48.28 46.99 47.31 47.97 50.82 51.81 52.03 52.64 53.65
47.09 47.29 47.68 47.93 48.04 48.18 48.16 48.77 49.18 49.05 48.40 48.52 48.03 48.22 50.26 50.38 50.11 50.00 51.91 49.88 51.66 46.97 46.23 40.13 42.32 45.44 51.83 45.04 45.07 48.82 49.54 48.29 47.53 46.68 47.24 43.94 47.15 45.74 40.59 43.73 44.84 45.13 45.66 46.30 47.32 49.11 49.29 50.72 51.15 51.07 52.14 51.98 51.39 51.76
46.95 47.52 47.81 48.06 48.08 48.13 48.47 48.70 48.96 48.71 48.44 48.06 47.82 48.62 50.60 51.00 49.10 49.84 51.15 50.87 51.21 47.87 41.96 40.80 39.04 39.26 49.34 47.95 46.07 47.37 47.54 42.31 49.04 45.45 45.05 44.37 43.14 39.09 42.48 44.12 44.74 45.18 46.08 46.66 48.88 48.83 49.65 48.84 49.46 50.53 50.62 50.64 50.02 50.64
45.81 46.47 47.21 47.66 47.95 48.13 48.22 48.57 48.71 48.48 48.12 47.87 48.93 49.13 47.60 49.21 48.15 50.77 48.30 44.91 44.26 45.54 45.87 43.53 47.01 43.78 46.06 45.42 42.52 44.42 47.14 42.76 41.08 44.92 47.68 43.43 42.58 45.13 46.31 46.79 46.97 47.11 48.26 49.39 45.89 45.70 46.01 45.97 47.06 48.77 50.17 51.19 51.24 51.34
44.53 45.39 46.24 46.78 47.33 47.64 48.07 48.34 48.43 48.26 47.22 51.16 48.45 47.48 49.49 49.34 49.91 48.28 42.47 41.95 43.31 41.73 45.56 46.54 46.99 44.89 49.87 42.37 43.17 43.70 40.47 42.98 38.10 41.61 41.99 40.51 40.01 43.81 46.94 47.41 48.49 49.02 49.32 47.75 49.37 49.05 48.60 48.15 47.10 47.37 47.88 48.87 50.11 51.09
44.00 44.68 44.78 45.74 47.14 47.70 47.81 48.07 47.86 47.79 48.40 45.36 45.04 46.85 47.95 45.51 44.12 41.11 41.97 44.90 43.33 41.65 46.80 45.03 46.11 47.64 48.92 50.40 42.79 42.94 37.82 41.24 36.48 45.99 40.81 37.45 43.11 45.70 46.57 46.82 46.97 48.72 48.22 47.27 48.64 48.75 48.86 48.63 48.87 47.98 47.69 47.75 48.49 49.93
43.25 43.67 45.01 46.00 46.77 47.23 47.86 47.27 45.88 46.54 47.17 47.99 43.12 40.04 42.11 44.56 37.19 37.43 35.61 40.11 41.61 45.64 46.54 47.35 44.24 47.41 47.76 47.65 43.00 40.77 35.19 36.50 45.03 40.68 39.81 41.42 45.60 46.26 47.68 48.82 48.23 49.03 49.02 48.79 48.67 49.09 49.01 48.65 49.63 49.42 47.33 48.89 48.03 48.04
42.49 42.85 43.86 44.95 45.65 46.56 45.90 46.40 46.56 47.10 47.32 44.45 42.02 36.91 39.94 38.45 40.69 42.96 43.17 43.94 47.60 48.12 46.54 47.16 45.34 45.35 48.02 43.08 43.44 36.96 40.82 43.11 35.87 34.57 34.95 42.67 46.07 46.79 47.94 48.68 47.81 47.39 48.82 48.17 48.52 48.91 48.59 48.35 48.79 48.47 48.54 48.79 48.44 47.53
42.06 42.26 43.29 43.64 45.33 45.49 46.51 46.74 46.61 47.52 46.10 43.31 43.00 34.57 39.73 44.38 46.01 47.44 47.68 47.61 48.51 48.47 48.21 45.83 45.14 45.76 43.91 41.30 43.38 37.97 36.35 33.46 37.29 37.50 44.95 46.67 47.94 48.66 48.49 48.72 48.43 47.59 47.71 48.37 48.86 48.74 48.69 48.86 48.48 47.93 49.48 49.76 50.26 48.45
41.62 42.41 45.58 45.77 45.67 46.12 46.28 47.40 48.53 48.05 46.95 44.33 43.34 40.63 46.21 44.79 44.87 45.78 46.17 46.06 48.76 47.84 49.16 46.98 42.24 39.83 39.20 41.41 37.25 36.06 35.04 34.20 38.42 45.81 46.50 47.40 47.80 48.21 49.50 50.10 49.78 49.56 49.43 49.13 48.61 48.93 49.29 49.01 48.94 48.72 48.91 49.77 49.26 49.53
41.31 42.29 44.08 44.71 44.51 44.47 45.97 45.37 47.34 43.53 41.60 40.84 41.79 45.41 45.03 45.53 46.17 47.25 47.80 47.34 49.88 46.57 43.12 43.39 37.91 37.28 44.42 38.61 36.62 41.67 38.70 43.56 45.49 45.91 49.30 49.16 48.99 49.17 48.84 48.84 49.30 49.56 49.07 49.51 49.75 49.58 49.42 49.93 50.54 49.11 47.31 48.13 49.06 49.67
39.85 44.33 43.75 43.64 43.85 43.65 46.28 44.74 43.77 42.64 38.04 42.35 41.89 44.66 47.00 48.84 47.82 48.02 48.94 49.48 47.65 46.27 45.28 41.78 44.00 39.21 37.89 36.31 37.95 43.94 46.60 46.16 47.22 47.15 47.54 48.58 49.98 49.87 49.75 49.23 49.30 49.43 49.32 49.36 49.79 50.13 49.74 49.21 48.71 48.36 48.53 48.79 47.51 47.73
40.67 41.02 41.78 42.66 43.66 42.03 40.03 41.75 43.59 38.26 41.59 44.30 45.81 47.11 47.43 48.06 50.02 50.24 49.65 49.89 50.11 49.53 46.28 44.05 39.61 39.89 40.91 43.65 43.99 45.14 45.62 46.84 46.08 47.47 47.84 49.73 50.23 50.03 49.73 50.44 49.77 49.29 49.45 49.89 49.81 49.27 49.32 49.65 49.58 49.11 48.65 48.59 46.68 46.61
41.21 41.81 42.21 43.11 43.23 39.92 37.24 40.09 45.37 41.20 39.00 43.23 45.43 45.25 46.51 46.96 48.98 48.80 49.44 49.37 47.92 45.69 43.21 41.08 41.83 44.48 44.85 46.46 47.99 48.18 48.08 48.27 47.61 46.72 47.03 48.47 48.74 49.27 49.73 49.19 48.53 49.09 48.64 48.72 48.98 44.21 49.23 48.73 50.37 49.28 48.54 48.10 47.41 45.51
40.98 42.50 43.26 43.65 42.71 41.92 38.64 39.79 40.11 41.50 43.06 41.59 44.53 45.31 44.52 47.53 47.17 47.29 47.09 49.04 45.42 43.76 43.02 45.06 45.78 47.72 49.41 49.33 49.71 49.62 48.66 49.37 48.13 48.00 47.06 47.76 48.82 48.79 49.99 51.03 50.49 49.30 48.06 48.19 47.10 46.13 44.90 47.47 49.57 49.15 48.48 48.40 48.42 47.23
41.06 41.94 39.40 42.62 39.02 39.22 37.16 41.57 40.61 43.49 41.20 41.29 41.28 42.33 40.98 41.93 42.52 44.54 47.35 44.92 43.54 46.22 47.57 47.28 47.33 48.16 48.66 48.73 49.20 50.11 49.92 49.96 50.63 48.81 45.15 46.64 48.30 47.05 48.24 48.89 50.24 47.90 47.78 49.37 48.96 47.03 46.81 47.51 48.93 48.86 48.47 48.24 46.34 46.76
41.59 40.13 37.36 37.31 35.13 35.54 33.59 42.26 35.85 39.14 35.55 38.30 41.54 39.34 40.55 42.41 44.67 48.05 43.40 45.55 46.91 49.49 48.89 48.91 49.62 49.94 49.08 49.79 50.07 49.93 50.30 49.53 48.02 49.15 49.19 49.27 48.45 48.77 49.22 49.20 49.91 48.32 46.04 47.08 48.90 47.89 46.91 42.42 44.57 48.04 48.27 47.90 47.16 45.93
41.10 36.20 33.96 32.22 33.17 30.90 37.25 34.58 38.71 37.61 38.31 36.96 36.30 35.60 38.70 41.81 44.76 42.46 40.05 43.03 46.41 48.28 48.63 47.90 47.69 47.22 48.29 48.62 47.42 47.75 48.80 49.56 48.28 48.98 49.19 49.17 47.23 49.15 48.77 48.45 48.89 49.16 49.86 48.60 48.36 48.83 47.32 46.15 42.90 46.43 47.14 45.95 44.94 44.03
31.85 32.12 33.51 30.25 34.53 31.51 30.86 32.24 34.12 34.95 32.54 35.06 34.61 35.14 38.34 42.25 37.82 37.27 37.87 42.47 44.78 45.87 48.64 48.16 46.94 46.88 46.30 46.81 48.27 48.18 49.85 48.89 47.34 46.80 49.69 49.75 47.99 48.98 47.97 47.73 48.45 49.61 49.96 47.52 46.68 46.76 47.07 46.95 46.45 46.12 45.67 43.55 41.18 42.27
24.87 32.62 30.34 31.99 32.27 31.20 31.78 30.13 31.79 32.72 34.05 33.60 34.76 39.04 41.64 38.46 35.18 35.02 39.91 44.44 44.21 46.06 48.50 47.22 46.70 46.49 46.04 46.93 46.51 46.88 48.01 49.74 48.50 46.99 48.01 48.53 48.24 46.53 46.03 45.47 45.35 46.91 49.59 48.67 47.20 46.10 45.60 45.87 45.45 44.19 43.79 41.40 35.48 39.52
23.28 27.38 35.11 39.07 37.09 36.48 34.48 36.28 36.85 34.96 32.27 32.89 36.38 36.39 36.25 31.67 33.23 40.11 44.31 45.68 45.57 46.10 50.32 49.78 48.04 46.11 45.87 46.33 48.10 49.63 50.14 50.07 48.77 49.38 50.32 49.55 48.99 49.62 48.30 45.69 44.56 46.29 48.89 49.03 48.89 46.66 45.08 44.85 44.40 43.68 42.71 41.46 39.52 37.98
30.15 30.95 27.59 31.49 33.44 35.57 31.35 32.39 32.37 31.55 33.62 38.11 38.02 32.85 32.34 33.97 36.74 41.26 43.33 47.78 48.22 49.70 49.75 47.59 47.68 48.99 48.19 49.49 49.88 49.15 49.49 49.86 50.26 49.94 49.03 48.37 48.11 48.06 48.17 48.18 47.82 35.83 47.40 46.54 46.11 46.89 46.11 45.47 44.33 43.18 42.09 40.76 39.09 37.86
29.93 33.66 32.47 28.94 30.92 31.91 31.86 31.33 32.71 36.02 38.91 36.99 33.47 32.47 33.49 38.73 40.64 41.93 44.86 45.39 46.44 45.80 46.14 46.11 46.08 47.55 48.77 49.84 49.89 49.19 49.41 47.64 45.42 44.00 43.19 42.73 44.09 45.44 48.10 47.83 46.50 47.46 47.69 45.51 30.59 36.66 41.99 42.60 43.08 43.20 41.84 40.55 39.08 38.95
31.07 35.25 31.03 30.41 28.97 28.79 33.21 36.31 35.43 38.27 39.43 39.46 39.28 38.97 39.17 40.74 43.22 46.04 45.28 44.51 43.11 42.73 43.93 44.61 45.24 45.92 44.83 45.89 45.92 47.25 48.10 48.68 47.83 45.70 43.93 43.11 43.49 46.81 47.52 47.46 47.39 47.46 47.47 47.52 46.28 43.18 31.88 38.07 37.72 43.85 41.51 38.65 35.99 35.44
35.02 34.04 31.78 32.08 30.66 34.58 36.84 38.52 39.35 39.60 39.26 39.08 40.06 38.53 38.18 40.21 39.13 36.27 35.12 36.39 41.63 45.00 44.94 43.72 44.47 46.03 44.77 45.32 44.22 44.17 43.72 47.22 47.89 47.16 47.09 47.90 46.61 46.04 46.63 47.51 47.71 47.69 47.17 47.36 47.13 45.98 44.26 42.65 40.68 36.69 35.71 34.18 33.13 33.18
32.58 31.43 31.41 29.87 32.15 36.85 38.46 36.75 36.53 35.70 36.82 36.02 36.53 38.91 38.93 38.42 35.73 33.43 34.28 35.25 34.77 33.86 35.18 39.27 39.81 40.09 43.45 43.67 44.52 43.24 36.87 42.60 44.26 44.32 45.09 45.57 45.58 46.39 46.33 47.36 48.02 46.87 45.14 44.36 43.97 41.75 39.93 38.56 37.20 35.59 33.34 32.43 32.32 31.74
33.05 32.92 33.47 32.30 31.87 31.97 35.31 34.29 34.04 33.70 35.13 35.20 36.09 37.54 37.33 34.23 29.13 33.25 36.82 36.36 34.32 33.48 33.48 35.25 38.32 37.90 38.50 39.57 39.91 39.13 37.60 37.83 33.46 30.91 31.59 31.22 31.18 36.57 44.50 45.42 44.89 43.86 42.21 41.37 40.05 39.80 38.64 36.71 34.94 33.52 32.33 31.85 31.36 30.79

GFSWCAN_sfc_wetblb_015.txt.gz
Wetbulb
49.45 49.49 49.91 50.13 50.17 49.98 49.79 48.68 49.06 48.70 49.57 50.05 50.36 50.31 50.29 49.97 48.84 46.78 44.31 46.65 43.68 42.00 42.34 44.24 44.66 40.94 40.58 41.12 36.88 38.94 36.45 37.06 35.17 30.19 32.15 31.78 31.38 34.40 33.49 35.71 34.49 32.33 31.93 33.12 34.77 31.23 28.22 40.61 41.82 42.74 47.09 50.89 50.39 50.01
49.58 49.72 49.65 49.79 49.73 49.69 49.46 48.07 48.41 48.55 48.49 48.80 49.47 50.07 50.24 50.36 49.66 48.75 42.50 46.98 51.11 44.97 43.02 47.19 47.00 47.40 46.39 45.54 41.90 40.15 38.64 38.11 39.52 35.28 33.16 33.52 34.05 34.95 33.98 29.64 38.40 31.94 35.53 34.60 36.16 33.87 41.07 42.61 43.69 48.84 50.38 48.95 48.66 49.64
49.68 49.53 49.34 49.17 49.15 49.01 48.56 47.55 47.83 48.15 48.51 49.08 48.85 49.92 50.46 50.46 49.76 48.41 44.15 44.97 44.86 43.93 42.77 43.18 43.07 49.66 51.39 49.46 49.27 40.02 40.85 41.46 41.23 42.40 38.08 37.20 32.89 37.90 31.22 33.23 36.43 37.86 41.44 37.86 38.68 40.67 42.30 44.41 46.48 48.55 50.00 48.71 49.63 49.87
48.80 48.70 48.57 48.43 47.61 47.10 46.99 47.06 47.16 47.48 48.48 48.46 49.22 49.76 50.28 50.32 49.67 48.47 43.32 45.78 46.08 44.77 37.64 40.28 49.25 46.60 51.87 50.66 48.30 46.57 43.62 42.53 43.04 41.54 38.57 37.96 35.31 41.26 36.49 37.19 37.64 38.55 40.46 38.28 37.64 41.21 43.41 44.28 45.57 47.08 49.29 50.38 49.78 50.81
47.89 47.74 47.77 47.53 47.23 47.01 47.80 47.83 47.94 47.62 47.54 48.04 48.57 49.85 49.79 49.52 49.71 47.98 46.99 46.94 47.99 44.51 38.85 40.36 45.02 49.25 50.46 50.11 48.02 47.07 44.81 42.43 39.55 39.03 38.39 37.75 41.29 41.11 40.45 39.89 38.09 40.18 38.33 36.94 36.76 42.80 42.21 43.72 46.46 47.97 48.05 48.97 48.87 49.53
46.31 46.85 46.90 47.07 47.05 47.22 47.01 47.98 48.72 48.87 48.52 49.37 49.30 49.66 49.77 49.51 49.07 46.39 44.62 48.43 49.23 49.45 42.18 36.57 45.12 46.07 49.96 50.26 48.36 45.92 45.88 43.08 42.08 41.04 40.00 40.96 45.58 41.19 35.41 35.97 41.35 43.02 43.89 44.15 40.69 45.11 45.97 46.71 47.92 49.09 48.59 49.41 49.66 50.49
45.85 45.76 46.06 45.85 46.63 46.60 46.66 47.32 48.26 48.42 48.62 48.93 49.29 49.44 49.44 49.06 47.74 44.78 44.81 48.81 51.39 50.49 42.62 37.44 38.96 47.66 50.65 48.51 47.74 47.37 47.28 45.26 44.29 42.39 40.96 40.89 41.84 43.00 39.32 35.36 42.21 43.54 45.01 45.33 46.69 46.46 44.65 46.77 45.02 48.88 49.56 50.46 50.62 51.75
44.55 44.52 44.83 45.60 45.94 45.86 46.03 46.53 46.94 47.34 47.66 48.15 48.43 48.86 49.04 48.61 48.50 46.55 49.91 49.87 52.09 47.37 44.81 37.86 38.06 42.13 49.63 44.37 42.88 47.20 44.45 45.56 44.67 43.06 42.89 40.22 41.81 40.45 35.21 41.08 43.65 45.15 46.12 45.96 46.56 47.04 46.76 47.00 47.63 48.14 49.37 49.74 48.37 48.07
43.37 43.78 43.89 44.45 45.21 45.27 45.43 46.42 47.11 47.68 47.75 47.88 48.06 48.66 48.37 47.32 47.69 49.62 52.74 51.52 51.03 47.25 40.16 40.41 35.95 36.20 47.83 44.26 44.90 44.89 44.70 39.24 44.72 40.98 40.43 41.45 38.27 33.56 39.62 41.31 42.62 43.57 43.34 44.19 45.02 44.86 45.69 45.85 45.88 46.64 46.73 47.33 46.38 46.58
42.65 42.97 43.41 43.63 44.23 44.45 45.12 45.78 46.78 47.25 48.03 48.16 47.74 46.96 45.70 47.23 52.84 51.68 47.39 44.32 43.50 43.73 43.53 38.59 42.75 38.71 44.68 43.53 41.57 41.70 42.84 39.27 36.76 39.60 42.43 37.73 36.63 42.73 43.95 45.80 44.33 44.70 44.45 44.77 41.34 41.87 44.16 44.36 44.45 45.31 45.59 46.51 46.27 46.50
42.72 42.92 43.09 43.38 43.67 43.92 44.08 44.77 46.18 47.36 48.17 47.08 45.13 43.44 46.45 51.52 47.72 46.31 41.93 40.56 40.75 39.21 42.09 41.84 41.94 39.76 46.80 41.49 39.64 41.98 37.84 38.61 33.97 38.84 37.29 36.10 35.12 41.37 44.58 45.02 45.89 45.20 44.03 45.70 45.72 46.28 45.47 45.38 44.80 45.32 45.83 46.93 46.98 47.29
42.14 42.33 42.66 42.91 43.31 43.69 43.96 44.38 45.85 45.45 43.56 43.46 42.82 44.74 46.08 44.02 42.54 39.44 38.82 42.07 40.96 39.48 44.22 42.70 44.21 44.53 45.08 46.74 40.54 40.80 35.87 37.63 34.07 42.45 37.11 34.27 40.24 43.66 45.01 45.50 46.15 46.27 46.15 46.85 46.51 46.41 46.00 46.51 45.60 45.43 45.74 45.56 46.77 47.58
41.81 41.98 42.44 42.79 43.23 44.04 45.45 46.32 46.90 46.62 46.16 46.64 42.93 40.35 39.25 39.96 34.82 35.14 32.88 38.12 39.52 43.82 45.65 45.54 42.54 44.77 45.07 45.02 40.61 38.37 33.25 33.28 41.26 35.27 35.38 38.99 43.44 44.64 45.63 46.16 46.81 46.73 46.54 46.53 47.76 46.69 47.56 46.52 47.39 46.48 46.25 47.51 46.76 47.64
41.43 42.00 42.28 43.02 45.10 46.28 45.39 45.29 45.27 44.45 43.64 42.10 40.34 34.10 35.71 34.37 37.81 38.75 40.09 42.19 46.30 46.24 44.79 43.98 43.22 42.06 44.11 40.05 40.67 35.27 37.91 38.37 32.52 30.01 32.78 39.84 43.80 46.22 46.34 47.17 45.98 45.51 45.40 45.65 46.80 47.59 47.33 46.81 45.64 45.48 46.26 47.07 46.40 45.91
41.36 41.72 42.15 44.25 43.84 43.65 43.38 44.33 44.47 43.60 42.38 40.15 41.15 34.36 36.85 41.55 43.88 45.12 46.58 45.82 46.78 47.32 44.56 43.15 42.85 43.51 40.62 39.32 39.83 37.40 34.16 30.68 31.12 30.61 38.76 43.51 45.08 45.92 46.06 46.98 46.79 46.57 46.90 45.38 45.52 45.82 46.28 47.75 46.66 45.72 45.65 45.40 46.08 45.96
41.20 41.92 42.50 43.05 42.98 42.98 43.12 44.07 44.10 43.27 42.93 40.74 40.38 38.17 41.89 41.57 41.60 43.33 44.74 45.13 47.52 46.54 46.60 44.72 41.16 38.61 37.84 38.29 35.61 33.80 31.88 29.11 32.38 39.17 43.92 44.70 45.36 45.73 46.65 46.36 46.94 47.39 46.50 45.10 45.74 46.38 46.80 47.58 46.52 46.42 45.65 45.72 45.34 45.09
40.68 38.93 43.97 43.10 42.86 43.30 43.23 41.59 43.51 41.18 39.15 39.27 38.56 42.35 41.51 41.38 40.76 42.18 44.07 44.42 47.77 46.00 40.83 42.55 37.29 36.75 40.59 35.85 34.79 37.40 33.50 36.95 42.21 44.01 45.00 46.86 46.24 46.38 46.12 48.13 49.17 48.21 47.22 45.90 46.17 46.91 46.17 46.72 47.37 46.08 43.49 45.14 45.37 44.55
39.00 42.04 43.18 42.84 42.77 41.43 41.50 42.82 40.48 40.03 36.44 38.68 37.10 38.86 40.58 41.49 40.66 41.89 44.36 46.07 45.41 45.37 44.59 40.90 43.51 37.83 35.39 33.49 34.71 40.18 42.40 44.53 44.71 44.54 45.19 46.10 46.15 47.26 47.86 46.53 48.56 48.13 47.14 46.86 46.83 46.41 46.04 45.63 45.06 43.54 42.77 44.81 44.86 43.48
40.30 41.58 41.97 43.08 42.63 38.81 36.39 39.89 41.71 34.68 37.05 39.65 40.81 42.19 42.49 42.66 44.59 45.55 45.67 46.59 47.03 48.45 47.25 44.21 39.09 37.33 38.20 41.68 41.60 42.63 43.64 45.22 43.76 46.00 46.05 46.31 48.67 47.75 46.84 47.77 48.93 47.91 47.13 46.31 46.31 46.01 47.31 46.16 44.86 44.02 42.97 43.44 42.76 42.30
42.20 42.78 42.79 43.49 43.21 37.81 34.27 36.11 43.72 38.82 35.59 39.07 40.49 39.37 40.66 41.06 43.03 43.85 44.35 45.13 45.86 45.08 42.72 40.68 40.81 42.63 42.53 44.12 45.61 45.28 46.22 47.83 45.83 43.06 44.56 47.08 48.60 48.52 47.82 46.80 45.94 46.76 46.77 46.32 46.79 44.01 45.35 44.44 44.69 44.63 43.32 43.17 42.73 41.66
41.22 41.83 42.56 42.14 39.91 39.07 36.66 36.21 36.17 38.51 39.03 37.67 40.30 40.23 39.82 42.40 41.48 41.52 42.06 44.40 41.64 41.79 40.93 44.06 44.81 46.14 47.88 47.84 48.05 47.17 47.84 47.75 46.50 45.21 44.40 44.30 47.93 48.15 47.51 47.37 47.84 46.68 45.79 44.76 45.78 44.24 44.31 44.66 44.36 44.74 43.97 44.27 43.53 42.80
39.30 42.16 39.26 40.69 35.65 36.45 36.37 39.00 36.07 38.39 36.82 36.43 35.68 36.75 35.15 34.86 36.38 38.15 41.37 38.69 38.48 40.58 44.27 45.47 46.56 47.86 47.31 46.99 47.71 48.93 49.26 48.75 47.60 46.58 44.63 45.12 46.63 46.90 46.91 46.87 46.31 45.79 46.44 44.93 44.75 45.47 44.40 43.76 44.45 44.39 44.01 43.78 42.30 41.80
41.22 39.99 37.48 36.20 31.35 31.34 30.31 37.97 32.70 34.52 30.75 32.97 35.57 33.21 33.86 35.17 38.16 41.92 38.44 41.13 42.14 45.36 45.41 45.80 47.51 48.52 48.47 49.01 49.68 49.44 50.05 49.15 47.44 47.80 46.83 46.87 47.66 48.50 47.86 46.84 47.75 45.84 45.90 44.88 46.07 45.10 44.53 41.79 41.78 44.27 44.11 43.50 42.96 41.20
41.76 35.30 33.67 31.46 31.03 27.28 34.35 31.98 35.36 33.90 34.16 32.19 31.38 30.75 32.77 35.32 39.66 37.10 34.87 38.10 41.94 44.62 44.92 46.53 47.79 46.99 47.14 47.37 46.65 47.58 48.33 48.13 46.87 47.78 48.71 47.38 46.43 47.13 48.21 47.59 48.13 47.66 47.18 45.79 45.56 45.61 45.22 43.40 41.68 42.91 42.62 42.25 41.08 39.56
29.42 28.26 30.39 26.42 32.47 30.13 28.30 28.86 30.29 29.83 28.75 30.70 30.02 30.34 32.50 36.49 31.80 32.29 32.94 37.36 41.59 39.99 41.67 44.96 46.01 46.85 45.22 45.85 47.05 46.90 49.10 47.54 45.96 45.81 47.62 47.81 47.31 47.43 47.51 47.77 46.88 46.62 46.13 44.20 43.48 44.54 43.84 43.53 43.45 42.90 41.47 39.65 38.85 38.63
25.39 29.12 27.66 28.56 29.32 28.32 29.02 27.22 28.88 29.00 30.30 30.08 31.84 35.39 36.29 33.39 30.72 30.57 35.62 37.58 38.34 39.12 39.78 41.49 42.68 42.14 45.08 45.69 45.19 45.51 47.50 48.54 48.35 46.94 47.83 48.80 47.72 46.28 45.41 44.92 44.21 43.25 45.09 44.28 43.51 43.28 43.49 43.49 41.94 39.98 37.53 36.67 34.73 38.67
24.80 25.60 30.70 34.66 32.09 31.36 28.71 30.01 30.73 28.99 27.76 28.65 31.82 32.24 33.04 29.86 30.82 33.53 38.41 37.92 38.07 39.55 41.20 42.96 42.75 42.21 44.57 45.81 47.62 47.67 48.77 49.15 48.21 47.55 49.61 49.09 48.97 48.92 47.94 45.97 43.61 43.96 45.75 45.69 44.87 44.17 42.91 42.87 42.19 41.36 39.38 38.32 37.63 37.49
28.95 29.51 25.25 28.42 29.36 30.67 27.05 27.68 27.15 26.67 28.86 33.58 31.80 29.25 29.51 28.74 30.86 37.60 40.27 41.13 41.71 42.45 41.64 42.17 43.17 43.19 43.36 44.59 47.30 47.56 47.90 48.52 48.95 48.04 47.82 47.45 46.01 45.24 44.78 45.04 44.77 37.64 44.31 44.64 44.62 44.43 43.87 42.95 41.89 41.34 39.64 37.85 36.54 37.03
29.13 31.45 31.04 27.02 28.68 29.04 28.81 28.25 28.94 31.56 34.82 33.27 29.57 30.31 32.64 37.28 40.17 41.05 42.55 43.58 45.53 43.98 40.99 41.13 42.32 45.14 45.47 46.80 47.75 47.11 47.83 46.85 44.52 42.62 43.58 41.12 41.14 41.34 44.43 44.61 44.06 43.59 42.36 39.67 34.14 38.85 42.21 41.39 42.19 40.78 39.40 37.81 36.95 36.31
28.52 32.50 29.08 28.47 26.79 26.03 30.26 33.62 32.88 35.65 36.90 36.94 37.13 37.04 37.17 38.36 36.26 37.95 37.42 38.20 37.61 36.26 36.87 39.49 41.63 40.30 40.65 42.78 43.49 41.19 42.40 43.63 45.08 44.27 42.25 41.17 42.03 45.19 43.82 43.53 43.75 42.66 42.56 41.22 39.47 36.82 33.67 38.99 37.32 38.90 36.56 34.90 33.02 33.75
32.98 32.67 30.85 30.49 29.19 32.27 34.67 36.71 37.14 37.49 37.56 36.46 37.98 35.94 35.76 34.48 34.48 35.23 34.68 35.27 35.34 34.83 34.36 35.22 36.51 37.27 37.49 38.86 38.09 39.56 38.35 39.59 40.74 41.41 42.12 44.26 45.53 45.07 45.25 45.15 45.32 44.83 44.00 41.96 40.32 40.03 40.28 38.35 36.98 34.37 33.16 31.30 31.86 32.69
34.40 31.82 30.67 29.04 30.63 35.73 37.36 35.67 35.13 34.68 35.42 35.31 35.33 37.38 37.54 32.61 29.65 32.56 33.64 34.50 33.17 31.15 32.58 33.66 33.84 34.20 36.77 37.82 36.64 35.65 33.71 35.77 36.18 37.69 39.68 40.96 42.10 43.43 44.19 44.76 44.85 44.60 43.30 42.73 41.49 38.89 36.87 34.88 33.32 32.53 31.39 30.80 30.44 30.31
34.10 34.33 34.13 33.52 33.16 31.93 35.17 35.19 33.68 33.34 34.39 33.71 34.32 34.76 33.21 30.21 26.09 30.91 35.15 34.72 33.36 32.97 32.89 33.72 35.34 36.08 35.60 36.88 37.29 37.46 36.44 35.75 33.60 32.33 32.61 32.70 32.85 35.71 41.52 42.42 42.30 41.52 40.78 39.72 38.61 37.43 35.75 34.42 32.78 32.26 31.32 30.96 30.11 29.57

GFSWCAN_sfc_wetblb_021.txt.gz
Wetbulb
49.88 49.86 49.89 50.09 49.98 49.74 49.15 48.68 47.74 47.61 47.08 47.79 48.39 48.87 49.24 49.69 50.08 49.03 43.78 44.04 41.42 36.26 36.90 37.38 37.81 36.03 37.29 38.63 34.93 39.09 34.78 35.27 32.32 28.82 29.05 29.61 29.48 33.83 33.14 34.34 31.75 30.99 29.68 30.86 31.62 29.07 26.72 40.26 37.67 38.51 43.32 47.05 48.07 47.56
49.85 49.84 49.64 49.46 48.93 48.37 48.13 48.10 47.46 48.02 48.24 47.59 48.00 48.82 49.01 49.35 49.78 50.08 43.56 44.74 45.16 40.00 37.42 39.95 40.66 42.96 43.25 42.48 40.00 40.94 38.18 35.31 36.55 32.67 31.71 34.01 31.74 34.39 33.15 29.08 36.10 30.04 33.15 31.48 32.28 31.90 37.21 38.15 38.74 44.97 48.03 46.28 47.10 47.84
49.71 49.36 48.30 47.98 47.11 47.29 47.57 47.49 46.76 46.64 46.93 47.10 47.70 48.78 49.52 49.59 49.70 49.32 45.95 45.69 42.50 38.69 36.86 36.80 37.59 41.96 44.23 44.15 46.44 37.48 36.71 39.01 39.13 41.20 37.06 36.14 31.16 35.60 30.95 32.28 33.02 36.29 39.50 34.72 35.81 35.16 36.26 42.06 46.64 48.48 48.11 48.38 49.27 50.11
48.06 47.18 46.70 46.40 46.95 46.90 46.88 46.42 46.15 46.55 46.52 46.32 46.93 47.38 48.30 48.90 49.02 49.24 46.27 44.85 42.41 39.94 34.10 34.95 43.73 41.83 46.36 45.25 44.65 45.81 40.20 41.95 40.48 41.08 37.60 35.74 33.68 39.15 35.60 36.38 36.09 38.25 39.56 37.96 35.25 38.37 40.78 44.26 46.04 47.35 48.04 49.53 49.03 49.63
46.11 45.76 45.46 45.41 45.37 45.17 45.53 45.74 45.58 45.98 46.20 46.39 46.47 47.11 47.77 48.16 48.27 47.53 46.80 46.05 45.24 39.14 35.62 36.34 40.81 43.13 44.56 45.15 44.10 44.56 42.56 41.67 39.76 36.68 37.14 35.21 37.48 40.49 38.58 37.94 35.39 40.93 39.12 36.77 34.46 41.53 42.35 43.20 46.82 48.60 46.54 46.80 47.79 47.50
44.82 44.93 44.57 44.67 44.72 44.69 44.67 45.17 45.46 45.73 45.71 46.12 46.28 46.54 46.96 47.19 47.80 45.50 39.92 44.84 45.72 43.19 38.56 34.51 38.08 40.54 43.53 45.17 44.33 43.04 43.14 42.34 41.39 39.09 37.81 36.58 40.25 39.84 32.66 32.03 39.22 41.73 43.16 42.83 41.11 44.50 45.29 46.08 47.11 48.48 47.08 46.62 47.17 47.28
43.95 43.90 43.78 43.58 43.41 43.65 44.02 44.38 44.84 45.06 45.49 45.47 45.80 46.57 47.08 47.93 46.44 42.04 38.52 45.56 46.58 45.08 40.02 36.22 31.93 39.53 43.27 44.24 43.31 41.67 42.80 43.59 42.39 41.67 39.17 36.33 37.27 39.12 33.26 31.47 39.58 42.01 42.80 43.32 44.71 44.99 43.10 44.63 43.72 46.79 47.31 46.97 47.22 47.37
43.09 42.99 42.96 42.78 43.04 43.38 43.35 43.62 44.22 44.41 45.46 46.32 47.04 47.67 48.35 48.85 47.50 43.69 45.26 47.00 47.75 44.88 44.12 34.90 33.57 35.08 43.72 41.06 39.84 42.19 42.27 43.69 43.76 42.81 38.05 36.57 37.32 35.69 31.12 37.60 41.08 42.19 42.66 42.43 43.03 44.14 43.53 44.03 44.98 45.06 46.24 45.86 44.67 44.41
42.43 42.46 42.16 42.53 42.67 42.58 43.28 43.70 44.48 45.31 46.39 47.07 47.55 48.87 45.95 43.70 42.36 47.09 52.13 49.98 48.48 45.83 38.54 37.74 30.76 26.70 41.19 41.39 41.88 40.15 41.92 38.56 39.81 39.44 36.64 36.06 32.59 29.59 35.60 38.26 39.08 40.11 39.43 39.76 42.00 42.42 42.74 42.66 42.83 43.06 43.64 44.14 43.05 43.27
41.47 42.04 42.13 42.14 42.33 42.98 43.87 45.03 45.61 46.89 46.70 47.10 44.94 44.56 43.45 43.70 48.47 50.94 46.60 43.44 43.13 43.61 43.26 37.33 35.98 31.69 38.00 37.82 38.40 37.36 38.81 36.83 34.61 34.92 38.50 29.97 30.57 38.04 40.26 41.30 40.95 42.06 42.52 41.03 40.16 39.86 40.71 40.82 41.48 41.74 42.37 44.44 43.79 43.19
41.25 41.51 41.58 41.86 42.53 43.23 45.01 46.48 45.42 44.75 43.82 36.86 34.34 38.08 42.06 46.17 45.42 44.27 40.37 38.39 38.66 37.29 38.05 37.95 35.85 33.14 39.44 34.85 34.59 37.47 30.31 32.37 27.21 34.08 33.62 30.56 29.53 37.45 41.35 42.35 42.47 43.51 42.50 42.36 43.51 42.98 42.18 41.83 41.86 42.02 43.60 43.71 42.94 42.60
41.00 41.05 41.23 41.93 42.16 44.17 45.67 45.05 44.84 38.82 36.80 36.57 36.67 40.84 42.06 38.95 38.83 37.43 36.13 39.14 37.26 33.68 37.00 35.71 37.92 37.68 37.43 40.47 34.80 33.80 29.64 30.90 29.56 35.87 33.60 26.62 34.53 40.16 41.46 42.42 41.53 41.50 42.37 43.28 43.40 43.17 43.04 43.27 42.91 42.32 42.73 42.48 42.34 42.56
40.64 41.09 41.15 41.86 42.69 43.63 44.04 44.02 43.97 43.80 41.70 40.41 40.74 38.14 38.41 37.50 32.28 32.56 27.64 31.49 36.22 40.98 43.25 42.81 41.14 41.39 39.51 39.17 34.29 31.04 28.97 27.46 34.21 25.74 29.55 32.18 38.12 40.99 42.05 42.80 42.18 41.00 43.02 44.22 44.19 44.27 44.49 43.91 44.08 42.58 41.91 42.16 42.68 42.36
40.43 40.89 41.64 42.28 43.07 43.75 43.38 43.35 43.33 41.35 35.73 36.79 36.93 32.38 32.75 29.56 31.46 32.38 34.01 36.57 42.38 42.90 42.71 43.00 39.69 40.83 38.98 35.85 35.13 31.23 33.20 31.49 23.99 24.82 26.03 34.84 38.74 40.54 42.18 43.49 41.89 40.84 41.76 43.11 43.74 43.25 43.34 42.89 42.25 42.08 41.78 42.31 42.75 41.68
40.65 41.19 41.51 41.87 42.98 43.13 42.71 43.22 43.51 37.89 33.80 33.07 35.98 29.69 31.82 34.94 34.93 36.77 40.49 40.67 42.55 42.30 40.72 39.88 39.87 40.56 36.42 36.12 35.68 31.41 29.60 24.52 26.37 25.40 28.18 37.51 42.07 44.98 44.63 45.33 43.27 42.30 42.15 41.23 42.29 41.94 42.95 43.14 42.09 41.27 41.68 41.72 42.19 41.86
41.43 41.10 39.72 42.15 41.98 42.32 43.39 42.13 38.38 37.00 35.02 33.89 32.87 32.88 34.37 32.58 32.89 34.15 34.23 34.17 38.52 37.56 38.46 41.08 38.00 36.57 34.86 35.14 32.08 30.84 25.67 23.99 27.94 31.51 36.24 39.95 41.55 42.74 44.44 45.31 45.52 44.51 42.59 41.62 42.57 42.73 43.34 43.06 42.05 41.59 42.04 41.77 41.61 40.77
40.86 34.30 40.52 41.73 42.28 43.07 42.55 37.39 36.69 34.86 32.99 32.58 31.56 36.90 35.73 33.96 34.03 34.30 34.77 34.48 35.43 34.26 33.55 37.23 34.88 35.00 38.53 32.85 30.31 31.82 28.10 31.51 33.87 36.61 39.10 41.34 41.40 41.82 43.70 45.09 46.09 45.40 42.58 41.60 41.89 42.60 42.62 43.13 42.76 41.59 40.39 40.96 40.44 40.17
36.63 36.49 41.32 42.18 41.85 40.26 36.34 36.80 35.89 35.09 32.32 33.26 29.99 32.16 32.65 34.12 33.22 33.92 34.29 35.08 35.36 34.92 37.66 37.13 40.18 36.80 34.15 30.99 30.70 36.43 36.55 37.34 38.52 39.72 40.56 41.92 42.72 43.50 44.59 43.78 46.17 45.20 43.26 42.35 42.53 42.33 42.32 42.08 40.75 39.91 40.35 40.17 39.90 39.24
38.27 39.35 41.95 42.47 41.25 37.71 32.12 33.34 36.73 30.50 31.33 32.20 32.45 32.71 32.55 32.80 34.45 36.28 36.16 37.50 37.04 37.55 37.20 38.73 36.20 35.96 35.64 36.79 36.18 37.36 38.55 40.58 39.96 41.08 42.06 42.97 43.73 44.75 46.07 45.59 46.04 44.65 43.46 44.28 41.73 41.64 42.86 42.10 42.17 40.83 39.69 39.00 37.86 38.01
42.01 41.89 41.50 41.64 41.13 33.89 31.34 31.25 35.13 31.12 29.07 31.97 32.69 31.70 30.80 30.48 33.09 33.96 34.05 34.56 34.82 35.55 35.28 35.42 34.77 37.55 40.35 41.27 43.03 43.56 43.50 44.08 41.18 40.31 41.13 42.52 43.91 44.96 44.10 43.53 43.82 44.09 44.19 43.26 41.34 40.38 40.51 39.66 41.12 40.39 39.46 38.31 37.75 36.35
39.12 37.41 39.99 37.76 33.69 33.83 31.00 30.06 30.68 31.11 31.51 30.09 32.91 30.77 29.72 30.75 30.55 29.97 29.35 32.63 31.11 31.25 31.49 35.53 36.28 37.65 40.24 43.47 44.53 45.84 44.69 43.07 41.91 42.40 41.34 41.20 43.03 44.28 44.09 44.41 44.00 43.53 43.56 42.78 42.36 41.02 40.12 40.20 41.12 40.52 39.17 38.39 37.85 37.12
35.07 39.81 36.71 35.79 31.72 32.49 29.45 31.09 29.28 31.45 29.20 29.64 29.98 29.97 27.41 26.19 28.23 30.26 32.71 29.66 30.22 31.64 33.50 35.27 38.39 40.28 41.32 40.78 41.60 42.94 44.56 44.66 43.92 42.28 40.61 41.49 42.12 42.36 43.25 44.28 43.14 42.59 43.34 43.31 42.84 41.98 40.58 40.81 42.14 40.80 39.74 38.54 37.88 36.94
39.04 37.81 35.13 34.08 29.68 26.26 22.74 30.72 27.34 29.71 27.67 28.33 28.74 27.39 27.29 27.22 31.32 34.48 29.11 30.95 33.99 38.23 39.45 40.05 40.38 41.26 40.88 42.41 43.82 43.00 43.80 43.44 42.58 42.63 43.33 44.50 44.55 46.24 45.71 45.08 45.03 43.98 42.92 42.96 44.13 42.38 41.34 39.85 39.77 40.23 39.44 38.43 37.22 36.03
39.19 34.85 29.09 28.33 28.88 23.79 28.69 25.96 28.14 27.72 28.07 26.91 23.18 24.62 26.46 28.16 32.08 30.24 29.00 33.83 37.21 38.94 38.24 39.06 40.15 39.58 40.51 40.90 41.08 42.42 44.08 43.39 42.95 43.67 44.18 44.53 43.39 43.76 44.52 44.58 44.53 45.60 45.91 44.43 43.41 42.08 42.11 41.92 39.10 39.68 38.91 37.92 36.95 35.65
29.18 22.12 27.29 23.29 27.69 27.26 25.76 25.32 26.34 25.45 22.85 24.16 24.23 24.72 29.46 33.59 27.80 28.49 30.13 33.63 35.76 36.84 37.91 38.50 38.56 39.39 39.24 40.19 40.73 41.45 43.61 43.44 42.34 42.03 43.67 44.92 43.97 44.94 43.92 44.76 45.33 45.41 45.78 44.19 42.27 41.78 41.49 41.24 40.42 39.60 38.72 37.57 35.80 34.07
20.72 22.90 22.74 25.76 26.26 25.72 25.42 23.39 19.23 19.00 23.54 23.87 25.02 29.36 31.00 29.27 27.96 28.35 31.70 34.49 35.25 37.28 38.35 37.43 36.58 38.35 39.58 42.33 41.90 42.75 43.20 44.83 44.46 42.26 42.97 45.11 45.52 44.86 43.92 43.02 41.66 41.11 44.69 45.42 43.53 41.99 41.42 41.26 40.44 38.91 37.43 35.71 34.07 34.26
19.26 20.43 27.10 32.49 29.14 28.57 26.23 26.08 24.06 20.87 23.58 23.67 26.65 27.46 26.44 23.56 26.55 30.39 34.93 33.89 34.82 36.76 39.25 40.47 39.02 38.36 39.30 39.33 40.32 41.58 42.34 42.54 43.12 44.87 45.88 45.56 45.46 46.76 46.80 44.69 43.50 42.12 45.09 45.78 44.41 43.34 41.75 40.31 39.20 38.49 37.24 36.47 35.85 33.89
26.78 27.86 24.51 26.67 28.56 28.60 26.03 24.99 23.48 22.66 24.91 29.19 28.86 26.04 25.75 27.11 24.73 29.93 32.93 34.08 35.22 36.72 37.68 38.63 39.07 39.07 39.95 41.08 40.70 40.38 40.52 41.64 43.40 44.42 43.45 42.64 43.34 43.41 44.08 44.62 43.68 38.02 45.95 47.20 45.45 43.98 42.25 40.69 38.79 37.77 37.07 35.82 34.13 33.69
25.98 27.63 29.25 26.28 27.95 27.62 27.11 25.75 24.87 25.93 28.50 28.05 26.88 27.24 30.20 30.16 30.66 30.90 32.58 33.08 35.18 35.12 34.08 34.82 35.75 37.59 37.37 37.43 40.11 40.24 39.20 38.83 39.69 39.85 39.14 39.25 40.21 40.86 42.50 40.61 40.33 40.79 41.16 41.06 35.61 40.15 41.16 39.78 38.42 37.57 36.60 35.30 34.49 33.96
25.22 29.07 27.47 27.90 26.63 26.34 28.52 29.14 26.49 27.92 29.02 29.70 30.82 32.68 31.58 30.66 31.28 32.90 32.33 32.31 31.88 32.02 33.84 35.26 35.33 35.19 34.49 33.84 33.68 34.88 37.97 36.33 35.66 37.49 39.54 39.92 40.58 41.71 41.66 40.58 40.41 40.41 40.43 39.64 37.83 35.57 33.82 36.00 34.31 35.19 34.26 33.14 31.57 29.24
27.66 31.14 30.02 28.80 28.45 31.27 32.83 32.18 30.92 30.41 29.66 30.62 33.81 30.70 30.01 29.93 31.79 31.63 31.37 32.10 33.14 33.60 32.86 32.39 32.97 33.41 33.42 32.72 31.67 30.92 30.30 33.13 33.15 34.56 36.27 41.16 42.13 41.29 40.94 40.13 40.26 41.64 41.22 40.21 39.56 38.44 36.76 36.33 35.04 33.49 31.72 29.85 29.52 29.21
30.50 30.04 29.93 28.26 29.15 32.20 34.01 30.31 28.20 28.65 30.38 29.80 29.10 33.77 31.32 28.02 24.73 28.29 31.17 31.01 30.76 31.13 31.31 31.73 30.31 30.25 32.21 32.76 33.57 33.84 32.64 32.67 32.02 32.24 33.29 34.98 38.14 40.53 40.13 40.12 39.34 38.83 38.60 37.92 37.69 36.53 35.60 33.73 32.54 31.25 30.11 29.30 28.89 28.28
26.43 28.49 29.43 28.71 28.26 28.69 32.21 30.92 28.37 28.95 28.13 25.36 25.12 27.90 27.15 23.58 20.37 27.04 31.63 31.36 30.26 29.31 29.99 31.11 31.63 32.09 31.95 32.55 32.17 32.40 32.96 32.63 32.12 31.30 31.23 31.05 31.65 33.14 37.83 38.95 38.20 37.13 35.73 34.59 33.84 33.08 32.17 31.34 30.23 29.97 29.21 28.40 27.41 26.52

GFSWCAN_sfc_wetblb_024.txt.gz
Wetbulb
49.71 49.93 50.06 50.11 49.74 48.90 48.06 47.23 47.27 47.54 47.42 47.41 47.67 47.72 49.00 49.29 49.53 48.36 46.00 44.40 41.62 37.21 37.80 39.73 37.83 34.52 33.56 35.70 33.77 35.62 35.62 32.24 31.93 29.07 29.60 28.83 28.06 31.46 32.08 34.12 31.55 30.81 28.76 29.11 30.43 26.23 23.51 38.22 36.76 34.90 41.13 45.53 47.44 46.28
49.83 49.90 49.77 48.84 48.12 47.53 47.12 47.13 46.97 47.14 46.96 46.84 47.45 47.47 47.67 48.92 49.57 49.03 43.72 45.44 45.29 39.84 38.61 42.64 42.74 43.18 41.06 39.97 38.08 39.46 38.43 36.96 37.46 33.17 30.86 33.83 30.97 33.26 32.64 28.71 35.29 29.50 31.37 30.42 31.17 31.33 36.71 36.23 34.80 38.86 40.12 39.45 47.79 48.16
49.89 49.33 48.15 47.32 46.63 46.40 46.42 46.08 45.90 46.32 46.45 46.46 46.87 47.27 47.56 47.93 48.66 48.34 45.57 45.68 42.90 39.10 38.41 34.16 35.81 39.92 41.47 41.63 43.13 36.36 39.25 39.04 39.14 41.55 37.09 35.89 30.49 34.46 30.21 32.28 32.47 35.88 38.81 32.99 33.18 32.65 32.81 37.98 46.19 45.22 46.09 47.96 48.46 48.97
47.88 47.03 46.30 45.67 45.61 45.49 45.27 45.41 45.04 45.31 45.17 45.82 46.44 46.99 47.35 47.69 48.34 48.25 44.59 45.96 43.04 40.28 33.41 33.49 41.60 40.05 44.03 42.63 40.60 41.84 41.81 42.21 41.13 41.20 37.37 35.50 32.94 38.94 35.41 36.79 35.40 38.20 39.76 37.53 34.94 36.65 41.02 42.71 45.71 46.49 46.92 47.88 47.83 48.46
46.18 45.45 45.13 45.03 44.63 44.51 44.02 43.94 44.07 44.41 44.73 45.46 45.97 46.18 46.52 46.71 47.16 46.44 45.09 45.71 45.62 39.77 33.98 35.33 38.94 40.98 42.45 42.52 42.33 42.84 42.60 41.83 40.36 37.24 36.57 35.12 37.93 39.33 37.67 36.23 36.43 40.98 38.99 36.26 34.22 41.93 41.44 42.30 46.82 46.78 46.21 46.34 47.29 47.14
44.70 44.67 44.38 43.72 43.70 43.36 43.40 43.55 43.68 43.77 44.60 45.17 45.70 46.03 46.56 47.04 47.43 44.90 39.99 44.96 46.49 44.29 36.70 33.54 37.85 39.34 41.06 44.49 42.82 42.23 43.19 42.38 41.81 39.27 38.07 37.27 39.41 39.76 33.32 30.88 38.25 41.68 43.15 43.21 41.13 45.02 44.93 45.88 47.00 47.12 46.01 46.62 47.13 46.59
43.76 43.36 43.21 43.28 42.75 42.99 43.08 43.26 43.85 44.34 45.30 45.70 46.36 46.70 46.74 47.06 46.12 41.59 38.38 44.68 46.47 44.63 37.80 35.78 32.19 37.67 41.40 41.64 41.48 40.59 42.80 43.19 42.51 41.61 39.63 35.00 36.08 39.22 35.10 30.16 38.00 40.82 42.10 42.75 44.17 43.88 42.07 43.39 43.54 46.14 46.46 46.61 46.93 46.72
42.66 42.63 42.59 42.64 42.49 42.54 43.03 43.67 44.62 45.41 46.63 46.86 46.47 47.07 47.98 48.55 47.28 43.81 45.58 47.35 46.46 42.76 42.13 35.64 32.98 33.55 41.55 40.89 39.74 40.55 41.08 42.98 43.11 42.05 41.19 36.94 35.78 34.20 31.03 36.14 39.73 40.13 41.58 41.94 42.44 43.30 41.98 43.79 43.78 44.31 45.68 45.58 44.14 43.97
41.77 41.83 42.14 42.06 42.07 42.22 43.06 44.11 46.42 46.70 45.73 45.55 46.34 47.87 45.37 43.07 41.77 45.25 50.67 50.05 47.44 43.54 38.37 37.36 30.05 25.86 39.41 41.43 40.47 41.65 42.73 38.90 41.40 39.82 36.72 35.20 31.49 29.18 34.48 36.73 37.23 39.33 38.53 39.53 41.53 41.37 41.64 42.88 43.29 43.29 42.91 41.79 40.80 42.10
41.58 41.27 41.49 41.76 41.86 42.38 43.25 45.53 45.27 45.32 45.25 44.28 40.94 41.85 42.55 41.91 47.10 47.86 47.54 43.74 41.47 42.14 42.87 38.22 38.37 31.95 36.12 35.59 35.57 35.52 38.97 36.00 33.80 34.72 37.85 29.27 30.09 36.39 38.65 40.19 39.60 40.83 41.50 40.43 39.48 39.27 40.47 39.64 42.19 41.96 41.37 41.66 41.18 40.78
41.06 41.35 41.27 41.72 41.71 42.27 43.79 44.93 44.31 43.92 41.87 34.12 30.09 35.95 38.68 43.75 43.18 44.00 39.59 38.47 37.14 35.34 36.72 37.45 37.29 35.03 37.74 31.91 31.17 35.89 31.54 31.98 27.69 31.25 33.28 29.13 27.26 35.63 40.07 40.83 42.06 41.98 42.14 42.08 41.96 41.12 41.16 41.36 41.12 41.10 41.43 41.41 40.84 40.62
40.69 40.77 41.06 41.32 41.74 42.69 43.68 44.45 44.58 38.50 36.07 36.29 35.68 39.68 39.63 38.91 35.97 36.90 34.21 37.41 36.61 32.80 36.97 37.38 38.88 37.28 35.98 37.94 34.80 35.67 29.86 29.98 29.52 34.55 31.31 27.86 34.04 38.18 40.53 41.86 40.77 40.63 42.20 42.53 42.22 42.04 41.90 41.95 41.42 41.44 41.49 40.84 40.50 39.94
40.32 40.56 40.82 41.55 41.98 43.36 43.85 43.72 43.33 43.58 41.83 37.24 38.84 36.70 37.69 36.33 25.98 30.55 26.74 31.57 35.52 40.88 43.04 42.20 38.70 41.91 40.20 40.56 34.99 31.00 29.45 27.22 32.50 25.76 28.93 31.24 36.01 40.08 40.59 41.52 40.68 40.97 42.93 43.01 42.88 42.93 42.88 42.15 42.32 41.45 41.04 40.86 39.97 39.42
40.37 40.63 41.42 41.67 41.99 43.24 42.71 42.74 43.48 41.78 34.79 33.13 33.57 29.44 32.53 26.84 29.44 29.56 31.00 33.73 41.28 41.45 40.31 40.04 41.01 40.28 41.87 37.77 34.97 31.16 32.30 29.65 22.74 23.60 25.98 32.51 37.21 39.81 41.21 41.50 40.79 40.36 42.08 42.20 42.50 42.71 42.15 41.50 40.81 41.23 41.32 40.92 39.39 38.59
40.68 41.39 41.96 41.84 42.08 42.38 42.74 43.28 43.45 37.68 31.94 29.53 32.68 26.56 28.60 32.86 33.41 36.64 39.67 40.08 40.64 38.79 38.55 35.89 38.32 39.50 37.78 37.15 36.08 31.08 29.94 24.00 25.13 24.46 27.71 34.86 38.66 41.24 41.42 42.32 41.25 39.99 40.89 41.36 41.03 41.64 42.04 41.55 41.01 40.48 40.93 40.36 39.75 39.06
41.42 41.04 39.75 41.49 41.81 42.40 42.86 41.98 37.68 35.25 32.76 31.23 29.76 29.76 32.44 31.94 31.77 32.60 32.83 33.25 35.94 34.68 34.17 36.40 35.13 34.51 35.12 34.35 31.30 31.11 26.34 23.73 26.29 28.85 33.81 36.39 39.89 41.70 42.16 43.44 43.13 44.01 42.01 41.79 40.42 42.09 42.33 42.13 41.23 40.53 40.77 39.80 38.90 38.57
41.01 33.71 39.87 41.14 42.02 43.05 42.50 38.49 34.82 34.11 30.45 30.66 29.67 32.67 32.42 32.07 32.18 32.91 33.60 33.96 33.84 32.98 30.83 34.45 32.34 32.35 36.89 33.65 32.67 32.83 27.42 28.92 31.82 34.55 35.89 38.71 40.61 41.60 42.59 44.27 45.31 43.92 42.00 40.87 40.99 41.69 42.24 42.14 42.09 41.23 39.23 39.21 38.51 37.93
35.65 35.51 41.09 42.13 41.56 39.74 35.54 35.17 35.33 33.19 30.02 31.25 29.47 29.72 31.94 33.59 33.14 33.03 33.62 33.72 33.29 32.76 34.23 33.28 37.54 35.74 33.32 31.27 29.76 34.82 35.35 38.27 37.94 38.50 38.61 40.54 41.77 41.87 43.30 43.35 45.39 44.62 42.64 42.05 41.82 41.65 41.33 41.01 39.85 39.45 39.48 38.75 37.66 36.82
38.13 39.16 41.98 42.24 40.82 37.08 31.11 31.68 34.66 29.10 29.35 30.84 31.68 32.09 32.19 32.10 32.83 33.95 34.28 34.71 34.64 35.94 34.48 34.48 32.05 30.20 32.94 36.39 36.00 36.87 38.39 39.47 39.45 40.63 41.34 42.39 42.99 43.36 43.55 44.16 45.11 43.88 42.16 41.64 41.54 41.49 41.91 41.86 40.58 40.33 39.42 38.45 36.69 36.27
41.66 41.50 41.51 41.79 40.11 31.38 29.86 29.53 33.19 28.51 26.56 29.66 31.89 31.45 31.40 30.54 31.96 32.39 32.47 31.81 30.64 35.18 34.58 32.02 32.10 33.51 35.79 38.62 40.24 40.42 41.16 42.98 42.89 41.59 40.92 42.53 43.69 45.03 43.97 43.30 43.49 43.98 42.50 42.12 41.41 39.80 40.44 40.22 40.16 39.52 39.05 38.22 36.80 35.29
38.14 36.37 39.75 37.14 32.51 31.55 28.85 27.86 27.80 27.77 28.66 27.54 30.54 28.34 28.13 30.53 28.16 28.66 29.21 31.74 29.24 28.24 29.24 32.71 35.14 37.39 39.66 41.22 41.72 41.22 41.50 42.99 42.18 42.65 42.49 40.56 42.70 43.40 43.85 44.12 44.82 42.15 41.79 41.31 40.65 40.09 39.61 40.94 40.18 39.55 38.91 37.75 36.99 36.01
34.48 39.21 36.40 37.09 31.23 30.69 29.00 29.33 27.38 28.78 27.53 28.53 28.94 28.88 25.19 26.24 28.44 29.96 32.69 29.21 28.40 35.05 35.60 36.35 37.49 38.63 39.09 39.45 40.63 41.38 42.54 43.19 43.45 44.20 41.07 41.45 42.39 41.88 42.49 43.79 42.08 41.79 42.32 42.41 42.33 41.61 40.28 40.79 40.89 39.90 39.04 37.62 36.58 34.98
38.77 37.42 35.80 34.58 29.88 23.10 22.15 29.02 26.66 26.89 25.30 25.91 26.51 24.22 24.61 26.16 30.49 34.20 28.14 31.31 36.05 38.57 37.87 38.07 38.96 40.41 39.92 40.87 41.03 41.72 42.87 42.19 40.97 41.51 42.89 42.74 43.97 44.17 45.01 45.11 45.00 43.13 42.61 42.95 44.02 42.77 41.04 39.29 38.72 39.58 38.39 37.47 36.58 34.34
37.95 32.87 29.91 27.85 28.35 24.00 28.46 25.65 24.14 25.52 26.20 24.71 23.75 23.64 26.09 29.21 33.81 29.76 28.94 34.18 36.98 38.41 38.83 38.23 38.77 38.19 39.99 40.48 39.92 41.11 41.24 41.57 42.05 42.78 43.40 42.55 41.95 42.81 45.01 45.81 45.76 45.98 45.40 44.70 43.75 42.46 41.68 41.25 38.86 39.10 38.16 37.14 36.16 34.20
27.08 20.54 26.24 21.84 27.02 25.14 25.01 24.97 25.26 22.09 22.18 24.47 23.79 24.11 26.80 32.44 28.58 29.77 30.17 30.13 32.78 34.66 36.27 38.66 37.26 36.42 36.92 38.42 39.05 40.01 41.72 40.77 39.87 40.29 43.25 43.71 44.04 43.27 42.97 44.03 44.20 45.35 45.07 43.46 42.50 41.96 41.77 40.85 40.35 38.90 37.99 37.00 35.36 33.93
17.73 21.90 21.43 24.27 25.07 24.79 24.75 22.87 21.80 19.98 23.25 23.47 24.99 29.01 30.41 28.54 27.61 27.49 29.57 29.27 31.21 32.61 32.63 34.05 35.18 34.38 35.67 38.82 37.78 38.02 38.96 41.10 40.30 38.69 41.39 43.60 44.89 44.40 43.28 42.46 42.39 42.04 44.92 45.38 43.83 42.69 41.85 41.44 40.10 38.41 37.44 35.50 33.57 34.11
19.08 17.10 25.39 30.39 27.58 28.17 26.39 26.34 25.79 22.63 22.67 23.03 26.49 26.78 27.07 23.75 22.09 25.46 31.50 32.64 30.94 32.79 34.97 36.56 36.43 34.97 35.17 35.99 38.57 39.77 39.49 39.30 39.95 41.19 42.74 44.08 45.77 46.62 46.13 44.38 43.76 45.22 45.68 45.23 44.71 43.53 42.17 41.22 39.94 39.11 37.54 36.49 35.70 34.77
24.85 25.79 23.15 24.69 28.16 28.97 26.14 25.57 24.10 22.57 24.48 26.79 27.49 25.92 25.05 23.33 20.92 27.37 32.02 32.93 33.63 34.56 35.84 37.04 37.24 36.94 36.44 36.43 37.28 37.40 35.88 36.38 41.12 44.12 42.97 44.08 44.07 43.18 43.76 44.89 44.34 39.31 45.57 45.67 45.17 45.35 44.21 42.51 40.71 39.14 37.88 36.49 34.69 34.28
25.83 24.57 26.83 24.85 26.40 25.78 26.65 25.63 25.19 25.74 27.00 25.26 24.61 25.62 27.63 27.64 30.02 30.05 31.71 32.84 34.76 34.29 33.17 33.54 33.72 35.70 35.89 35.70 36.23 35.73 34.01 32.70 32.79 33.74 36.62 37.45 38.99 39.95 42.24 42.20 43.66 43.98 43.51 41.85 35.74 40.89 43.72 42.16 40.76 39.78 38.44 36.33 34.62 33.28
24.53 26.84 24.39 25.47 25.89 26.01 29.75 29.64 26.39 27.38 27.76 28.22 29.09 30.05 28.43 29.14 30.41 32.10 31.33 31.35 31.99 31.34 32.18 32.35 32.29 31.74 31.40 31.10 31.31 32.21 33.87 32.31 31.98 31.54 31.01 32.60 36.85 39.74 39.71 39.91 39.89 40.02 41.81 40.30 39.47 36.55 33.65 36.26 35.02 36.34 35.10 34.18 33.17 31.34
26.54 28.66 28.92 25.35 25.34 29.41 33.16 34.69 32.66 29.27 27.90 28.35 32.71 31.97 27.21 28.73 30.30 29.32 28.99 30.01 31.00 31.19 29.47 28.49 29.20 30.07 30.22 29.71 29.53 28.89 28.20 31.46 31.20 31.47 32.49 35.57 38.02 38.63 38.88 39.07 40.21 40.48 39.95 39.75 39.20 38.55 37.46 37.63 36.29 34.89 33.62 32.01 31.17 30.75
30.80 28.87 28.44 27.26 25.80 28.99 33.17 31.15 28.26 28.39 27.35 28.98 27.94 32.54 28.74 25.45 21.83 23.63 28.63 27.99 26.78 26.55 28.33 28.97 28.00 27.76 29.96 29.66 29.57 29.48 30.13 30.11 29.66 29.57 29.80 30.58 32.43 35.22 37.80 38.02 38.30 38.02 38.05 39.25 38.41 37.50 36.23 34.60 33.54 32.88 31.69 30.93 30.38 29.29
25.90 27.97 28.85 27.96 23.23 25.67 28.05 29.61 30.95 27.50 26.47 25.12 24.81 27.22 25.95 23.97 20.69 25.80 29.01 29.07 27.58 26.65 27.18 28.80 29.38 29.41 29.47 28.16 27.14 27.17 27.62 28.64 28.98 28.43 28.37 29.29 28.62 29.28 32.77 35.34 36.34 36.21 35.09 34.18 33.74 33.69 33.29 32.68 31.60 30.98 30.45 29.12 28.09 27.32

GFSWCAN_sfc_wetblb_030.txt.gz
Wetbulb
49.53 49.98 50.28 50.23 48.81 47.86 46.79 46.45 45.80 45.96 46.06 45.99 46.31 46.42 46.70 47.27 48.14 48.03 47.37 51.30 45.11 39.42 39.86 42.59 43.21 38.71 38.93 37.53 33.57 38.77 38.91 41.74 40.82 37.26 35.48 35.61 34.85 35.48 33.29 35.73 32.40 32.22 31.48 32.76 32.52 29.46 27.77 40.38 38.46 35.91 43.72 48.19 48.10 48.92
49.82 49.96 49.50 48.32 47.10 46.39 45.80 44.53 44.76 44.78 44.82 45.52 45.84 45.90 46.37 46.41 47.15 47.92 44.77 49.78 49.55 42.23 40.86 46.20 45.89 46.48 44.76 43.31 39.63 38.48 39.35 39.00 40.40 38.18 37.48 38.50 36.29 36.45 35.40 32.35 36.32 32.58 32.40 32.03 32.22 32.94 38.92 39.32 35.79 40.29 44.30 45.69 47.12 47.56
49.81 49.11 47.87 46.38 45.73 45.14 44.73 44.49 44.13 44.20 44.42 44.47 44.98 44.91 45.61 45.71 46.01 46.70 46.26 47.92 45.71 41.05 41.86 43.85 44.52 48.66 50.30 49.50 49.65 38.08 41.64 44.71 41.78 43.65 38.06 38.19 35.01 38.74 33.67 35.12 34.53 38.05 39.05 34.21 33.85 37.97 36.32 39.67 44.12 43.14 42.49 44.78 44.97 44.73
48.19 47.07 46.00 45.45 44.87 44.44 44.19 43.87 43.86 44.03 44.51 44.93 45.67 46.45 46.53 46.31 46.14 45.99 44.61 47.80 45.25 41.45 35.44 42.05 48.84 47.16 50.93 50.39 48.92 48.10 45.90 47.92 45.86 43.33 38.89 36.89 36.09 41.68 37.99 39.45 38.35 39.71 41.50 38.23 38.29 41.01 41.14 41.87 43.33 45.25 45.33 45.41 45.91 49.88
46.02 45.25 44.80 44.26 43.99 43.98 43.65 43.48 43.45 43.83 44.28 45.41 46.12 46.75 46.53 46.45 46.02 46.57 46.53 46.05 45.70 41.00 35.60 38.71 45.92 49.18 49.87 49.68 47.17 47.47 45.53 43.13 40.83 38.60 38.06 36.71 41.43 40.98 42.61 42.55 40.22 43.37 39.88 37.98 36.49 42.23 40.41 41.64 43.84 45.33 45.21 45.48 46.30 46.88
44.55 44.03 43.66 43.41 43.38 43.18 42.86 43.11 43.29 44.05 44.63 46.03 46.45 45.79 45.83 45.73 45.72 45.40 40.79 46.35 47.91 45.81 37.66 34.81 47.60 46.73 48.52 49.77 48.66 45.81 43.93 42.38 41.12 41.37 40.01 41.49 45.76 41.03 38.36 39.12 44.51 45.89 46.99 46.37 42.35 44.58 44.32 43.89 43.41 43.12 42.99 45.43 46.16 46.34
43.30 43.09 42.80 42.89 42.76 42.63 42.68 42.88 43.36 43.94 45.27 45.70 45.81 45.99 45.52 45.96 46.65 42.82 44.17 45.95 47.84 46.42 38.91 35.87 37.69 48.01 47.45 48.54 47.43 44.58 44.53 43.09 42.25 42.36 41.51 43.02 42.87 41.88 41.85 38.28 44.22 45.43 46.62 45.79 46.37 45.27 41.93 43.31 40.59 43.69 43.90 45.34 46.42 46.23
42.49 42.42 42.32 42.29 42.49 42.40 42.94 43.03 43.53 44.34 45.35 46.19 45.99 45.00 45.89 48.76 46.42 43.84 47.48 47.81 47.84 42.87 41.17 35.58 37.38 43.90 48.19 45.71 45.16 46.69 43.73 43.27 42.94 42.46 45.86 44.50 44.29 44.39 40.06 43.94 45.16 45.32 46.55 45.67 44.92 46.39 44.57 45.28 44.34 43.63 45.71 45.61 44.55 43.83
42.13 42.10 42.08 42.18 42.08 42.28 42.58 42.98 43.93 45.21 45.54 45.23 44.22 44.71 48.81 46.91 43.32 45.51 47.69 50.42 47.32 42.57 37.05 37.83 36.00 37.75 47.87 46.14 48.81 44.84 44.66 39.62 44.22 41.01 42.16 42.62 41.74 40.30 43.79 43.90 44.90 45.78 45.49 45.16 45.68 45.17 44.71 44.10 42.51 44.02 45.69 44.64 45.94 42.67
41.58 41.81 41.78 41.44 41.65 42.04 42.41 43.34 44.56 44.39 44.99 43.93 44.00 45.15 42.92 46.85 45.04 46.85 45.65 41.47 39.93 40.61 40.37 37.22 43.69 38.96 44.93 45.00 44.86 45.88 45.51 41.88 39.48 41.95 45.22 41.57 42.74 46.98 46.93 47.33 47.89 47.15 47.68 47.20 44.86 42.02 43.34 43.08 41.40 42.48 44.02 45.24 45.40 42.76
41.42 41.28 41.19 41.48 41.62 41.98 42.43 43.01 44.15 43.97 44.26 42.48 39.23 39.43 43.96 46.01 47.03 44.82 40.51 38.54 37.65 36.12 39.34 40.40 40.98 38.37 45.14 39.72 41.66 46.36 43.28 45.20 38.34 41.99 41.35 41.61 42.87 46.17 48.54 47.97 49.18 48.31 49.09 47.92 47.73 46.23 45.13 43.47 42.39 43.00 42.98 44.58 43.61 43.11
40.69 40.85 40.98 41.52 41.73 42.57 42.82 42.69 43.36 42.99 42.15 41.09 41.00 41.38 41.15 40.20 40.73 37.36 37.03 40.16 38.90 36.54 42.29 41.22 40.29 40.16 41.28 44.82 42.86 44.71 40.97 43.52 35.55 45.39 40.66 39.46 44.72 47.73 47.93 47.98 49.02 49.52 49.20 48.41 47.99 46.39 45.26 43.48 42.89 43.42 43.98 43.60 44.34 45.17
40.45 40.46 40.88 41.41 42.42 42.57 42.81 42.79 43.00 43.46 43.71 43.09 38.31 34.90 37.40 38.79 31.51 30.90 30.19 33.90 37.05 41.89 39.45 40.14 40.12 43.95 41.19 41.72 41.58 41.29 38.39 38.61 45.87 39.74 38.80 43.03 47.12 48.02 48.54 48.82 49.27 49.92 49.82 49.00 48.07 47.28 45.98 44.91 44.28 43.92 44.13 44.29 43.26 43.94
40.23 40.63 41.35 41.95 42.40 42.24 42.63 42.85 43.22 43.29 40.71 37.02 34.71 31.29 33.71 31.35 32.04 34.50 35.50 38.34 41.27 40.16 40.72 40.83 40.10 40.18 41.71 35.08 36.06 35.30 41.50 42.20 36.52 34.82 36.46 43.47 47.58 48.48 49.15 49.28 49.44 48.77 49.45 48.74 48.01 47.79 45.72 44.79 43.74 43.78 44.58 44.73 43.04 42.05
40.38 41.25 41.90 42.20 41.77 42.01 42.74 42.98 43.02 44.00 40.80 34.02 34.96 28.28 33.81 38.94 39.20 38.76 36.52 38.40 40.04 42.37 40.70 39.25 40.76 41.94 39.99 36.46 37.30 39.40 37.24 35.23 38.03 38.74 43.51 45.87 47.79 49.73 49.24 49.32 49.66 49.70 49.85 49.30 49.07 48.30 47.12 45.37 44.29 44.11 44.90 45.26 44.12 43.50
41.22 41.56 42.52 40.57 41.58 42.41 42.71 43.34 43.36 41.86 40.16 35.78 34.13 32.20 36.91 35.21 35.99 37.66 38.82 37.98 40.36 41.05 41.44 40.46 37.93 37.76 38.52 39.59 35.95 36.08 35.23 34.96 39.65 44.53 46.60 48.00 48.54 49.85 50.14 50.55 50.52 50.50 50.44 49.82 50.03 49.01 48.17 46.30 45.05 44.56 45.17 45.03 44.48 43.12
40.73 41.55 40.22 41.07 41.98 42.62 41.77 40.46 39.67 34.15 34.49 33.06 35.66 39.01 37.07 36.41 35.81 37.09 38.41 39.02 41.74 38.33 35.61 38.25 34.78 35.02 42.75 36.30 35.39 41.85 38.78 42.53 45.44 46.51 48.43 49.41 48.87 50.24 51.28 51.03 50.66 50.79 50.82 50.39 50.21 49.89 49.08 48.04 47.06 45.61 43.94 44.53 44.75 43.95
41.12 42.58 41.45 42.29 42.78 42.47 43.49 42.01 36.81 34.49 30.98 36.24 33.56 35.26 36.85 37.46 36.18 36.96 38.50 40.37 39.39 37.95 37.59 35.31 39.28 35.89 34.85 32.50 37.99 42.63 44.31 45.45 46.74 46.85 47.98 49.57 50.67 51.41 51.50 50.91 50.75 50.32 50.73 51.10 50.93 50.74 50.03 48.82 47.48 46.02 45.56 45.33 45.15 44.80
41.26 42.27 41.86 41.72 41.79 40.49 36.12 37.88 39.87 32.37 34.47 36.03 36.85 37.45 37.38 37.52 39.02 39.49 39.45 40.22 40.87 42.15 38.88 37.10 34.72 34.27 36.28 40.31 39.57 42.24 43.94 44.85 43.45 45.16 47.29 50.57 51.50 51.15 51.06 51.78 51.72 51.65 51.27 51.48 51.27 50.56 50.75 50.53 49.50 48.18 47.28 47.25 45.02 45.29
41.46 40.72 40.78 40.83 40.82 38.91 32.24 36.26 41.16 34.41 32.30 35.15 36.83 35.90 36.21 36.24 38.14 38.54 38.71 39.40 39.53 38.25 34.63 33.23 34.61 38.73 39.09 40.67 42.85 43.11 44.46 45.37 45.18 44.72 45.74 47.38 50.85 51.27 51.26 51.60 51.63 52.40 51.72 51.77 52.13 47.21 51.08 50.43 50.02 49.16 48.87 47.28 45.84 44.67
40.23 40.94 40.77 41.18 41.27 39.81 36.90 36.40 35.35 36.56 35.31 34.00 36.30 35.44 33.45 36.38 34.98 36.40 37.77 40.44 37.81 37.92 35.97 37.82 39.00 41.61 43.58 44.09 44.66 44.13 43.86 44.64 43.16 45.83 45.95 46.14 49.08 49.27 51.05 52.67 52.55 52.55 51.89 50.71 49.82 49.56 47.19 50.13 50.23 49.93 47.51 48.12 47.01 46.42
41.81 39.43 41.60 41.14 37.16 36.12 36.31 39.79 35.38 36.89 34.89 34.70 34.50 34.88 32.93 32.28 33.53 35.99 38.64 37.39 35.50 32.72 34.99 35.84 36.30 38.02 40.39 41.50 42.22 43.69 43.55 43.33 43.70 44.37 43.92 45.55 47.77 47.58 48.54 50.55 51.63 50.97 51.49 51.88 50.93 50.74 50.45 51.51 51.07 49.99 49.19 47.33 45.75 45.26
40.21 40.54 39.76 37.19 31.81 31.40 31.27 40.15 32.37 34.50 30.08 31.29 33.93 31.07 31.28 31.42 34.00 36.94 31.95 31.76 33.50 35.67 35.41 35.36 36.27 38.00 38.24 40.94 41.94 41.95 42.52 41.96 41.73 42.64 43.57 44.90 46.83 48.98 49.69 50.39 50.69 51.02 51.04 52.07 53.11 51.22 51.34 46.82 47.31 49.67 48.49 46.70 45.97 44.06
39.01 35.41 31.12 31.57 32.84 28.80 35.08 32.72 36.01 33.15 32.96 31.09 29.72 27.77 29.86 31.98 35.09 33.46 28.90 30.98 33.90 35.44 34.65 34.55 35.26 35.15 36.16 37.18 36.46 37.17 38.18 38.92 38.43 40.03 44.59 43.92 44.28 45.96 48.20 49.63 51.40 52.21 52.96 53.49 53.11 52.51 52.07 50.52 45.76 48.97 47.81 46.83 45.49 44.26
29.29 27.50 30.71 24.39 32.53 28.56 27.09 28.32 29.32 30.39 26.56 29.39 27.46 28.21 31.46 34.25 31.78 29.08 27.35 30.22 31.94 32.92 32.96 33.90 34.25 34.79 34.03 34.37 35.12 35.51 36.92 35.50 34.32 34.46 38.99 42.20 43.69 44.62 46.81 50.16 52.09 52.92 53.94 52.89 51.79 51.19 50.16 50.28 49.19 48.31 47.57 47.00 45.77 44.90
24.04 27.71 27.67 29.40 30.66 28.47 30.40 25.42 26.07 26.47 28.32 27.00 26.80 33.85 34.81 32.06 27.67 25.89 28.92 30.56 30.66 31.70 32.13 32.10 31.77 31.71 33.05 34.25 32.63 32.88 33.42 34.92 34.17 33.46 37.60 41.85 42.43 42.62 42.45 43.72 47.76 51.19 53.83 53.19 51.34 49.81 49.34 49.63 48.78 47.78 47.12 45.03 38.05 44.45
24.12 26.40 32.17 36.70 36.16 34.21 30.88 32.38 33.31 30.03 26.07 25.13 30.66 29.77 30.64 24.10 23.91 28.42 31.95 33.07 31.51 33.41 35.05 35.21 34.11 32.96 33.20 33.54 34.93 35.58 35.97 35.30 34.67 34.68 39.18 41.45 42.72 41.49 41.02 41.40 42.38 46.61 50.48 52.75 52.33 51.33 50.36 49.39 48.43 47.35 46.85 46.77 45.70 45.37
31.27 32.13 28.57 31.38 31.26 32.50 27.35 29.19 27.78 26.77 30.18 34.74 33.79 27.36 24.10 24.93 26.19 30.84 32.27 33.49 33.58 34.88 34.80 35.36 35.50 35.51 35.14 35.71 36.19 36.02 35.34 35.63 35.48 36.75 37.57 37.55 38.00 40.06 38.26 39.66 43.24 37.73 47.27 50.89 52.37 52.58 51.81 50.30 49.46 48.74 47.58 45.06 44.94 46.45
30.14 33.53 32.80 27.71 28.63 29.16 29.48 29.61 31.37 35.31 37.16 36.14 32.26 29.01 27.63 29.98 30.83 30.53 31.80 33.52 35.03 34.02 32.15 32.56 33.91 35.48 35.71 36.82 37.08 36.82 35.94 33.31 31.59 30.54 29.10 28.93 29.33 32.70 34.83 37.10 39.16 42.85 45.45 49.66 38.68 43.42 50.76 49.35 48.64 47.14 44.44 43.90 45.70 46.12
30.51 35.28 31.57 30.61 28.34 28.95 34.30 36.84 36.85 38.68 39.12 38.16 36.60 33.08 30.75 30.32 32.94 35.63 34.63 34.19 32.80 31.58 32.23 33.20 33.65 32.75 31.90 31.59 31.73 33.36 35.39 35.01 32.49 29.00 26.93 27.36 28.75 31.80 33.66 35.72 36.58 37.70 41.09 44.44 49.06 45.41 35.22 42.87 40.90 44.24 42.37 41.57 40.80 40.31
35.83 34.85 32.13 31.96 31.48 36.33 38.51 40.39 39.46 36.96 36.13 35.13 34.96 31.92 30.25 29.65 31.67 33.66 32.53 33.53 33.61 32.71 30.79 30.59 32.51 32.59 31.19 30.74 30.11 29.76 29.21 33.16 34.24 32.46 30.98 31.89 32.75 32.59 33.06 34.75 35.16 36.37 38.83 41.32 45.52 45.14 43.29 43.35 43.21 41.58 40.80 38.86 37.92 39.23
34.22 32.22 31.19 28.10 31.90 37.52 39.13 36.82 35.23 33.61 33.19 32.16 30.80 31.40 31.35 30.56 27.79 29.08 30.56 31.78 31.14 28.68 28.17 28.82 29.57 31.14 32.41 32.85 33.20 33.24 30.05 33.14 32.78 31.95 30.92 31.20 32.73 33.43 34.08 35.18 35.47 34.80 34.95 35.08 35.69 40.22 42.48 41.05 38.90 38.41 38.27 38.23 38.47 37.81
32.39 32.80 31.71 31.31 31.31 31.78 35.70 34.94 32.16 30.40 31.07 30.54 30.40 31.36 31.15 29.57 24.52 29.33 32.18 32.40 30.45 29.56 28.88 29.93 32.37 33.04 32.74 31.79 31.97 32.69 31.78 33.60 31.74 29.31 28.57 28.55 29.39 29.60 32.93 34.29 35.47 34.80 33.34 31.76 30.89 31.02 31.74 31.78 31.44 31.89 32.02 32.55 33.62 33.83

GFSWCAN_sfc_wetblb_033.txt.gz
Wetbulb
49.49 49.73 50.25 49.94 48.80 47.75 46.79 46.30 45.43 45.27 45.02 45.47 45.96 46.20 46.18 46.73 47.10 47.32 47.65 50.94 47.34 41.55 44.53 46.02 45.80 40.64 40.50 40.15 35.38 40.67 40.91 42.42 41.97 38.73 37.80 37.82 37.64 38.81 35.64 38.56 35.82 33.28 32.19 33.64 33.79 30.04 28.28 41.86 40.09 35.53 43.80 46.03 45.55 48.86
49.55 50.01 49.83 48.27 47.27 46.48 45.80 45.17 44.97 44.90 44.78 44.94 45.40 45.68 45.90 46.08 46.47 46.74 42.85 50.17 52.59 45.23 43.29 48.38 47.81 48.24 46.57 45.53 41.74 40.44 40.85 39.52 42.79 39.43 38.68 40.60 38.04 39.58 37.91 32.66 38.65 32.73 34.73 32.55 32.55 33.46 41.81 42.12 39.46 40.61 40.09 39.83 44.72 48.00
49.76 49.96 48.09 46.97 46.18 45.62 45.07 44.79 44.47 44.54 44.70 44.63 45.46 46.47 47.12 47.48 47.03 46.08 45.26 47.54 47.15 42.33 41.65 45.90 47.58 50.34 52.76 50.81 50.63 39.28 42.94 44.19 43.24 43.72 39.44 37.51 36.34 40.71 35.01 37.67 37.70 38.93 41.74 33.10 34.37 39.43 38.44 41.49 42.82 44.05 46.33 47.24 47.33 49.59
49.82 48.13 46.81 45.78 45.22 44.74 44.47 44.28 44.11 44.19 44.26 44.87 45.59 46.39 47.24 47.51 46.95 46.58 45.74 48.23 47.60 42.78 36.73 44.80 51.75 48.22 51.80 50.86 49.42 49.20 47.93 48.91 47.37 44.57 39.31 37.64 36.10 43.47 40.33 40.82 39.21 42.73 42.22 39.18 38.44 39.28 41.77 41.84 41.39 42.18 45.19 46.60 45.68 47.59
47.93 46.38 45.52 44.52 44.23 44.05 43.93 43.69 43.59 43.91 44.29 44.74 45.76 46.63 46.54 46.37 46.25 46.66 47.20 46.35 46.67 41.17 38.66 40.98 47.02 51.85 52.71 52.44 50.00 49.01 47.79 45.60 43.30 38.92 38.77 37.41 40.66 41.38 45.02 44.41 41.31 44.23 40.99 37.50 35.28 41.26 40.80 40.08 42.13 43.03 43.16 45.15 46.55 47.33
46.27 45.11 44.10 43.74 43.56 43.49 43.37 43.47 43.76 44.04 44.29 44.91 45.88 46.33 46.38 45.99 45.87 45.87 41.45 49.20 48.07 46.20 38.30 35.21 49.12 48.97 51.44 51.94 48.82 47.37 46.74 44.79 42.17 39.75 39.87 41.74 47.85 43.89 39.32 38.74 44.59 45.88 46.64 44.52 41.22 43.86 43.35 42.27 42.89 43.96 43.54 45.82 46.26 47.21
44.93 43.88 43.34 43.09 43.09 43.22 43.20 43.61 43.76 44.11 44.74 45.30 45.85 45.89 45.59 45.60 47.08 43.99 43.75 45.60 48.78 46.99 38.52 35.98 40.16 47.75 51.23 50.53 48.86 47.62 47.53 44.16 42.17 40.29 40.18 43.69 45.01 46.15 42.83 39.27 45.02 45.37 45.54 46.68 46.32 44.62 41.51 42.82 41.39 44.50 46.04 46.53 46.07 46.51
43.86 43.17 42.77 42.83 42.87 42.79 42.97 43.19 43.56 44.35 45.38 45.81 46.19 45.94 45.17 48.02 46.49 45.03 48.92 48.49 48.61 43.30 41.26 35.87 38.62 44.59 51.08 47.18 45.37 47.90 43.67 43.93 43.04 41.84 43.87 43.93 46.10 45.80 39.07 45.53 45.56 46.74 45.65 45.79 45.18 45.60 43.70 44.92 45.49 45.33 45.31 46.52 43.39 44.42
43.06 42.53 42.53 42.50 42.22 42.22 42.62 43.10 43.61 44.33 45.60 45.55 46.14 45.99 47.48 46.06 43.95 46.56 47.41 49.29 48.19 43.49 37.04 37.39 36.75 39.20 49.01 46.57 49.33 46.88 47.48 39.87 44.99 40.77 43.20 46.06 43.81 39.53 44.55 45.82 45.77 46.60 45.01 44.75 45.27 44.63 44.29 43.86 45.31 44.33 43.91 43.99 42.37 42.94
42.61 42.13 42.15 41.96 42.19 42.19 42.44 42.97 43.52 43.91 45.36 45.69 46.69 46.57 45.03 45.60 45.17 48.37 45.49 42.57 40.08 40.58 39.59 36.56 44.03 38.67 44.51 43.99 44.18 45.80 46.69 42.70 39.35 44.16 47.56 43.79 43.27 49.17 48.54 49.01 48.38 47.88 47.68 46.68 43.07 42.06 42.21 42.11 44.00 44.28 43.66 43.10 42.88 43.01
42.24 41.80 41.48 41.70 42.04 42.52 43.17 43.67 43.66 43.98 45.87 45.75 42.46 43.01 45.56 47.33 46.26 45.86 40.79 38.70 38.41 35.97 38.68 41.44 42.12 39.41 46.34 41.22 42.11 45.69 44.52 44.63 38.87 43.52 42.30 41.69 43.14 47.17 49.45 48.93 49.39 49.09 49.13 47.87 46.72 46.12 44.05 44.02 44.39 45.18 43.72 43.50 42.82 42.47
41.56 41.05 41.30 41.30 41.96 42.79 43.19 43.25 43.32 44.46 43.94 42.09 41.36 42.79 44.07 42.15 41.22 36.95 37.53 40.58 39.95 37.77 42.94 42.98 42.02 43.08 43.94 44.62 42.08 45.34 41.53 44.36 37.41 48.41 42.60 39.82 44.07 47.54 48.56 48.49 49.15 49.30 49.06 48.46 48.00 45.01 43.77 44.11 46.12 45.80 45.43 45.25 43.10 43.49
40.91 40.93 40.85 41.40 41.99 42.50 42.97 42.95 43.32 43.49 44.17 46.33 41.06 37.41 38.83 39.74 32.62 33.12 32.57 37.71 38.93 39.23 40.34 41.24 39.61 43.23 45.40 43.65 41.56 41.53 38.91 39.40 46.72 42.36 39.94 42.99 46.63 48.09 48.93 49.26 49.08 49.63 49.21 49.07 47.41 46.23 44.24 43.82 45.38 45.79 44.94 45.35 46.06 43.52
40.75 40.73 41.02 41.86 42.38 42.75 42.58 42.86 43.37 43.70 44.07 40.62 36.66 33.20 35.47 34.05 36.55 37.79 37.49 36.75 40.05 41.90 41.13 42.30 40.95 41.01 43.27 36.80 37.33 33.99 41.31 43.55 38.24 36.29 37.55 43.88 46.95 48.40 49.11 49.63 48.98 48.46 48.48 47.91 47.44 45.50 44.83 44.70 44.48 45.14 45.60 45.34 45.60 45.49
40.68 40.89 41.72 42.60 41.43 41.90 42.72 42.88 43.23 45.44 42.90 37.30 37.83 30.03 35.61 41.01 40.63 43.52 42.90 43.22 43.54 42.68 41.79 41.03 41.54 42.35 40.82 36.38 34.95 38.09 37.47 36.40 39.36 39.93 44.22 47.47 49.44 50.34 49.17 49.53 48.92 49.83 49.04 48.37 48.48 46.82 45.94 45.31 44.93 45.07 45.79 45.64 45.27 45.22
41.04 41.13 43.31 40.42 41.46 42.50 42.85 44.58 46.69 46.08 42.90 38.68 36.89 34.86 38.58 36.78 37.14 38.66 39.03 38.72 41.84 42.41 42.42 41.46 38.71 37.61 38.28 39.18 34.99 37.49 36.45 36.28 41.71 46.01 47.70 49.99 50.33 51.76 51.18 50.21 50.53 50.81 50.45 50.35 49.59 48.70 47.82 46.09 45.55 46.15 46.47 45.91 44.65 44.79
40.08 44.43 40.31 41.56 42.49 43.05 43.45 44.54 43.99 37.82 38.15 35.69 37.54 40.37 38.43 37.26 36.11 36.69 38.34 38.74 42.47 39.41 35.94 36.58 34.41 34.74 39.98 37.06 35.73 41.33 38.83 39.69 43.53 46.81 49.27 50.67 50.53 50.99 51.49 50.84 50.83 50.67 50.49 50.67 50.48 50.05 48.96 48.76 47.95 46.53 45.17 46.20 46.12 45.32
42.41 44.13 42.01 42.27 43.05 44.80 45.48 44.69 41.31 38.64 33.96 38.14 35.91 37.27 38.13 38.91 37.89 38.28 39.53 40.54 38.88 38.47 37.50 34.63 37.19 32.95 32.36 32.47 37.09 36.40 41.01 43.59 45.62 46.76 48.41 49.73 51.42 52.10 52.15 51.43 50.63 51.14 50.97 51.34 51.15 51.00 50.44 49.56 48.02 46.56 46.90 47.28 46.88 46.84
42.84 43.81 41.94 41.52 42.15 42.72 40.30 40.55 42.90 35.44 37.52 38.73 39.54 39.56 39.47 38.92 40.33 40.73 40.23 41.18 41.62 41.76 39.59 38.52 33.35 32.13 34.70 39.77 38.83 41.05 42.13 42.90 43.44 46.50 47.19 49.00 50.99 49.81 50.77 51.79 51.95 52.12 52.14 52.02 51.47 50.70 50.87 51.08 49.96 49.44 48.48 47.84 46.38 46.88
41.30 41.41 40.79 41.13 40.98 42.33 35.23 39.41 44.11 37.47 35.80 38.03 39.54 38.36 38.00 37.80 39.77 40.06 40.44 41.09 40.11 38.88 34.68 34.41 35.26 37.61 37.61 40.16 42.39 43.06 43.38 44.97 44.44 43.64 45.34 47.72 49.48 49.49 49.58 49.32 51.41 52.94 52.17 52.01 51.56 46.58 50.75 50.45 50.86 50.87 50.10 47.80 46.91 46.37
38.86 42.28 41.18 42.68 43.58 42.56 40.25 40.70 38.86 40.26 38.99 37.28 38.50 38.17 37.47 39.72 38.18 38.32 39.40 41.69 36.36 34.95 33.32 33.92 33.79 37.76 40.79 42.32 44.30 44.82 44.41 44.92 43.05 42.79 44.49 44.84 47.36 49.09 49.70 50.53 52.16 50.38 51.43 50.63 49.80 49.19 48.25 50.02 50.98 51.26 49.72 48.90 48.11 47.84
43.87 40.40 44.23 42.15 40.49 39.27 39.38 43.31 38.88 40.45 38.54 38.33 37.90 38.69 36.00 33.95 35.91 36.62 39.69 34.91 32.62 33.48 34.37 34.09 34.72 36.04 36.80 39.73 40.86 43.17 42.29 42.06 43.10 43.47 42.47 44.04 46.49 47.70 48.19 49.32 49.14 49.25 51.39 52.04 51.09 50.51 51.11 51.04 51.58 51.79 51.26 49.02 47.20 47.18
40.38 41.72 42.01 39.75 34.99 35.54 33.82 43.30 36.11 38.19 32.82 33.89 37.18 34.76 34.07 35.84 37.68 41.02 34.46 35.11 34.98 36.55 36.78 35.92 36.49 37.97 37.62 38.60 39.37 40.22 40.07 38.23 38.05 39.77 42.66 44.80 46.82 48.28 48.97 50.00 50.09 48.56 49.89 49.73 52.80 52.17 51.61 47.31 49.37 51.67 51.32 49.31 48.00 46.62
38.85 37.65 34.58 35.09 35.25 32.55 37.99 35.70 38.69 35.96 36.74 35.01 33.03 30.41 32.82 35.79 39.24 35.15 30.95 33.38 34.86 35.80 35.13 35.12 35.83 35.07 36.58 37.14 35.34 35.48 36.81 36.22 34.76 35.38 38.62 41.54 43.93 46.38 48.43 48.32 49.25 50.45 52.02 53.35 50.90 51.40 53.28 51.75 48.35 51.53 50.70 49.64 47.92 46.07
31.77 30.05 33.06 28.72 36.10 31.96 31.21 31.38 32.40 33.45 29.68 32.51 30.90 31.84 34.81 39.37 34.37 31.65 27.59 31.05 32.25 32.63 33.75 34.80 34.82 35.11 34.77 34.41 34.86 35.62 37.30 35.74 33.61 32.92 35.93 38.83 41.04 43.91 45.38 47.14 48.85 51.80 53.00 51.93 51.92 50.99 50.22 52.24 52.59 51.67 50.42 49.70 48.19 46.69
26.76 30.52 30.41 32.67 33.58 32.42 33.01 29.06 29.33 30.14 32.52 30.30 32.53 36.55 36.88 34.11 28.32 26.65 30.34 32.12 31.87 32.82 33.50 33.82 33.33 33.26 33.79 35.37 34.73 35.12 35.36 36.95 36.16 34.09 35.01 37.44 39.02 38.29 38.11 39.72 42.50 47.49 50.39 47.96 48.22 51.99 50.22 52.01 51.98 50.43 50.21 48.38 39.88 47.15
26.74 28.47 35.05 40.37 40.17 37.74 35.28 35.71 37.29 33.87 29.31 29.20 32.92 32.25 32.26 26.23 26.18 30.24 34.02 35.28 32.78 33.99 35.58 36.12 35.73 34.43 34.42 35.60 36.84 38.01 38.86 39.03 37.23 36.27 37.71 37.90 36.52 38.23 34.39 34.07 35.28 38.78 42.25 45.23 49.44 50.42 51.63 51.95 50.56 49.64 50.17 50.41 49.29 48.70
32.62 35.30 32.01 34.48 35.27 36.16 30.34 32.48 31.35 31.06 33.25 37.00 35.95 29.43 27.63 28.03 29.39 33.26 33.71 35.16 35.32 36.50 36.78 37.39 37.67 37.63 36.94 37.07 37.62 37.14 36.81 37.48 38.57 38.89 38.41 37.45 36.64 36.90 34.75 35.02 36.11 34.80 39.99 43.87 43.59 46.82 48.98 51.29 50.26 50.35 50.43 50.39 49.30 49.10
33.31 37.23 36.95 32.25 32.18 31.22 32.00 32.86 33.90 37.09 40.11 38.69 33.79 32.03 31.02 33.27 33.78 34.52 36.00 36.79 37.35 35.84 34.69 35.29 36.48 38.02 37.99 38.33 38.13 38.03 37.07 35.87 32.26 30.77 31.38 32.81 33.79 34.37 35.16 34.84 35.56 37.05 38.53 40.52 39.00 40.09 46.38 47.31 50.29 50.15 51.13 50.11 50.07 49.95
33.95 38.05 34.24 33.14 30.32 31.05 36.39 39.27 38.20 40.55 42.26 40.93 39.46 36.89 33.66 33.87 37.20 39.88 38.23 36.91 34.83 33.51 34.29 35.42 36.40 36.23 35.01 34.58 34.12 34.65 36.50 37.01 36.45 32.08 28.53 29.59 31.67 34.07 34.94 35.68 36.08 36.18 37.13 39.24 40.90 45.65 37.62 46.08 43.87 46.77 44.35 44.54 43.86 41.77
38.52 37.91 35.16 35.32 33.90 37.82 39.87 39.89 40.01 40.30 40.98 37.77 38.09 35.95 32.55 32.55 34.12 35.30 35.37 35.63 35.31 34.24 33.25 33.31 34.65 35.50 34.51 33.86 33.40 32.62 31.84 35.44 34.73 33.73 33.15 34.72 35.18 35.22 35.66 36.18 37.02 36.84 36.59 36.85 37.55 39.93 43.32 45.17 46.09 44.35 43.49 41.65 40.94 40.94
37.59 35.82 34.45 30.96 34.05 39.71 40.55 38.54 37.67 36.31 34.57 33.74 33.45 34.20 33.25 31.94 29.85 30.48 32.93 33.90 32.53 30.46 29.37 30.93 31.27 32.38 35.19 35.41 35.58 35.71 31.18 35.64 34.54 32.94 31.52 33.16 33.95 34.91 36.17 36.80 37.18 37.20 36.19 35.04 33.13 34.66 35.95 35.43 36.91 39.00 40.44 40.08 39.54 39.90
35.80 36.54 35.60 35.37 34.51 33.45 37.22 36.70 34.48 32.84 33.20 32.71 32.92 33.60 33.92 32.44 27.81 30.82 33.68 34.11 32.50 31.04 31.21 32.69 34.29 34.81 35.42 34.80 34.25 34.78 33.64 35.75 33.33 29.57 29.81 29.71 29.64 30.54 34.00 34.60 36.87 35.14 34.35 34.29 33.79 32.86 30.98 30.38 30.63 31.32 31.68 32.60 33.75 35.01

GFSWCAN_sfc_wetblb_036.txt.gz
Wetbulb
49.86 49.70 49.81 50.31 49.86 48.48 47.30 46.59 45.74 45.61 45.57 45.57 45.83 46.18 46.38 46.58 46.34 45.97 45.68 50.07 46.52 41.14 42.93 45.15 45.77 42.90 43.51 41.02 36.34 40.86 40.09 40.60 41.27 38.36 38.28 37.55 36.79 38.18 37.82 39.34 35.00 33.76 32.48 33.55 33.50 30.88 28.62 42.53 40.30 35.38 40.08 42.04 41.99 43.14
49.65 49.63 49.96 49.87 48.70 47.45 46.61 45.67 45.50 45.22 45.10 45.17 45.39 45.69 46.33 47.54 47.80 47.05 42.56 48.99 50.82 46.02 44.20 48.39 46.82 47.96 46.77 46.06 42.59 42.20 40.44 39.29 40.84 39.44 38.11 38.49 37.04 38.58 37.38 32.87 40.14 32.85 33.40 33.03 32.67 34.18 42.01 42.40 40.07 42.05 42.05 40.65 43.03 43.34
49.55 49.69 50.11 48.46 47.29 46.48 45.78 45.16 45.11 44.85 44.88 44.84 45.39 45.63 46.60 47.50 47.94 47.42 45.17 46.60 45.99 42.80 42.21 44.58 45.55 51.68 52.21 51.14 50.76 40.83 42.06 43.30 43.30 44.43 39.30 38.16 34.98 40.39 34.94 37.10 38.62 39.40 41.41 33.76 34.48 39.53 38.56 41.41 42.34 41.80 42.45 43.46 47.89 47.30
49.47 49.72 49.17 47.44 46.33 45.46 44.89 44.67 44.46 44.41 44.37 44.76 45.14 45.62 46.57 47.42 46.86 46.51 44.02 46.48 45.56 43.09 36.04 42.93 51.58 49.24 52.14 52.43 51.07 49.24 47.30 47.79 46.34 45.48 39.97 37.47 35.11 42.19 38.61 40.69 39.00 40.44 41.91 39.28 38.32 39.70 40.44 41.86 41.31 41.57 42.15 45.62 46.91 48.64
49.43 49.51 47.89 46.38 45.20 44.62 44.34 44.21 44.17 44.31 44.73 44.88 45.57 45.78 46.28 46.13 46.53 46.22 46.35 47.13 47.84 41.06 37.49 39.52 45.00 49.97 53.20 50.93 49.86 50.08 48.42 46.36 44.77 40.52 38.27 36.72 40.42 40.97 43.41 43.40 40.19 42.94 39.89 37.22 35.12 40.57 40.65 40.22 42.11 42.81 42.58 44.62 45.72 46.60
49.30 48.33 46.64 45.32 44.39 44.02 43.83 43.92 44.02 44.31 44.44 45.05 45.93 46.13 46.43 46.13 46.12 45.05 43.43 49.43 49.47 47.20 37.72 34.16 46.62 47.18 49.88 51.09 49.18 47.18 46.73 46.08 44.03 40.07 38.68 40.66 45.48 42.14 38.64 38.45 43.07 45.04 45.61 44.41 40.96 44.21 42.99 43.38 43.54 44.43 44.73 44.99 45.69 45.99
48.66 47.04 45.36 44.17 43.90 43.68 43.63 43.53 43.73 43.95 44.48 45.03 45.81 45.88 45.79 46.57 45.95 43.77 43.13 45.49 48.39 47.20 38.28 35.22 38.78 48.36 50.47 49.57 49.17 47.55 47.93 45.17 43.29 40.49 38.68 39.72 43.83 44.84 41.78 37.95 44.25 44.87 46.17 45.74 45.78 44.35 41.68 42.70 41.62 44.68 45.93 44.79 45.63 45.41
47.40 45.72 44.19 43.58 43.62 43.45 43.03 43.26 43.55 44.07 44.46 45.18 45.44 45.80 46.94 46.93 47.13 44.73 49.10 48.80 49.01 43.99 41.49 35.28 38.02 43.60 50.65 46.13 45.86 49.63 44.29 44.68 43.04 41.25 42.80 41.74 45.08 46.02 40.26 44.72 45.58 45.89 46.27 45.17 43.91 44.66 44.22 45.17 45.09 43.37 44.68 44.15 43.30 43.12
46.06 44.77 43.43 43.21 43.33 43.01 42.91 43.20 43.73 44.24 45.24 45.60 46.00 46.72 47.66 46.78 44.86 46.69 48.59 49.56 49.71 43.68 37.00 36.97 35.47 36.87 47.69 46.90 46.98 46.16 46.50 39.41 43.98 38.81 40.61 44.80 43.11 39.64 44.26 44.83 45.59 46.02 44.47 43.54 44.07 44.41 44.58 44.19 44.10 42.66 42.79 42.50 42.22 42.05
45.17 43.71 42.99 42.84 42.58 42.65 43.01 44.05 44.24 44.22 45.27 46.10 46.44 46.59 42.74 44.47 48.67 47.36 44.89 43.18 40.70 41.05 39.51 35.47 41.83 37.85 43.03 42.84 43.66 45.39 45.91 42.10 39.26 42.66 46.25 42.84 42.36 48.11 47.12 48.40 47.65 47.60 46.96 45.40 41.42 41.08 42.40 43.25 43.68 42.83 41.90 42.43 42.56 42.30
44.19 43.16 42.72 42.28 42.25 42.40 43.38 43.68 43.77 44.51 45.21 44.83 41.83 42.29 46.13 48.75 44.98 43.64 40.64 38.74 37.57 34.61 38.34 40.32 41.84 40.14 46.96 41.32 41.58 46.52 43.42 44.74 38.25 42.12 41.89 41.76 40.04 45.08 48.05 48.50 48.80 49.02 48.08 46.25 44.66 44.49 44.43 45.10 43.79 44.09 42.30 42.26 42.90 42.37
43.56 42.97 42.21 41.88 41.83 42.45 42.90 43.45 43.46 43.64 43.02 41.34 40.61 44.39 45.91 44.30 41.86 38.11 38.71 41.35 40.00 37.61 40.16 40.60 42.00 43.49 43.31 46.93 42.33 45.03 41.64 42.92 37.21 46.12 41.74 37.35 38.68 48.45 48.85 48.33 49.19 48.78 48.44 46.15 44.68 43.62 44.29 45.46 45.65 44.93 44.66 43.17 43.20 43.15
43.01 42.41 41.83 41.60 41.93 42.53 42.81 43.38 43.28 43.49 44.09 46.66 42.37 38.51 40.66 40.31 33.23 33.69 32.89 36.11 35.87 38.19 42.00 41.48 40.70 45.02 44.35 44.61 41.95 41.14 38.59 39.48 46.51 41.34 39.24 41.78 47.36 48.70 49.08 49.16 49.27 49.30 49.07 46.75 44.89 44.70 45.02 45.26 45.98 45.41 45.39 44.86 44.17 43.96
42.33 41.88 41.35 41.50 42.09 43.06 43.18 42.92 43.27 43.83 43.57 41.89 37.79 31.46 35.07 35.28 36.96 38.28 38.12 38.40 41.37 42.37 42.05 40.92 40.13 42.14 45.33 40.86 37.51 34.65 40.71 42.88 37.20 35.95 37.08 41.33 47.65 48.35 49.75 49.90 49.43 48.42 48.69 46.81 45.86 44.59 44.79 44.77 44.97 45.56 45.63 46.65 45.40 43.19
41.81 41.48 41.53 41.72 42.97 42.23 42.41 43.15 43.61 45.06 43.52 38.57 38.75 29.76 36.04 39.83 40.19 40.14 40.76 39.67 40.76 42.93 41.33 39.65 40.32 41.23 41.08 38.42 35.89 35.77 35.17 34.92 38.32 38.63 42.20 46.27 49.79 49.82 49.73 50.01 48.40 48.98 48.78 47.78 47.00 45.72 45.00 45.41 45.34 44.90 45.49 46.41 46.51 44.69
41.21 41.14 41.61 42.63 41.21 42.17 43.00 44.28 46.02 46.07 43.54 39.68 37.99 35.62 38.84 37.51 37.36 38.31 38.46 37.93 41.19 39.68 40.81 40.59 38.15 37.73 37.47 38.32 33.56 35.14 34.98 34.65 38.11 43.14 46.18 49.44 50.10 50.06 50.70 51.12 49.25 49.08 49.77 49.11 47.77 47.05 45.81 45.50 44.65 45.32 45.78 44.90 45.34 46.27
40.69 40.99 42.81 41.69 42.44 42.99 43.52 43.98 44.79 39.97 38.92 37.00 37.66 40.86 39.54 38.15 37.00 37.50 37.98 38.48 41.54 38.75 35.40 37.13 32.16 33.91 38.42 33.01 35.57 33.17 31.52 33.35 40.05 40.59 47.58 49.74 49.82 50.40 49.91 50.69 51.19 50.51 50.40 49.52 49.41 48.32 47.16 47.46 47.23 45.97 44.44 45.03 44.94 45.09
40.54 42.69 42.83 41.71 42.30 45.24 45.76 44.66 42.39 39.41 35.72 38.99 37.01 38.50 39.69 40.15 38.34 38.83 39.61 40.69 39.28 36.89 37.48 34.17 38.01 32.26 31.12 30.01 31.72 34.29 39.27 42.24 44.04 44.77 46.86 48.86 50.06 50.08 49.81 49.02 48.91 51.52 50.61 50.08 49.93 50.14 49.08 47.95 46.32 45.74 46.71 47.10 46.01 45.62
41.50 43.89 41.50 41.28 41.81 41.86 41.21 41.21 43.09 36.58 38.23 39.96 40.66 40.70 40.39 40.20 41.62 41.62 41.34 42.18 42.44 41.80 39.46 37.66 34.00 32.33 33.91 35.13 35.45 36.85 39.68 41.58 41.90 43.76 46.57 48.45 48.87 49.89 49.94 48.59 48.69 50.16 50.65 50.79 50.85 49.71 50.71 50.71 49.14 48.06 47.43 47.19 45.79 45.92
41.22 41.34 41.47 41.03 40.86 42.57 37.69 40.07 44.06 38.61 36.54 39.25 40.74 39.27 39.71 39.87 41.59 42.10 42.01 41.82 41.50 37.74 36.30 34.08 30.38 32.15 33.74 36.08 40.16 40.77 41.17 42.41 42.61 41.00 42.27 44.73 47.01 48.80 50.10 49.18 48.30 47.80 49.03 52.55 51.67 47.51 51.25 49.46 49.84 49.60 48.14 46.84 45.77 45.24
40.13 43.19 41.87 42.07 43.63 43.42 41.32 40.50 39.21 40.84 40.18 38.61 41.23 40.05 39.74 41.04 39.98 38.43 37.33 40.03 36.25 33.03 30.87 31.86 32.15 34.57 37.68 39.33 40.71 41.77 39.61 39.79 40.01 40.60 41.29 42.20 45.44 46.76 49.69 49.70 48.60 49.12 48.88 48.56 49.94 49.34 48.14 49.90 50.91 49.80 48.32 47.49 47.12 46.76
42.73 41.48 44.13 42.68 41.48 40.76 39.78 42.68 40.03 42.04 39.83 40.35 39.66 41.02 38.04 35.90 36.48 37.05 38.83 34.29 32.81 33.09 34.22 34.11 34.92 36.23 36.84 37.73 38.45 39.11 38.29 38.35 39.50 39.57 39.86 41.16 42.93 44.47 46.46 48.88 48.83 48.45 47.64 48.76 49.08 50.33 50.68 50.64 51.57 50.57 50.00 47.93 46.88 46.30
40.33 42.08 42.23 41.38 36.80 35.83 34.05 43.39 37.87 39.26 34.56 36.71 38.88 36.48 36.68 36.61 38.41 41.88 34.26 35.31 34.76 36.84 36.58 36.33 36.87 38.02 37.91 39.08 38.65 37.81 37.28 36.25 34.92 35.21 36.46 38.45 41.93 44.77 46.40 47.86 49.03 49.33 47.56 50.50 51.28 49.54 48.57 45.90 47.14 50.18 49.87 48.52 47.20 45.52
38.82 39.25 36.57 35.95 35.83 33.05 38.87 37.10 39.35 37.20 37.46 35.47 34.65 32.63 34.63 36.92 39.95 36.68 31.74 33.53 34.61 36.45 35.96 35.89 36.35 35.43 37.14 36.95 34.46 34.96 35.98 36.28 35.75 36.08 36.21 36.93 38.55 41.07 43.24 45.36 47.37 49.40 49.87 49.99 50.53 50.70 50.31 49.36 47.76 49.47 49.75 48.95 47.17 45.36
32.69 31.22 33.60 31.23 37.37 34.82 33.20 33.79 34.41 34.28 31.93 34.05 32.80 33.20 35.88 39.70 33.80 31.96 28.69 33.39 33.27 33.62 34.21 35.29 35.28 35.15 34.64 35.17 35.29 35.85 37.24 37.19 36.02 34.23 36.31 36.55 38.07 37.53 37.90 40.04 42.81 45.22 44.05 43.32 44.49 46.84 50.45 50.61 49.80 51.71 50.01 49.56 47.74 46.16
27.62 32.36 31.48 32.92 34.34 33.66 33.51 31.19 31.31 31.82 33.84 33.06 33.85 37.03 38.82 35.49 29.68 27.60 31.52 34.10 32.97 34.02 34.32 34.44 34.60 34.44 34.70 36.45 35.88 36.05 36.80 39.13 38.83 36.20 36.66 35.91 35.51 34.19 32.13 33.16 34.08 36.76 40.06 39.16 41.51 42.95 46.25 50.42 49.70 50.84 50.31 48.66 40.35 46.68
27.47 29.56 35.17 40.27 39.20 38.31 36.10 36.53 37.61 34.79 32.02 31.53 34.45 34.02 33.90 28.02 27.97 32.29 35.15 34.63 33.71 35.12 37.10 37.42 36.82 35.84 35.60 36.07 37.01 38.17 38.77 39.17 38.04 37.46 39.17 38.93 38.06 37.88 35.84 32.89 32.16 34.67 36.72 38.14 41.12 42.79 43.26 46.85 49.95 48.84 49.72 50.37 50.00 48.89
31.74 35.16 32.36 36.03 36.97 38.33 33.45 34.20 33.17 32.51 34.05 37.41 36.58 31.73 29.18 29.50 30.88 34.51 35.57 37.45 38.42 38.24 38.48 38.91 39.28 38.93 38.07 38.11 38.28 37.77 36.92 37.09 37.54 37.83 38.32 38.05 38.61 38.28 37.04 36.94 37.51 34.32 37.08 38.18 38.47 40.41 42.82 45.01 47.50 48.31 50.00 50.37 48.99 49.77
33.58 37.72 38.36 33.49 34.39 33.69 34.14 33.74 34.36 37.08 40.07 38.65 34.85 33.80 33.57 35.82 34.91 36.19 37.24 38.08 39.42 37.33 35.75 35.98 37.17 39.11 38.97 38.85 38.39 37.81 36.63 34.40 31.55 29.66 29.61 31.09 32.98 34.32 36.55 36.52 36.95 37.59 37.69 37.38 35.35 36.38 40.36 41.96 45.66 49.47 48.63 49.97 50.81 49.65
34.25 39.26 35.43 34.87 31.63 31.09 36.09 39.02 39.28 41.13 41.18 40.80 39.29 36.79 35.42 35.04 37.01 39.41 37.95 37.37 36.06 34.75 35.52 36.32 36.58 36.60 35.59 35.44 35.19 35.77 37.36 36.83 35.87 32.53 28.76 29.85 32.73 36.13 36.04 36.00 36.08 36.45 36.57 37.14 36.18 37.62 37.01 42.43 44.41 47.45 47.53 47.73 44.46 41.26
38.87 38.26 35.73 35.28 34.28 37.68 40.16 41.76 42.09 41.45 40.76 39.56 39.46 36.43 33.52 34.12 35.14 36.68 36.05 36.74 36.87 35.22 34.32 33.80 34.50 34.95 34.50 34.24 33.58 32.72 31.91 36.01 35.01 33.53 33.22 33.39 34.38 34.83 36.02 36.21 36.79 36.52 35.85 36.12 35.77 34.84 37.14 37.62 40.52 43.62 45.05 43.31 42.97 42.92
37.55 35.91 35.23 32.91 35.15 39.65 41.41 39.47 38.01 36.76 36.25 35.83 35.20 35.78 34.52 32.34 29.87 32.05 34.47 34.74 33.04 31.23 29.89 31.79 31.70 32.22 35.02 35.72 35.80 36.03 31.38 35.39 33.73 32.85 32.04 31.94 32.75 33.89 35.66 35.89 36.57 35.97 34.51 33.45 33.33 33.10 33.26 32.60 33.27 35.32 36.30 37.06 37.75 37.55
37.20 37.61 37.14 35.98 35.24 35.73 38.27 37.45 35.47 34.31 34.87 34.16 33.84 34.52 34.26 33.51 28.55 30.96 34.23 34.61 33.11 31.77 32.22 33.43 35.20 35.33 35.43 35.17 34.79 35.08 33.98 35.97 33.00 29.69 30.18 30.23 29.74 29.90 32.52 33.33 34.68 34.74 33.20 32.09 31.54 30.94 30.72 30.37 30.05 29.34 29.80 30.70 31.14 32.28

GFSWCAN_sfc_wetblb_042.txt.gz
Wetbulb
48.75 48.72 49.62 49.81 49.82 50.09 49.67 48.24 47.40 46.35 45.86 45.90 45.94 46.14 46.06 46.15 46.41 44.61 39.86 40.63 37.44 35.74 35.70 37.82 38.15 34.59 34.20 34.53 32.73 33.45 33.65 34.76 32.32 29.98 33.45 31.13 29.02 32.58 29.87 32.40 23.69 25.91 26.97 27.96 31.47 28.38 24.17 39.94 38.02 32.92 36.98 40.20 40.67 39.96
48.57 48.57 49.41 49.76 49.84 49.97 48.77 47.48 46.63 45.87 45.71 45.47 45.69 45.71 46.13 45.82 45.98 46.43 38.87 41.50 41.87 37.16 35.31 39.99 40.10 41.12 39.86 39.63 36.46 33.21 35.53 36.78 37.48 34.31 36.07 35.48 32.65 32.78 30.19 24.38 34.71 28.88 33.37 31.95 32.12 30.46 37.62 40.16 37.49 40.14 42.27 40.38 40.04 40.22
48.59 48.97 49.51 49.55 49.52 49.75 48.05 46.88 45.93 45.53 45.21 45.31 45.33 45.81 45.98 45.94 45.76 45.08 41.64 40.10 37.66 35.80 34.62 33.84 35.48 40.63 42.36 42.10 44.00 35.26 36.97 39.56 39.19 41.64 38.38 37.17 32.90 35.64 29.78 31.37 33.77 38.08 40.33 33.58 34.13 36.92 36.40 38.05 41.49 42.95 43.37 42.04 42.98 43.90
48.32 48.63 49.51 49.49 49.73 48.89 47.38 46.16 45.48 45.13 44.91 45.21 45.30 45.60 45.61 46.09 46.01 46.20 41.45 40.29 39.81 37.41 31.62 31.74 41.38 40.00 43.79 42.47 42.79 43.43 42.84 44.24 41.99 42.88 39.14 36.67 33.72 37.96 34.33 35.44 33.49 36.70 38.38 37.57 36.18 39.02 39.43 39.53 40.42 42.00 42.78 43.25 43.53 45.35
48.13 48.58 49.40 49.57 49.57 48.29 46.65 45.45 45.05 44.77 44.77 44.92 45.41 45.63 45.79 45.93 45.40 44.62 41.86 40.51 40.68 37.05 30.13 32.22 38.29 40.02 42.43 41.87 44.14 43.59 42.44 41.68 40.84 39.55 38.15 35.90 38.68 37.62 38.10 37.92 35.63 41.20 39.44 36.40 34.42 40.53 37.68 38.58 41.79 43.67 42.48 42.72 44.00 44.19
47.73 48.48 49.14 49.41 49.33 47.47 45.83 44.79 44.69 44.71 44.69 45.06 45.34 45.62 45.71 45.74 45.83 41.15 34.84 45.34 42.03 41.57 36.61 30.21 36.16 38.16 41.86 45.28 44.54 43.03 43.08 42.20 42.68 40.79 39.34 39.60 41.73 38.07 34.62 34.13 40.58 43.97 45.14 43.26 40.87 42.69 40.48 42.38 43.27 43.14 42.19 43.61 44.19 44.37
47.84 48.54 49.12 49.38 48.74 46.74 44.95 44.55 44.72 44.47 44.55 45.29 45.64 45.64 45.80 45.80 42.14 37.89 36.15 41.03 45.25 44.71 37.88 32.55 32.94 37.41 42.51 45.26 46.18 44.01 43.75 44.18 43.31 41.00 38.79 39.40 39.97 40.27 37.33 33.97 41.43 44.00 44.45 43.72 43.78 41.90 40.45 42.44 40.41 42.60 43.65 43.49 44.43 44.77
47.97 48.71 48.90 49.06 47.51 45.52 44.26 44.21 44.14 44.26 44.93 45.13 45.03 45.39 45.92 46.43 45.20 41.82 42.03 47.02 46.28 42.00 40.98 33.26 32.78 34.00 41.49 37.13 38.65 45.77 42.88 43.36 42.34 41.01 40.84 38.98 40.33 40.07 36.25 41.95 43.82 44.06 42.75 41.99 41.31 41.62 42.38 44.19 42.49 42.54 43.72 43.33 42.19 41.88
47.98 48.57 49.04 48.36 46.34 44.57 43.80 43.70 43.79 44.30 44.83 45.46 46.02 46.71 44.04 41.77 41.42 43.66 49.27 48.88 47.36 41.74 35.13 35.05 31.59 28.63 39.42 37.34 38.87 39.14 43.33 38.79 42.65 38.13 38.62 40.05 38.24 35.43 41.48 41.92 42.94 40.88 38.81 39.52 41.41 40.75 41.41 42.23 41.61 41.63 42.03 41.52 40.83 40.87
47.98 48.74 48.70 47.42 45.38 43.72 43.20 43.23 43.62 44.23 44.64 45.86 44.49 40.70 39.99 43.13 50.69 47.44 43.26 41.62 39.94 40.34 39.15 33.71 37.15 34.18 39.05 39.10 38.81 38.38 38.96 39.14 35.42 38.91 42.13 37.87 37.06 44.00 45.11 44.46 44.20 41.62 41.60 40.56 38.41 37.83 38.32 41.50 41.09 41.26 41.16 41.47 41.39 41.32
48.17 48.65 48.16 46.50 44.60 43.15 42.78 42.68 43.52 44.20 43.90 37.65 33.84 34.54 38.17 44.14 38.72 36.00 34.04 36.94 36.28 34.02 36.27 36.44 36.45 36.15 40.25 37.61 36.70 39.30 34.99 36.56 34.80 35.80 38.68 37.58 34.00 42.07 45.86 44.59 43.36 41.89 41.45 40.66 40.66 41.18 40.90 42.50 41.90 41.63 41.81 42.18 41.63 40.64
48.49 48.45 47.25 45.34 43.74 42.86 42.17 42.51 43.33 40.33 38.02 38.16 37.53 39.11 37.89 37.99 36.51 33.47 32.43 38.56 34.81 34.41 36.85 36.26 35.72 37.21 37.65 40.15 39.86 37.11 34.37 37.32 32.01 41.65 38.82 33.31 39.37 44.85 46.37 46.17 41.54 40.41 40.78 40.66 41.15 41.64 41.87 42.88 43.31 42.64 42.53 41.96 41.71 42.03
48.46 47.66 45.88 44.43 43.19 42.54 42.03 42.53 43.55 43.01 42.60 40.78 38.28 35.65 35.47 34.57 26.22 31.90 28.38 29.24 28.23 33.80 35.45 33.50 30.82 34.16 38.11 36.92 33.98 36.48 33.91 33.77 38.24 31.59 35.99 36.43 38.27 42.54 43.60 46.17 42.24 41.28 41.22 41.07 41.00 41.91 42.37 42.22 43.69 43.10 41.92 42.78 42.32 40.85
48.12 46.48 44.95 43.45 42.80 42.15 42.15 42.81 42.65 42.02 39.08 37.30 36.21 23.10 30.17 30.85 32.30 31.40 28.75 29.42 32.86 32.47 32.29 31.38 30.15 30.22 33.14 31.52 33.63 31.47 35.17 34.37 30.91 29.57 30.03 34.03 35.63 37.86 40.72 47.46 44.28 41.51 40.74 40.60 40.98 41.61 41.23 41.36 40.98 43.05 42.48 42.78 42.00 39.70
46.61 45.02 43.60 42.81 42.61 42.21 42.53 43.01 42.49 41.10 38.56 35.99 34.34 23.39 30.53 33.66 32.81 32.21 32.31 31.15 32.42 32.41 30.74 29.87 29.62 30.39 29.28 30.51 35.26 33.95 31.91 29.21 30.70 28.04 31.80 33.61 34.46 39.12 47.11 47.55 46.91 44.09 40.85 40.46 40.68 40.83 41.09 41.02 40.31 40.16 41.63 41.60 42.55 40.92
44.58 42.63 40.65 41.84 42.26 42.42 43.40 42.55 41.78 40.96 39.84 36.46 34.14 30.93 32.37 30.58 29.80 30.39 30.28 29.82 32.75 31.70 31.65 30.68 29.70 29.76 31.74 32.78 31.23 28.33 26.32 25.12 28.43 32.22 33.99 36.35 38.11 41.10 46.05 46.82 46.57 47.25 42.77 41.14 40.92 41.52 41.86 41.08 40.16 39.87 41.89 42.31 41.88 41.28
41.46 38.06 42.88 42.56 43.63 43.51 42.37 40.06 41.37 38.92 36.23 35.41 31.96 34.19 31.76 30.57 29.51 29.63 30.67 31.69 33.40 31.22 27.23 29.78 27.98 28.60 33.41 29.28 27.79 30.37 27.98 31.27 34.14 36.22 37.36 38.58 38.81 39.11 44.27 47.37 48.13 46.94 47.46 43.79 41.95 41.85 41.65 41.91 41.66 40.51 39.40 41.13 42.00 42.43
38.83 40.31 43.45 43.95 42.47 41.79 40.83 39.66 39.07 37.51 33.18 33.18 30.31 31.86 31.76 32.19 31.82 32.76 34.06 35.00 34.23 32.83 31.44 28.48 34.30 27.54 27.20 24.39 25.57 30.67 32.93 36.22 36.30 35.48 36.17 37.70 37.99 38.70 39.72 45.56 48.16 47.61 47.05 48.42 45.61 42.68 41.73 41.21 39.66 38.98 39.62 40.85 41.10 40.60
41.16 42.64 44.41 43.21 40.93 39.82 39.26 39.37 39.54 33.08 33.85 34.09 34.03 33.08 32.71 33.92 34.60 35.44 34.74 35.50 36.54 35.79 33.17 30.78 27.62 25.57 27.07 31.29 30.92 32.51 34.86 33.83 32.32 33.27 34.84 35.74 36.32 36.54 39.33 42.27 46.31 47.78 48.00 46.70 45.53 45.57 42.37 41.77 41.20 40.45 40.25 39.50 38.79 40.16
42.29 42.26 42.85 41.95 40.53 38.16 37.56 35.94 39.03 33.57 31.15 33.44 33.57 31.97 32.33 32.82 33.65 33.45 32.72 32.78 32.30 31.44 28.68 28.30 27.83 29.68 30.50 32.47 35.21 35.70 34.72 34.31 33.03 31.89 32.73 34.22 35.42 35.72 37.13 40.77 43.01 46.82 47.47 47.75 47.19 44.78 46.12 40.67 41.44 41.53 40.39 39.50 38.44 38.39
39.72 40.55 41.79 39.80 37.50 38.20 37.90 35.93 33.90 35.19 33.71 31.85 33.42 32.25 32.96 33.24 31.08 29.99 29.87 32.02 29.06 28.42 26.91 31.86 32.06 33.66 36.07 37.51 37.04 34.74 34.47 34.47 33.06 33.40 33.64 33.52 35.45 35.48 37.79 39.76 42.13 43.67 44.28 45.63 46.69 46.78 46.77 46.32 43.64 40.06 40.99 39.88 39.19 39.37
39.69 42.80 39.48 39.88 37.84 39.60 35.48 36.86 34.59 35.56 33.01 32.61 32.39 32.89 31.02 28.71 29.62 29.70 31.86 28.47 27.70 31.73 32.54 33.08 34.04 35.25 36.40 33.44 34.98 35.79 35.56 35.67 36.24 36.46 35.95 36.03 35.46 34.22 33.68 36.93 38.24 39.08 38.93 38.85 40.47 42.57 46.87 49.04 48.07 43.81 40.79 40.06 39.79 39.56
41.88 40.52 38.14 39.61 35.79 33.13 31.12 37.47 31.99 33.73 30.36 31.31 31.32 31.37 30.11 29.97 31.73 34.04 27.68 25.97 25.99 34.19 36.04 35.73 35.94 35.20 36.06 36.53 36.61 36.18 36.03 35.12 34.88 35.73 34.01 34.93 35.99 34.86 34.90 35.18 36.24 36.27 34.70 35.73 37.89 39.34 41.57 41.76 46.84 44.95 42.36 41.36 39.16 38.67
41.16 37.37 35.00 34.36 33.13 29.53 35.71 32.01 33.80 33.18 32.77 28.82 29.24 29.77 30.02 30.62 32.89 28.55 23.11 30.49 27.88 34.60 33.87 34.28 34.94 33.50 34.71 35.20 34.08 34.00 32.53 33.65 33.77 36.04 36.25 34.44 33.17 33.60 34.69 34.80 35.66 36.26 35.82 36.07 36.64 37.53 39.45 41.39 41.79 46.77 44.65 41.96 40.96 38.96
28.74 28.58 30.96 26.89 34.76 31.70 31.96 31.72 32.61 30.15 29.81 31.01 30.91 29.79 28.67 31.60 24.61 23.94 24.37 23.74 30.76 31.35 32.29 33.30 33.25 33.43 32.99 33.26 33.40 30.83 31.04 29.96 30.36 33.08 35.41 36.67 33.41 32.22 33.19 34.43 35.00 35.88 36.33 34.85 35.21 36.26 37.04 38.53 39.97 42.13 45.41 42.45 40.48 41.12
23.84 29.92 28.04 30.70 30.81 31.62 31.09 29.21 29.62 29.57 30.05 31.11 31.01 32.78 29.94 27.57 26.49 24.38 24.58 29.21 31.27 31.95 28.97 29.28 28.64 29.62 30.47 29.29 28.83 26.57 27.71 28.35 29.44 28.50 34.38 35.11 34.15 30.70 30.90 31.40 31.61 32.61 35.67 35.67 35.45 35.26 35.76 36.48 37.48 39.15 41.69 45.25 37.36 41.28
25.03 26.74 31.25 35.81 34.64 34.42 31.54 32.86 33.07 29.85 29.76 29.38 30.16 29.42 27.27 20.27 20.25 27.71 28.09 29.21 27.02 29.81 31.45 32.01 31.70 30.02 28.80 28.30 29.29 29.44 29.13 28.93 27.61 27.33 31.07 32.75 33.30 32.53 32.08 31.50 31.08 33.20 34.91 35.07 34.64 34.47 34.91 35.14 36.04 37.67 39.26 41.17 44.95 44.06
29.72 31.67 28.18 29.80 31.77 32.85 30.75 30.93 31.15 30.17 31.12 33.42 32.29 29.33 25.70 24.31 24.45 30.10 30.72 31.78 31.81 31.41 30.88 31.83 31.71 31.32 31.18 30.34 29.17 28.35 27.80 28.07 28.90 28.28 27.38 28.12 29.67 30.56 31.23 33.54 34.66 32.86 33.92 33.93 33.51 33.58 33.73 33.45 33.97 35.47 36.95 38.19 40.48 45.93
30.02 32.00 32.56 29.68 31.19 31.40 32.21 31.40 31.58 33.22 35.72 34.25 30.07 28.56 28.79 31.18 30.86 28.79 31.23 31.77 31.80 30.47 29.09 28.94 29.53 31.14 31.38 31.37 30.45 29.29 28.05 25.50 24.51 22.77 22.11 21.72 23.19 25.35 29.34 31.27 33.17 33.27 32.76 32.20 31.72 31.72 31.67 31.83 32.91 34.87 36.82 38.96 40.98 44.85
29.73 33.73 30.04 32.30 30.23 29.34 32.81 34.34 32.84 34.29 34.32 32.87 32.77 32.15 31.88 30.70 32.37 33.02 31.64 30.07 28.72 27.76 28.74 28.92 28.08 28.29 27.11 26.80 26.48 27.39 28.02 25.69 23.72 21.66 19.70 21.58 23.53 27.34 28.23 29.38 31.88 31.68 31.50 30.83 29.86 29.72 30.06 31.51 31.66 34.04 34.48 37.97 39.73 37.92
33.61 33.60 32.15 32.41 32.19 34.36 35.13 36.10 35.34 33.84 32.97 31.10 32.77 29.63 26.74 27.98 29.20 30.29 29.46 28.08 28.52 28.31 27.81 27.11 27.54 28.17 27.70 26.38 25.39 24.51 23.29 25.16 25.85 25.87 23.79 24.66 26.18 26.88 27.53 28.41 30.69 31.22 30.52 29.32 28.41 27.22 26.99 28.00 28.27 27.95 28.29 29.05 30.10 32.48
31.97 32.09 32.25 29.73 29.95 33.99 35.63 35.39 34.03 30.47 29.16 27.98 26.25 27.06 25.41 25.26 22.11 23.21 28.57 28.15 26.96 26.03 26.55 27.71 27.57 26.87 27.97 27.98 28.07 27.74 25.66 25.43 24.61 25.12 26.53 25.08 24.32 25.35 25.97 26.63 28.86 30.78 28.78 26.62 26.44 25.82 24.55 24.59 25.11 25.66 25.89 26.28 27.18 27.65
28.76 31.05 31.67 30.30 28.49 30.74 32.86 33.08 32.28 31.12 30.15 27.74 27.05 28.56 29.46 25.02 23.38 25.07 28.86 30.50 28.68 27.47 24.20 27.66 29.53 29.61 29.34 28.96 28.39 27.97 28.59 28.59 25.17 25.13 25.09 24.33 23.20 23.25 23.52 23.78 25.07 27.87 26.27 24.55 23.66 23.05 22.40 20.89 20.67 21.52 22.61 23.95 24.96 25.55

GFSWCAN_sfc_wetblb_045.txt.gz
Wetbulb
48.67 48.66 48.90 49.09 49.87 49.81 49.85 49.88 48.61 47.74 46.72 46.25 45.96 46.06 46.05 45.82 45.73 43.44 39.12 39.42 38.98 35.25 33.86 35.57 35.94 31.20 31.13 30.95 27.11 31.12 30.89 32.10 31.06 29.14 34.07 30.40 29.93 30.74 27.59 30.88 25.03 24.33 26.33 28.61 30.37 26.87 23.01 39.25 38.28 32.74 35.75 38.08 40.35 40.66
48.42 48.36 48.51 48.80 49.52 49.67 49.80 49.31 48.06 47.17 46.23 45.81 45.75 45.81 46.14 45.83 45.65 44.97 38.15 40.66 40.90 37.17 33.53 36.69 38.37 39.51 38.10 37.45 35.92 35.06 31.38 33.94 35.93 30.51 33.15 32.66 31.43 31.27 29.01 23.94 35.07 26.43 33.03 31.16 31.80 31.12 37.69 41.27 39.26 40.22 39.23 39.62 41.19 40.92
48.74 48.62 48.40 48.63 49.53 49.48 49.79 48.90 47.76 46.78 45.99 45.59 45.50 45.81 46.06 45.64 45.96 44.61 41.57 41.93 39.23 35.14 32.01 31.05 33.18 37.96 39.99 39.72 41.82 31.59 35.06 38.51 36.53 40.58 35.85 35.37 32.32 35.33 26.09 26.96 27.61 33.92 39.37 33.62 34.34 36.91 36.69 40.75 40.77 41.67 41.88 41.66 42.68 43.19
48.34 48.50 48.52 48.70 49.31 49.16 49.59 48.47 47.16 46.21 45.68 45.30 45.21 45.55 45.82 46.03 45.64 45.34 40.90 41.21 39.07 36.48 30.84 31.02 39.32 38.31 43.19 41.10 39.26 40.09 38.97 40.00 41.72 41.69 38.01 35.93 33.54 38.05 33.85 32.26 32.50 35.40 37.46 36.48 35.15 38.41 40.39 40.48 38.38 40.71 41.99 42.92 42.71 42.98
47.96 48.12 48.21 48.70 49.39 49.45 49.25 47.90 46.63 45.67 45.49 45.28 45.36 45.63 45.89 45.94 45.67 44.23 41.62 40.37 41.45 34.21 29.94 30.53 37.10 39.24 40.76 41.24 40.83 40.40 39.57 39.89 40.02 39.12 38.02 35.75 38.75 37.25 37.70 36.42 34.57 38.35 38.72 34.43 34.97 40.72 38.94 37.70 40.53 42.92 40.53 40.34 42.63 42.89
47.83 47.90 47.73 48.55 49.23 49.34 48.95 47.27 46.02 45.44 45.32 45.21 45.41 45.94 46.15 45.79 45.48 40.24 34.69 41.48 40.42 40.36 35.55 30.91 35.10 36.71 39.64 41.36 42.75 38.94 39.73 38.26 41.29 39.60 39.29 40.17 42.03 38.12 33.22 34.26 38.75 41.54 43.88 43.20 41.20 43.20 41.43 40.52 42.30 42.84 41.05 42.24 43.13 43.55
47.82 47.80 46.97 48.39 49.30 49.42 48.31 46.70 45.60 45.25 45.06 44.85 45.58 45.55 45.35 45.38 43.60 37.02 35.25 39.91 44.67 43.64 37.18 33.40 30.57 36.28 39.44 40.85 40.96 40.77 41.96 41.07 42.75 41.29 38.94 39.52 39.94 39.62 35.85 33.72 39.19 40.92 42.52 43.96 43.46 40.36 38.34 40.93 40.05 42.04 42.28 43.37 43.81 44.01
47.52 46.69 47.42 48.63 49.13 49.06 47.49 45.88 45.12 44.77 44.58 45.03 45.37 45.83 46.06 45.98 45.15 41.44 41.88 45.55 46.04 39.68 40.52 32.14 31.15 32.64 38.90 35.32 37.18 40.30 39.35 42.78 42.56 41.32 41.14 38.65 40.29 39.52 34.70 40.13 42.10 43.59 44.04 42.12 39.99 40.37 41.77 41.36 41.61 42.43 43.11 42.26 41.41 41.45
47.02 45.95 47.08 48.60 49.10 48.27 46.43 44.77 44.35 44.14 44.53 44.86 45.53 46.83 44.19 40.24 40.39 43.77 49.16 47.93 45.26 41.04 33.12 31.80 31.31 28.11 37.73 35.93 36.42 40.50 42.34 37.72 42.74 38.53 38.81 39.65 37.81 35.03 39.23 42.41 42.18 41.12 39.10 37.92 40.26 40.01 41.87 41.53 42.01 41.93 41.39 41.01 40.44 40.54
47.08 46.20 46.77 48.23 48.76 47.24 44.90 43.83 43.63 44.06 44.60 45.26 43.64 41.17 38.78 42.81 49.29 47.66 42.89 41.23 39.43 39.78 39.09 33.39 37.11 32.11 36.59 35.20 37.42 39.08 40.02 38.12 34.81 38.44 41.60 37.41 36.34 38.88 38.64 41.94 43.76 42.18 41.08 40.09 37.64 37.20 38.16 40.16 40.68 41.20 41.09 41.85 41.28 40.26
47.12 46.43 46.93 48.16 48.50 46.04 43.87 43.16 43.14 44.00 42.02 36.35 34.12 35.28 37.17 43.12 38.28 35.35 32.84 36.85 35.74 32.91 35.41 35.21 36.29 34.03 36.96 35.22 35.55 40.41 37.59 35.52 34.57 36.94 36.79 35.47 33.36 35.44 37.81 38.73 42.11 42.23 40.44 39.78 40.50 39.82 41.22 42.17 41.98 41.01 41.22 41.64 41.41 41.33
47.01 46.62 47.48 48.54 47.46 44.82 43.47 42.51 42.89 38.87 36.40 36.95 37.44 39.08 37.44 36.56 34.87 32.55 30.53 37.14 34.13 32.59 36.26 34.03 33.17 34.75 34.41 37.36 37.87 37.12 35.31 37.64 31.48 38.78 37.70 32.29 34.30 36.53 37.17 38.39 39.79 43.10 40.35 39.87 41.31 41.07 41.92 43.23 43.04 42.44 42.28 42.23 41.35 40.32
46.82 47.07 47.98 48.08 45.84 44.27 43.11 42.46 42.89 42.57 42.17 40.62 37.70 35.53 34.10 32.73 25.36 30.01 26.74 27.50 27.45 31.37 33.51 31.53 27.90 30.29 32.28 34.89 31.35 35.43 32.89 32.05 35.80 33.31 32.23 33.07 34.49 35.99 35.92 37.53 40.72 44.92 40.46 40.92 41.41 41.61 41.97 41.83 43.43 42.11 41.87 42.68 41.04 40.24
47.18 47.59 48.16 46.60 45.00 43.59 42.72 42.44 42.59 41.79 38.79 36.95 35.66 23.27 29.63 28.30 29.96 27.93 27.93 28.18 30.46 31.50 29.82 28.50 26.88 27.58 29.42 29.28 32.67 31.23 34.34 35.83 29.59 23.71 26.28 31.92 34.17 35.29 36.50 40.31 45.15 44.28 39.62 39.44 40.42 41.28 40.71 41.01 41.61 42.17 42.16 42.66 41.10 39.91
47.39 47.93 47.09 45.26 44.28 43.19 42.57 42.57 42.66 40.61 38.59 35.78 33.76 23.45 29.67 31.91 31.54 31.48 31.31 30.17 30.66 30.57 28.62 27.56 27.75 27.89 28.26 30.58 33.70 32.40 29.36 23.40 26.02 26.08 30.26 33.84 35.25 35.93 35.65 37.25 44.18 45.88 41.15 38.93 39.29 39.97 40.13 40.70 40.33 41.03 42.04 42.35 41.71 41.29
47.73 46.28 43.36 44.01 43.75 43.02 42.55 42.63 40.86 40.32 39.12 36.79 33.22 29.98 31.06 29.62 28.83 29.24 29.19 28.75 30.98 30.35 29.05 29.20 28.76 28.69 30.68 32.12 27.44 26.48 19.86 23.10 27.58 32.03 33.98 34.91 35.14 35.07 35.16 37.27 42.89 46.59 45.37 40.04 39.61 40.53 40.24 40.05 40.22 40.62 41.65 42.13 41.75 41.58
43.70 39.73 43.16 43.00 42.79 42.80 43.45 39.76 40.59 38.10 36.70 34.83 31.46 33.09 30.59 29.83 29.05 29.25 30.10 31.63 32.26 29.84 26.12 28.13 27.43 22.25 33.31 26.07 22.11 27.48 23.54 28.99 33.21 32.98 34.52 35.06 34.93 34.45 35.86 37.59 41.95 46.77 47.14 45.72 40.49 40.20 39.81 40.51 40.71 40.03 39.38 40.82 40.84 40.53
38.86 41.61 43.72 42.75 42.79 40.76 39.38 39.14 38.49 37.54 32.87 32.30 29.60 31.18 31.01 31.49 31.61 32.33 32.55 32.88 32.52 31.11 29.29 28.51 30.71 24.33 23.68 18.98 23.32 29.44 31.68 34.87 34.00 33.84 34.03 35.19 35.92 36.26 37.07 37.69 41.73 44.89 47.44 47.28 45.58 41.45 40.45 39.38 38.27 38.33 39.07 39.87 39.22 39.08
41.15 42.09 44.07 44.32 40.79 39.47 38.26 38.14 38.60 32.43 33.40 33.32 33.13 32.26 33.42 32.96 33.27 33.33 32.53 33.15 34.40 33.00 31.09 28.21 25.46 24.77 26.48 30.90 30.08 32.03 32.95 32.14 31.40 32.43 34.12 36.05 35.77 36.54 37.23 39.33 41.66 42.73 46.14 46.10 46.30 45.52 41.41 40.55 39.64 39.13 39.33 38.88 38.12 38.63
44.04 44.57 44.23 43.52 41.18 38.07 37.08 36.40 38.86 33.00 31.04 32.96 32.59 31.69 32.11 31.63 32.25 30.55 30.32 30.75 30.18 28.26 27.56 26.03 27.03 29.92 30.62 32.24 35.32 33.28 32.53 33.48 32.89 31.97 33.14 34.91 36.31 36.60 35.71 36.80 39.31 40.23 40.23 40.23 41.94 43.01 45.92 41.45 39.92 40.94 38.77 38.03 37.73 37.61
39.92 40.96 42.04 39.07 36.39 37.07 36.63 35.45 33.04 33.99 33.41 31.64 32.98 33.61 30.96 31.43 29.39 28.48 28.21 29.83 27.72 26.54 24.69 28.16 31.95 33.50 36.48 37.00 35.99 34.96 33.83 34.09 33.69 34.77 33.18 32.69 35.68 34.54 34.43 35.76 37.72 38.00 37.29 36.87 36.49 38.61 40.10 43.61 45.78 41.49 40.84 38.20 37.51 37.67
38.71 42.55 38.30 38.91 37.07 37.76 35.21 36.01 34.03 34.22 32.29 32.37 31.33 33.13 30.05 27.98 27.79 27.90 29.57 27.10 26.68 26.34 29.16 32.60 33.94 35.06 35.38 34.07 34.99 35.67 35.03 34.72 35.30 35.50 35.18 34.72 33.54 33.15 33.69 34.70 34.98 34.89 35.45 35.77 36.05 36.58 37.70 40.15 42.58 42.99 42.04 40.61 37.89 37.42
41.45 40.48 38.50 38.24 35.08 32.69 30.77 36.78 31.92 32.50 30.00 30.38 30.92 30.13 29.23 28.35 29.54 32.03 25.87 22.97 24.37 30.55 35.60 35.36 35.75 35.37 35.18 36.26 36.22 34.58 32.20 31.31 30.91 35.29 35.20 34.06 33.51 33.99 34.24 34.52 35.02 34.34 33.57 34.69 36.69 37.02 37.40 37.28 39.62 42.27 41.35 39.36 39.93 37.28
41.67 36.56 34.06 33.93 32.41 29.21 35.25 31.46 32.70 32.05 31.56 28.19 28.94 29.12 29.61 28.70 30.33 26.38 22.43 20.09 25.08 31.16 33.59 33.79 34.45 33.04 34.11 34.25 32.92 27.61 27.31 28.84 29.29 32.83 34.35 34.31 30.09 30.53 33.47 34.10 34.60 35.00 34.22 34.59 35.54 36.21 37.02 37.65 37.24 39.33 41.49 41.87 39.81 38.66
30.02 29.47 29.91 24.86 33.56 31.04 30.79 30.75 30.86 29.74 29.03 29.71 29.60 28.86 29.40 29.76 23.80 23.44 24.01 22.18 25.28 27.00 32.32 33.19 32.65 32.74 31.92 27.86 27.17 25.63 27.25 25.87 25.75 27.14 32.29 33.04 30.30 29.65 31.42 33.06 33.79 34.31 34.25 32.80 32.87 33.63 34.30 36.11 36.84 37.57 38.94 40.81 39.83 39.93
23.03 28.18 27.36 30.24 30.77 30.82 30.57 28.77 29.04 29.07 29.76 29.78 30.18 31.57 28.92 27.31 26.78 25.67 24.28 24.75 23.53 25.32 27.60 28.06 27.44 27.19 26.75 27.18 25.11 23.73 24.78 25.45 25.15 25.24 27.06 30.63 29.22 27.34 27.75 29.02 29.82 30.78 33.51 33.30 32.18 31.80 32.22 33.37 34.09 34.80 36.43 38.15 37.11 39.84
22.78 25.67 30.41 35.37 34.13 33.55 30.22 31.65 32.52 29.36 28.69 28.88 29.65 28.69 26.58 21.51 22.59 25.70 27.80 27.54 25.82 28.39 29.65 29.71 29.46 28.35 26.79 25.74 25.76 25.86 25.73 25.57 24.42 25.14 27.00 26.85 28.05 28.74 27.37 27.26 28.63 31.18 32.52 32.61 32.16 31.76 31.05 31.54 31.91 32.68 33.79 36.13 38.28 40.15
29.61 30.97 27.88 29.10 30.10 31.11 29.75 29.75 30.03 29.37 29.74 32.35 31.72 29.07 26.73 25.41 26.09 27.99 28.52 30.12 30.10 29.80 29.67 30.03 29.90 29.63 28.95 27.41 26.17 25.49 25.05 24.90 26.22 25.77 24.88 24.92 25.25 26.63 28.29 29.09 30.61 31.68 31.78 32.03 31.08 30.98 30.45 29.99 30.12 31.31 32.83 34.18 36.41 39.63
29.65 31.43 31.52 28.67 29.98 30.56 31.30 30.67 31.18 32.79 34.99 33.86 30.46 29.06 28.78 32.12 28.99 26.58 29.75 30.91 30.41 28.75 26.66 27.86 27.77 29.85 28.63 27.75 27.24 25.95 25.10 22.82 22.43 20.93 20.13 19.11 21.99 23.54 26.69 27.84 29.56 31.42 30.52 30.08 29.46 29.12 28.48 28.74 30.46 31.15 32.95 34.66 37.37 39.83
29.09 32.46 29.04 30.77 29.92 29.35 32.64 34.35 32.69 34.16 33.82 32.78 32.34 30.74 27.92 27.25 28.87 30.76 29.25 28.32 27.65 26.74 26.19 26.70 25.80 26.76 25.11 24.41 23.85 24.11 24.52 23.14 20.85 19.55 16.31 17.45 19.04 23.79 25.35 26.38 27.35 29.26 28.99 28.02 27.21 26.57 26.16 28.51 29.12 30.06 29.94 30.81 30.54 30.94
32.32 32.45 30.97 31.14 31.31 33.28 34.22 34.31 34.10 33.47 32.76 30.69 30.54 27.58 25.11 27.04 29.46 30.39 28.17 26.10 26.41 26.48 26.99 25.59 25.36 25.49 24.79 23.93 23.54 22.35 21.00 22.84 24.66 24.63 22.15 22.98 23.29 23.48 24.19 25.16 25.94 28.26 26.71 26.43 25.78 24.92 23.09 23.47 24.99 25.35 26.13 26.52 27.06 27.76
31.04 30.90 31.15 29.86 30.03 34.43 35.75 33.73 30.95 29.03 28.21 26.63 25.40 26.45 24.86 23.95 23.55 24.11 28.40 26.76 26.72 25.43 24.74 25.22 24.25 23.47 25.17 25.49 25.57 25.30 24.31 22.88 23.21 24.93 25.18 22.71 22.22 23.12 22.62 22.79 23.83 26.12 24.16 22.89 22.09 21.56 20.98 21.20 21.26 21.29 22.68 23.49 25.06 25.77
29.42 31.30 32.02 31.06 29.68 31.07 33.83 33.22 30.74 27.59 28.64 27.45 27.48 28.73 26.08 22.30 18.97 25.70 29.47 27.49 25.00 23.41 23.32 25.43 25.53 25.40 26.37 26.44 26.13 26.09 25.90 25.52 24.07 23.87 23.89 23.21 21.83 21.91 21.65 21.83 23.55 23.96 22.42 20.33 19.45 18.74 17.39 16.41 17.00 17.17 18.41 19.58 21.27 23.39

GFSWCAN_sfc_wetblb_048.txt.gz
Wetbulb
48.94 48.70 48.76 48.79 48.93 49.20 49.69 49.56 50.05 49.00 47.80 46.69 46.20 46.15 46.04 45.74 45.75 41.22 38.48 39.90 38.79 32.92 32.72 34.36 35.00 30.68 29.81 29.47 24.83 28.95 29.17 31.65 30.13 26.48 31.78 30.85 29.70 29.38 26.82 30.95 25.41 24.63 19.90 27.11 28.51 25.45 19.60 39.87 38.66 32.44 37.19 38.39 38.98 39.41
48.88 48.57 48.59 48.41 48.52 48.92 49.48 49.58 49.86 48.79 47.63 46.46 46.11 45.84 45.72 45.84 45.65 44.51 36.15 40.36 41.55 36.97 32.02 35.55 37.27 38.16 37.00 35.88 30.67 30.81 29.45 30.32 34.17 27.39 27.65 28.20 27.11 29.23 28.27 23.48 31.17 20.84 28.17 24.66 30.49 29.51 38.36 40.92 39.89 42.12 41.71 37.95 39.25 39.66
49.01 48.89 48.46 48.17 48.40 48.55 49.36 49.53 49.63 48.47 47.31 46.32 45.84 45.60 45.60 45.68 45.71 44.86 40.10 41.95 39.21 34.96 31.23 29.83 31.95 36.31 38.07 38.25 38.29 29.79 30.56 33.92 33.94 39.21 34.98 32.41 31.14 35.48 27.76 26.28 25.32 32.64 35.57 33.62 33.81 36.29 36.55 40.37 41.40 41.01 40.02 40.14 41.93 41.20
48.94 48.97 48.69 48.57 48.30 48.45 49.20 49.37 49.22 48.28 47.01 46.09 45.50 45.34 45.64 45.57 45.76 45.16 40.37 40.87 38.80 35.78 29.52 29.81 38.35 36.61 42.21 40.89 39.00 38.16 38.23 36.68 36.43 41.49 37.74 35.76 32.65 37.46 33.97 32.69 32.65 35.17 37.13 35.75 35.98 38.03 37.55 39.20 39.85 39.79 39.86 42.04 40.83 42.22
48.63 48.43 47.74 48.25 48.30 48.68 49.27 49.32 48.94 47.67 46.57 45.89 45.50 45.62 45.92 45.95 46.08 44.39 41.74 40.52 41.68 32.73 29.73 30.41 35.68 37.20 39.05 38.88 40.00 37.26 37.08 33.98 37.15 38.61 36.95 35.41 38.81 37.63 37.40 37.14 35.24 38.24 37.12 35.37 34.37 40.39 38.95 37.46 39.76 41.64 40.18 40.22 41.51 41.90
48.30 48.23 48.03 48.17 48.22 48.64 49.10 49.40 48.45 47.32 46.31 45.94 45.81 45.49 45.92 45.61 45.48 39.06 36.38 39.73 39.69 40.33 34.64 30.77 34.38 35.75 37.95 39.34 40.19 37.18 36.53 34.66 39.10 39.19 38.53 39.78 41.73 38.66 33.07 32.85 38.69 40.78 42.89 42.20 39.71 42.81 40.91 39.68 41.64 41.96 41.28 41.70 42.31 42.28
48.12 47.58 47.36 47.81 46.48 47.23 49.12 49.22 48.23 46.89 46.33 45.66 45.27 45.48 45.60 45.70 43.09 36.28 34.88 40.34 42.96 41.82 35.92 32.99 31.15 34.90 37.72 38.14 38.03 38.54 37.05 40.36 40.28 38.95 38.63 39.35 40.04 40.07 34.30 32.67 38.44 40.72 42.37 43.64 42.74 39.42 37.89 38.85 38.19 41.87 42.46 42.21 42.86 42.87
47.51 46.99 47.43 47.18 46.07 47.45 48.90 49.18 47.41 46.32 45.60 45.11 45.09 45.45 45.67 45.95 44.85 40.70 43.29 45.31 44.95 40.30 39.43 32.38 30.34 31.76 37.24 34.24 33.40 38.58 40.14 42.14 42.16 41.06 41.30 38.78 40.42 39.01 33.77 34.93 37.12 40.01 42.78 40.33 39.49 40.18 40.03 40.57 41.94 41.93 42.48 41.96 41.45 40.29
46.99 46.94 47.65 46.44 46.48 47.70 48.73 48.12 45.87 45.06 44.23 44.82 45.13 46.38 44.12 40.35 39.65 43.00 48.46 47.61 43.80 41.07 32.43 31.47 29.62 25.39 36.17 34.25 34.57 35.34 41.77 37.57 42.27 38.59 38.92 39.81 36.99 31.16 34.64 34.59 35.98 38.60 40.77 38.42 39.64 39.01 40.38 38.81 40.02 41.25 41.15 41.16 40.07 40.15
47.03 47.40 46.74 46.30 46.67 47.96 48.59 46.12 44.42 43.59 43.96 44.75 42.79 40.17 39.94 43.09 47.09 48.73 42.91 40.78 39.19 39.19 38.16 32.79 36.40 30.00 33.40 32.62 32.85 32.92 39.65 37.89 35.15 38.62 41.72 35.00 34.82 35.99 36.35 36.75 37.30 38.99 39.93 39.65 36.92 36.99 38.66 38.51 40.68 40.65 40.82 41.73 41.37 39.82
47.21 47.21 46.49 46.18 46.79 48.01 47.35 44.66 43.08 43.03 42.15 35.89 33.03 35.19 37.20 43.18 39.63 35.12 31.79 36.52 35.69 32.75 35.19 34.88 34.40 30.30 34.58 29.64 30.93 37.81 36.46 35.93 33.48 36.52 36.48 33.07 29.38 33.12 36.79 36.98 38.19 39.40 40.46 40.97 40.10 40.66 41.12 40.65 41.28 40.73 41.21 41.51 40.08 39.74
47.38 47.12 46.35 46.33 46.87 48.04 45.90 43.72 42.86 40.58 36.50 35.83 36.61 38.88 37.86 36.43 34.18 31.54 29.55 36.37 33.78 30.72 36.07 32.17 31.30 33.39 31.89 34.13 36.81 36.14 34.22 36.82 32.54 36.62 35.25 27.83 31.72 35.46 36.09 36.31 36.98 38.64 43.53 40.45 40.32 40.21 41.28 40.88 42.28 41.29 41.79 41.08 40.00 40.08
47.42 47.10 46.09 46.30 47.38 46.99 44.71 42.98 43.11 43.09 41.89 40.49 37.25 35.73 34.15 32.59 25.79 28.80 26.75 27.36 26.50 29.85 32.04 30.21 26.67 26.95 29.71 37.26 30.79 33.85 32.33 31.31 37.40 30.38 30.11 31.43 33.81 35.23 35.59 36.00 36.78 39.79 43.23 40.68 40.75 41.42 41.19 41.26 42.34 41.73 41.45 41.14 40.90 40.55
47.17 46.76 46.44 46.81 47.60 45.69 43.63 43.03 43.38 41.94 38.51 35.86 34.99 26.06 29.01 28.14 30.02 27.56 26.84 26.72 29.71 30.54 29.66 26.57 25.23 25.67 27.43 27.96 33.12 29.90 34.86 31.85 23.37 21.87 24.24 31.26 33.16 33.90 35.30 36.13 37.00 38.37 44.00 40.22 40.21 40.74 40.50 40.86 41.12 41.81 41.93 42.08 41.47 40.42
46.89 46.76 46.85 47.08 46.33 44.64 43.27 43.11 43.22 40.26 37.55 35.40 34.17 24.33 28.55 31.10 29.51 30.18 29.82 28.76 29.82 29.44 27.74 26.10 26.56 27.75 29.82 30.51 31.03 30.35 23.62 19.92 24.17 20.19 29.68 32.40 33.73 34.52 33.76 35.30 36.23 38.60 44.40 41.82 39.23 40.07 40.49 41.10 41.11 40.75 41.71 41.73 41.71 41.08
46.94 46.62 45.80 46.81 45.28 43.44 43.19 42.68 40.93 39.36 38.23 36.63 34.15 29.88 30.20 28.32 27.65 28.85 28.40 28.13 30.38 29.25 27.49 28.51 28.66 27.92 28.43 25.86 20.83 24.12 16.20 19.60 22.26 30.10 32.40 33.67 34.00 33.89 32.86 35.17 37.29 41.02 44.74 44.95 39.93 40.03 40.20 40.74 40.17 40.71 41.17 40.77 40.65 40.75
46.17 41.38 45.56 45.44 43.75 43.12 43.13 39.52 39.39 37.18 36.54 34.65 31.31 32.73 29.59 28.75 29.09 28.72 29.90 31.18 31.47 28.67 26.20 27.80 26.73 25.53 29.66 19.96 21.31 25.87 17.85 24.23 31.97 31.49 33.11 34.12 34.27 34.53 35.01 36.26 38.57 41.71 46.05 44.87 45.20 41.79 40.07 41.02 41.24 40.75 39.25 39.46 39.96 40.41
39.29 43.16 45.42 44.37 42.51 41.63 39.44 38.65 38.19 37.05 33.33 32.82 29.86 30.54 29.72 30.83 31.10 31.58 31.98 32.02 31.35 29.39 27.93 28.91 28.36 24.36 23.95 13.99 18.20 20.71 31.36 33.09 31.90 33.18 33.76 34.73 36.23 36.60 36.97 35.67 38.37 40.16 40.55 41.14 44.11 44.29 41.79 39.53 38.87 39.16 39.89 40.15 39.80 38.74
42.37 43.87 43.07 43.45 41.10 38.93 36.00 36.07 37.56 33.30 33.70 32.86 32.61 32.51 32.60 32.35 32.58 32.49 31.95 32.52 31.68 31.41 29.20 27.12 24.88 19.14 19.34 23.09 26.58 30.04 28.86 30.32 30.94 32.30 34.27 35.61 36.03 35.94 35.54 36.65 37.62 38.06 38.59 38.70 39.87 39.97 43.36 42.53 40.03 39.43 39.93 39.99 38.68 38.40
44.22 42.92 43.31 43.44 40.99 37.62 36.83 36.52 39.41 32.74 30.35 32.49 33.33 32.28 31.34 31.17 31.14 30.64 29.96 29.56 28.36 27.93 27.03 24.92 24.22 25.28 25.68 29.14 34.36 29.99 31.62 33.36 32.50 32.39 31.31 33.06 35.29 35.15 34.98 35.71 36.09 36.85 36.88 37.25 38.00 37.71 39.49 40.50 41.65 43.19 40.68 38.94 38.97 38.13
41.11 42.52 43.02 38.52 35.81 36.63 35.46 34.42 32.83 33.23 32.48 30.70 33.50 32.65 29.73 30.71 29.18 28.46 27.81 28.46 27.09 25.79 24.25 26.09 27.65 30.71 36.17 35.84 31.96 33.75 33.41 32.27 31.08 34.20 32.85 31.20 32.83 34.00 34.49 35.12 36.02 35.63 34.94 35.08 34.87 35.91 37.11 37.83 38.90 40.46 42.43 40.78 39.67 38.66
39.22 41.73 37.85 38.79 36.20 35.94 33.97 36.23 33.18 33.46 31.43 31.83 31.82 32.82 29.50 28.22 28.23 27.78 28.46 27.00 26.25 25.40 26.35 28.88 32.43 35.70 31.12 31.40 34.63 33.84 30.70 30.24 29.91 35.20 35.96 34.16 29.84 31.25 32.58 33.85 33.84 33.64 33.36 33.69 34.60 34.87 36.03 37.45 38.19 39.25 41.81 40.21 38.79 39.08
41.83 40.65 38.25 37.53 34.77 31.99 30.40 36.39 31.68 31.92 29.21 29.45 30.76 29.92 29.28 28.64 28.33 30.74 26.43 24.97 23.63 27.98 31.46 32.40 35.21 35.65 31.64 35.55 33.52 29.04 28.70 28.71 28.26 30.90 33.29 32.97 30.83 31.17 32.24 33.48 34.16 32.76 31.27 32.47 34.70 34.77 34.90 35.21 36.99 37.89 40.04 41.96 39.66 38.31
41.72 36.67 34.27 33.23 31.53 28.58 34.61 30.81 32.25 30.88 30.49 27.80 28.89 28.67 29.62 28.80 29.71 26.58 23.87 22.16 24.78 28.70 31.00 32.44 32.09 30.98 31.46 33.30 26.41 24.90 24.98 25.62 25.83 28.95 32.09 31.04 28.00 28.77 30.61 32.07 33.33 33.42 32.10 32.62 33.05 33.25 33.97 34.34 34.73 36.49 37.77 39.93 40.76 39.08
30.55 30.35 30.36 24.94 32.95 30.48 29.78 30.23 30.45 29.57 28.33 29.17 29.00 28.61 29.21 29.65 24.66 24.63 24.45 21.62 25.98 26.80 28.78 30.95 29.65 30.33 27.34 26.49 24.54 23.82 24.94 23.97 24.43 25.43 28.93 29.01 26.90 27.71 27.99 29.65 31.73 32.71 32.46 30.67 30.71 31.30 31.90 32.87 33.59 33.93 34.78 36.48 37.00 38.39
24.13 28.86 27.54 29.79 30.26 29.80 30.22 28.14 28.53 28.70 29.18 28.71 29.46 30.75 28.72 27.48 26.96 25.98 26.04 24.64 24.01 26.25 26.85 28.14 26.83 26.52 25.50 25.92 24.00 23.06 23.55 23.64 24.51 24.29 24.85 25.89 25.97 25.04 24.91 25.27 26.02 28.77 32.21 31.28 30.73 29.96 30.13 31.07 31.29 31.42 32.56 33.63 33.90 37.21
22.41 25.57 30.08 34.93 33.46 32.98 30.26 31.35 31.34 28.70 28.75 28.33 29.52 28.64 27.22 22.82 23.82 25.62 27.48 27.69 27.31 28.40 29.56 28.96 28.17 27.10 25.98 23.81 24.36 24.71 24.64 24.09 24.63 25.45 25.79 24.89 24.96 26.22 25.49 25.32 25.66 28.46 31.62 30.96 30.17 29.23 28.57 28.66 28.66 29.73 31.05 32.95 34.77 36.60
29.28 30.60 27.73 29.39 29.74 30.32 29.25 29.13 29.53 29.03 29.21 31.71 31.07 28.57 26.66 25.46 24.23 27.00 29.00 30.12 30.23 30.35 29.55 30.11 30.25 29.29 26.66 26.08 24.95 24.02 23.43 23.21 24.73 24.50 24.07 24.04 25.36 25.64 25.68 26.64 28.58 29.88 30.85 30.13 29.08 28.53 27.64 26.86 27.24 29.26 30.64 32.03 33.91 36.50
29.35 31.08 31.45 28.35 29.34 29.45 30.32 30.46 30.33 31.70 34.06 33.15 30.19 28.94 28.68 30.48 28.23 26.79 29.03 29.91 30.60 29.00 27.33 26.36 26.17 27.44 25.98 25.29 25.32 24.30 24.51 22.59 22.80 21.51 20.61 18.95 20.15 21.97 24.80 25.93 27.00 28.46 28.40 27.99 27.65 27.47 26.34 25.97 27.51 28.23 29.92 30.88 32.21 32.39
28.54 32.37 28.96 29.56 29.07 29.05 32.00 33.22 31.94 32.85 32.99 32.42 31.59 29.44 28.26 26.78 27.70 28.72 27.93 27.65 27.39 25.66 26.26 27.29 25.22 25.32 23.27 22.84 22.11 23.18 23.78 23.27 21.90 20.37 17.73 18.41 19.57 22.54 23.43 24.26 25.30 26.49 26.15 25.38 24.92 24.54 24.67 24.99 24.98 26.21 27.06 27.80 27.95 28.40
31.18 31.50 30.17 30.55 30.96 32.93 31.94 33.36 33.28 32.74 32.02 29.42 29.50 27.38 25.63 26.45 27.93 28.76 25.58 25.25 26.43 27.14 26.34 24.24 23.81 24.39 24.22 23.25 22.49 21.35 20.55 22.28 24.90 24.50 22.61 22.88 22.81 22.68 23.10 23.70 23.73 25.10 24.64 23.70 22.77 21.84 21.40 22.11 22.45 22.20 22.67 23.21 24.16 25.49
30.85 30.28 30.03 29.56 29.38 32.52 35.28 32.59 30.58 29.43 28.88 28.12 26.88 27.41 26.03 24.50 23.12 25.05 27.58 26.80 24.86 23.84 23.10 23.61 23.44 22.98 24.34 24.31 23.72 23.13 22.62 22.81 23.44 24.53 23.74 22.53 22.14 22.54 21.88 22.13 23.00 24.40 22.77 21.56 20.91 20.30 19.66 19.32 19.74 19.78 20.55 20.73 21.78 22.47
29.32 30.59 31.36 31.18 30.61 32.12 33.36 31.10 27.58 27.05 28.09 27.10 27.45 27.65 24.71 23.13 18.93 24.41 28.20 25.86 25.06 25.13 23.56 23.63 23.90 24.55 25.48 25.25 24.90 24.25 23.78 24.10 23.20 23.35 22.52 22.00 21.23 21.30 21.54 21.65 23.54 23.21 21.07 19.38 18.62 17.93 16.44 15.51 15.91 15.66 15.88 16.48 18.05 19.57